Time,TemperatureF,DewpointF,PressureIn,WindDirection,WindDirectionDegrees,WindSpeedMPH,WindSpeedGustMPH,Humidity,HourlyPrecipIn,Conditions,Clouds,dailyrainin,SolarRadiationWatts/m^2,SoftwareType,DateUTC
2013-04-30 00:00:00,65.6,62.6,29.95,SSE,147,0.0,3.0,90,0.00,,---,0.00,0.00,VWS V14.00,2013-04-30 04:00:00,
2013-04-30 00:01:00,65.6,62.6,29.95,SSE,147,0.0,0.0,90,0.00,,---,0.00,0.00,VWS V14.00,2013-04-30 04:01:00,
2013-04-30 00:02:00,65.5,62.5,29.95,SSE,147,0.0,0.0,90,0.00,,---,0.00,0.00,VWS V14.00,2013-04-30 04:02:00,
2013-04-30 00:03:00,65.5,62.5,29.95,SSE,147,0.0,0.0,90,0.00,,---,0.00,0.00,VWS V14.00,2013-04-30 04:03:00,
2013-04-30 00:04:00,65.5,62.5,29.95,SSE,147,0.0,0.0,90,0.00,,---,0.00,0.00,VWS V14.00,2013-04-30 04:04:00,
2013-04-30 00:05:00,65.5,62.5,29.95,SSE,147,0.0,0.0,90,0.00,,---,0.00,0.00,VWS V14.00,2013-04-30 04:05:00,
2013-04-30 00:06:00,65.5,62.5,29.95,SSE,147,0.0,0.0,90,0.00,,---,0.00,0.00,VWS V14.00,2013-04-30 04:06:00,
2013-04-30 00:07:00,65.4,62.4,29.95,SSE,147,0.0,0.0,90,0.00,,---,0.00,0.00,VWS V14.00,2013-04-30 04:07:00,
2013-04-30 00:08:00,65.4,62.4,29.95,SSE,147,0.0,0.0,90,0.00,,---,0.00,0.00,VWS V14.00,2013-04-30 04:08:00,
2013-04-30 00:09:00,65.4,62.4,29.95,SSE,147,0.0,0.0,90,0.00,,---,0.00,0.00,VWS V14.00,2013-04-30 04:09:00,
2013-04-30 00:10:00,65.5,62.5,29.95,SSE,147,0.0,3.0,90,0.00,,---,0.00,0.00,VWS V14.00,2013-04-30 04:10:00,
2013-04-30 00:11:00,65.5,62.5,29.95,SSE,147,0.0,3.0,90,0.00,,---,0.00,0.00,VWS V14.00,2013-04-30 04:11:00,
2013-04-30 00:12:00,65.4,62.4,29.95,SSE,147,0.0,3.0,90,0.00,,---,0.00,0.00,VWS V14.00,2013-04-30 04:12:00,
2013-04-30 00:13:00,65.4,62.4,29.95,SSE,147,0.0,3.0,90,0.00,,---,0.00,0.00,VWS V14.00,2013-04-30 04:13:00,
2013-04-30 00:14:00,65.4,62.4,29.95,SSE,147,0.0,3.0,90,0.00,,---,0.00,0.00,VWS V14.00,2013-04-30 04:14:00,
2013-04-30 00:15:00,65.4,62.4,29.95,SSE,147,0.0,3.0,90,0.00,,---,0.00,0.00,VWS V14.00,2013-04-30 04:15:00,
2013-04-30 00:16:00,65.4,62.4,29.95,SSE,147,0.0,3.0,90,0.00,,---,0.00,0.00,VWS V14.00,2013-04-30 04:16:00,
2013-04-30 00:17:00,65.3,62.3,29.95,SSE,147,0.0,3.0,90,0.00,,---,0.00,0.00,VWS V14.00,2013-04-30 04:17:00,
2013-04-30 00:18:00,65.3,62.3,29.95,SSE,147,0.0,3.0,90,0.00,,---,0.00,0.00,VWS V14.00,2013-04-30 04:18:00,
2013-04-30 00:19:00,65.3,62.3,29.95,SSE,147,0.0,3.0,90,0.00,,---,0.00,0.00,VWS V14.00,2013-04-30 04:19:00,
2013-04-30 00:20:00,65.3,62.3,29.95,SSE,147,0.0,3.0,90,0.00,,---,0.00,0.00,VWS V14.00,2013-04-30 04:20:00,
2013-04-30 00:21:00,65.3,62.3,29.95,SSE,147,0.0,3.0,90,0.00,,---,0.00,0.00,VWS V14.00,2013-04-30 04:21:00,
2013-04-30 00:22:00,65.2,62.2,29.95,SSE,147,0.0,3.0,90,0.00,,---,0.00,0.00,VWS V14.00,2013-04-30 04:22:00,
2013-04-30 00:23:00,65.3,62.3,29.95,SSE,147,0.0,3.0,90,0.00,,---,0.00,0.00,VWS V14.00,2013-04-30 04:23:00,
2013-04-30 00:24:00,65.3,62.3,29.95,SSE,147,2.0,3.0,90,0.00,,---,0.00,0.00,VWS V14.00,2013-04-30 04:24:00,
2013-04-30 00:25:00,65.2,62.2,29.95,SSE,147,0.0,3.0,90,0.00,,---,0.00,0.00,VWS V14.00,2013-04-30 04:25:00,
2013-04-30 00:26:00,65.2,62.2,29.95,SSE,147,0.0,3.0,90,0.00,,---,0.00,0.00,VWS V14.00,2013-04-30 04:26:00,
2013-04-30 00:27:00,65.2,62.2,29.95,SSE,147,0.0,3.0,90,0.00,,---,0.00,0.00,VWS V14.00,2013-04-30 04:27:00,
2013-04-30 00:28:00,65.2,62.2,29.95,SSE,147,0.0,3.0,90,0.00,,---,0.00,0.00,VWS V14.00,2013-04-30 04:28:00,
2013-04-30 00:29:00,65.2,62.2,29.95,SSE,147,0.0,3.0,90,0.00,,---,0.00,0.00,VWS V14.00,2013-04-30 04:29:00,
2013-04-30 00:30:00,65.2,62.2,29.95,SSE,147,0.0,3.0,90,0.00,,---,0.00,0.00,VWS V14.00,2013-04-30 04:30:00,
2013-04-30 00:31:00,65.2,62.2,29.95,SSE,147,0.0,0.0,90,0.00,,---,0.00,0.00,VWS V14.00,2013-04-30 04:31:00,
2013-04-30 00:32:00,65.2,62.2,29.95,SSE,147,0.0,0.0,90,0.00,,---,0.00,0.00,VWS V14.00,2013-04-30 04:32:00,
2013-04-30 00:33:00,65.3,62.3,29.95,SSE,147,0.0,0.0,90,0.00,,---,0.00,0.00,VWS V14.00,2013-04-30 04:33:00,
2013-04-30 00:34:00,65.2,62.2,29.95,SSE,147,0.0,0.0,90,0.00,,---,0.00,0.00,VWS V14.00,2013-04-30 04:34:00,
2013-04-30 00:35:00,65.2,62.2,29.95,SSE,147,0.0,0.0,90,0.00,,---,0.00,0.00,VWS V14.00,2013-04-30 04:35:00,
2013-04-30 00:36:00,65.2,62.2,29.95,SSE,147,0.0,0.0,90,0.00,,---,0.00,0.00,VWS V14.00,2013-04-30 04:36:00,
2013-04-30 00:37:00,65.3,62.3,29.95,SSE,147,0.0,0.0,90,0.00,,---,0.00,0.00,VWS V14.00,2013-04-30 04:37:00,
2013-04-30 00:38:00,65.2,62.2,29.95,SSE,147,0.0,0.0,90,0.00,,---,0.00,0.00,VWS V14.00,2013-04-30 04:38:00,
2013-04-30 00:39:00,65.2,62.2,29.95,SSE,147,0.0,0.0,90,0.00,,---,0.00,0.00,VWS V14.00,2013-04-30 04:39:00,
2013-04-30 00:40:00,65.3,62.3,29.95,SSE,147,0.0,0.0,90,0.00,,---,0.00,0.00,VWS V14.00,2013-04-30 04:40:00,
2013-04-30 00:41:00,65.3,62.3,29.95,SSE,147,0.0,1.0,90,0.00,,---,0.00,0.00,VWS V14.00,2013-04-30 04:41:00,
2013-04-30 00:42:00,65.3,62.3,29.95,SSE,147,0.0,1.0,90,0.00,,---,0.00,0.00,VWS V14.00,2013-04-30 04:42:00,
2013-04-30 00:43:00,65.3,62.3,29.95,SSE,147,0.0,1.0,90,0.00,,---,0.00,0.00,VWS V14.00,2013-04-30 04:43:00,
2013-04-30 00:44:00,65.3,62.3,29.95,SSE,147,0.0,1.0,90,0.00,,---,0.00,0.00,VWS V14.00,2013-04-30 04:44:00,
2013-04-30 00:45:00,65.3,62.3,29.95,SSE,147,0.0,1.0,90,0.00,,---,0.00,0.00,VWS V14.00,2013-04-30 04:45:00,
2013-04-30 00:46:00,65.2,62.2,29.95,SSE,147,0.0,1.0,90,0.00,,---,0.00,0.00,VWS V14.00,2013-04-30 04:46:00,
2013-04-30 00:47:00,65.3,62.3,29.95,SSE,147,0.0,1.0,90,0.00,,---,0.00,0.00,VWS V14.00,2013-04-30 04:47:00,
2013-04-30 00:48:00,65.3,62.3,29.95,SSE,147,0.0,1.0,90,0.00,,---,0.00,0.00,VWS V14.00,2013-04-30 04:48:00,
2013-04-30 00:49:00,65.3,62.3,29.95,SSE,147,0.0,1.0,90,0.00,,---,0.00,0.00,VWS V14.00,2013-04-30 04:49:00,
2013-04-30 00:50:00,65.3,62.6,29.95,SSE,147,0.0,1.0,91,0.00,,---,0.00,0.00,VWS V14.00,2013-04-30 04:50:00,
2013-04-30 00:51:00,65.3,62.6,29.95,SSE,147,0.0,1.0,91,0.00,,---,0.00,0.00,VWS V14.00,2013-04-30 04:51:00,
2013-04-30 00:52:00,65.3,62.6,29.95,SSE,147,0.0,1.0,91,0.00,,---,0.00,0.00,VWS V14.00,2013-04-30 04:52:00,
2013-04-30 00:53:00,65.3,62.6,29.95,SSE,147,0.0,1.0,91,0.00,,---,0.00,0.00,VWS V14.00,2013-04-30 04:53:00,
2013-04-30 00:54:00,65.3,62.6,29.95,SSE,147,0.0,1.0,91,0.00,,---,0.00,0.00,VWS V14.00,2013-04-30 04:54:00,
2013-04-30 00:55:00,65.3,62.6,29.95,SSE,147,0.0,1.0,91,0.00,,---,0.00,0.00,VWS V14.00,2013-04-30 04:55:00,
2013-04-30 00:56:00,65.3,62.6,29.95,SSE,147,0.0,1.0,91,0.00,,---,0.00,0.00,VWS V14.00,2013-04-30 04:56:00,
2013-04-30 00:57:00,65.3,62.6,29.95,SSE,147,0.0,1.0,91,0.00,,---,0.00,0.00,VWS V14.00,2013-04-30 04:57:00,
2013-04-30 00:58:00,65.4,62.7,29.95,SSE,147,0.0,1.0,91,0.00,,---,0.00,0.00,VWS V14.00,2013-04-30 04:58:00,
2013-04-30 00:59:00,65.3,62.6,29.95,SSE,147,0.0,1.0,91,0.00,,---,0.00,0.00,VWS V14.00,2013-04-30 04:59:00,
2013-04-30 01:00:00,65.3,62.6,29.95,SSE,147,0.0,1.0,91,0.00,,---,0.00,0.00,VWS V14.00,2013-04-30 05:00:00,
2013-04-30 01:01:00,65.3,62.6,29.95,SSE,147,0.0,0.0,91,0.00,,---,0.00,0.00,VWS V14.00,2013-04-30 05:01:00,
2013-04-30 01:02:00,65.3,62.6,29.95,SSE,147,0.0,0.0,91,0.00,,---,0.00,0.00,VWS V14.00,2013-04-30 05:02:00,
2013-04-30 01:03:00,65.3,62.6,29.95,SSE,147,0.0,0.0,91,0.00,,---,0.00,0.00,VWS V14.00,2013-04-30 05:03:00,
2013-04-30 01:04:00,65.3,62.6,29.95,SSE,147,0.0,0.0,91,0.00,,---,0.00,0.00,VWS V14.00,2013-04-30 05:04:00,
2013-04-30 01:05:00,65.2,62.5,29.95,SSE,147,0.0,0.0,91,0.00,,---,0.00,0.00,VWS V14.00,2013-04-30 05:05:00,
2013-04-30 01:06:00,65.2,62.5,29.96,SSE,147,0.0,0.0,91,0.00,,---,0.00,0.00,VWS V14.00,2013-04-30 05:06:00,
2013-04-30 01:07:00,65.2,62.5,29.96,SSE,147,0.0,0.0,91,0.00,,---,0.00,0.00,VWS V14.00,2013-04-30 05:07:00,
2013-04-30 01:08:00,65.2,62.5,29.96,SSE,147,0.0,0.0,91,0.00,,---,0.00,0.00,VWS V14.00,2013-04-30 05:08:00,
2013-04-30 01:09:00,65.2,62.5,29.96,SSE,147,0.0,0.0,91,0.00,,---,0.00,0.00,VWS V14.00,2013-04-30 05:09:00,
2013-04-30 01:10:00,65.2,62.5,29.95,SSE,147,0.0,0.0,91,0.00,,---,0.00,0.00,VWS V14.00,2013-04-30 05:10:00,
2013-04-30 01:11:00,65.3,62.6,29.96,SSE,147,0.0,2.0,91,0.00,,---,0.00,0.00,VWS V14.00,2013-04-30 05:11:00,
2013-04-30 01:12:00,65.2,62.5,29.96,SSE,147,0.0,2.0,91,0.00,,---,0.00,0.00,VWS V14.00,2013-04-30 05:12:00,
2013-04-30 01:13:00,65.2,62.5,29.96,SSE,147,0.0,2.0,91,0.00,,---,0.00,0.00,VWS V14.00,2013-04-30 05:13:00,
2013-04-30 01:14:00,65.2,62.5,29.96,SSE,147,0.0,2.0,91,0.00,,---,0.00,0.00,VWS V14.00,2013-04-30 05:14:00,
2013-04-30 01:15:00,65.3,62.6,29.96,SSE,147,0.0,2.0,91,0.00,,---,0.00,0.00,VWS V14.00,2013-04-30 05:15:00,
2013-04-30 01:16:00,65.3,62.6,29.96,SSE,147,0.0,2.0,91,0.00,,---,0.00,0.00,VWS V14.00,2013-04-30 05:16:00,
2013-04-30 01:17:00,65.3,62.6,29.96,SSE,147,0.0,2.0,91,0.00,,---,0.00,0.00,VWS V14.00,2013-04-30 05:17:00,
2013-04-30 01:18:00,65.3,62.6,29.96,SSE,147,0.0,2.0,91,0.00,,---,0.00,0.00,VWS V14.00,2013-04-30 05:18:00,
2013-04-30 01:19:00,65.3,62.6,29.96,SSE,147,0.0,2.0,91,0.00,,---,0.00,0.00,VWS V14.00,2013-04-30 05:19:00,
2013-04-30 01:20:00,65.3,62.6,29.96,SSE,147,0.0,2.0,91,0.00,,---,0.00,0.00,VWS V14.00,2013-04-30 05:20:00,
2013-04-30 01:21:00,65.3,62.6,29.96,SSE,147,0.0,2.0,91,0.00,,---,0.00,0.00,VWS V14.00,2013-04-30 05:21:00,
2013-04-30 01:22:00,65.3,62.6,29.96,SSE,147,0.0,2.0,91,0.00,,---,0.00,0.00,VWS V14.00,2013-04-30 05:22:00,
2013-04-30 01:23:00,65.3,62.6,29.96,SSE,147,2.0,2.0,91,0.00,,---,0.00,0.00,VWS V14.00,2013-04-30 05:23:00,
2013-04-30 01:24:00,65.3,62.6,29.96,SSE,147,0.0,2.0,91,0.00,,---,0.00,0.00,VWS V14.00,2013-04-30 05:24:00,
2013-04-30 01:25:00,65.4,62.7,29.96,SSE,147,1.0,2.0,91,0.00,,---,0.00,0.00,VWS V14.00,2013-04-30 05:25:00,
2013-04-30 01:26:00,65.4,62.7,29.96,SSE,147,1.0,2.0,91,0.00,,---,0.00,0.00,VWS V14.00,2013-04-30 05:26:00,
2013-04-30 01:27:00,65.5,62.8,29.96,SSE,147,1.0,2.0,91,0.00,,---,0.00,0.00,VWS V14.00,2013-04-30 05:27:00,
2013-04-30 01:28:00,65.6,62.9,29.96,SSE,147,2.0,2.0,91,0.00,,---,0.00,0.00,VWS V14.00,2013-04-30 05:28:00,
2013-04-30 01:29:00,65.6,62.9,29.96,SSE,147,2.0,2.0,91,0.00,,---,0.00,0.00,VWS V14.00,2013-04-30 05:29:00,
2013-04-30 01:30:00,65.6,62.9,29.96,SSE,147,1.0,2.0,91,0.00,,---,0.00,0.00,VWS V14.00,2013-04-30 05:30:00,
2013-04-30 01:31:00,65.6,62.9,29.96,SSE,147,1.0,2.0,91,0.00,,---,0.00,0.00,VWS V14.00,2013-04-30 05:31:00,
2013-04-30 01:32:00,65.6,62.9,29.96,SSE,147,1.0,2.0,91,0.00,,---,0.00,0.00,VWS V14.00,2013-04-30 05:32:00,
2013-04-30 01:33:00,65.6,62.9,29.96,SSE,147,1.0,2.0,91,0.00,,---,0.00,0.00,VWS V14.00,2013-04-30 05:33:00,
2013-04-30 01:34:00,65.6,62.9,29.96,SSE,147,1.0,2.0,91,0.00,,---,0.00,0.00,VWS V14.00,2013-04-30 05:34:00,
2013-04-30 01:35:00,65.6,62.9,29.96,SSE,147,1.0,2.0,91,0.00,,---,0.00,0.00,VWS V14.00,2013-04-30 05:35:00,
2013-04-30 01:36:00,65.5,62.8,29.96,SSE,147,1.0,3.0,91,0.00,,---,0.00,0.00,VWS V14.00,2013-04-30 05:36:00,
2013-04-30 01:37:00,65.5,62.8,29.96,SSE,147,2.0,3.0,91,0.00,,---,0.00,0.00,VWS V14.00,2013-04-30 05:37:00,
2013-04-30 01:38:00,65.5,62.8,29.96,SSE,147,2.0,3.0,91,0.00,,---,0.00,0.00,VWS V14.00,2013-04-30 05:38:00,
2013-04-30 01:39:00,65.4,62.7,29.96,SSE,147,3.0,3.0,91,0.00,,---,0.00,0.00,VWS V14.00,2013-04-30 05:39:00,
2013-04-30 01:40:00,65.4,62.7,29.96,SSE,147,2.0,3.0,91,0.00,,---,0.00,0.00,VWS V14.00,2013-04-30 05:40:00,
2013-04-30 01:41:00,65.4,62.7,29.95,SSE,147,2.0,3.0,91,0.00,,---,0.00,0.00,VWS V14.00,2013-04-30 05:41:00,
2013-04-30 01:42:00,65.4,62.7,29.95,SSE,147,3.0,3.0,91,0.00,,---,0.00,0.00,VWS V14.00,2013-04-30 05:42:00,
2013-04-30 01:43:00,65.4,62.7,29.95,SSE,147,4.0,4.0,91,0.00,,---,0.00,0.00,VWS V14.00,2013-04-30 05:43:00,
2013-04-30 01:44:00,65.5,62.8,29.95,SSE,147,3.0,5.0,91,0.00,,---,0.00,0.00,VWS V14.00,2013-04-30 05:44:00,
2013-04-30 01:45:00,65.5,62.8,29.95,SSE,147,4.0,5.0,91,0.00,,---,0.00,0.00,VWS V14.00,2013-04-30 05:45:00,
2013-04-30 01:46:00,65.4,62.7,29.95,SSE,147,3.0,5.0,91,0.00,,---,0.00,0.00,VWS V14.00,2013-04-30 05:46:00,
2013-04-30 01:47:00,65.4,62.7,29.95,SSE,147,2.0,5.0,91,0.00,,---,0.00,0.00,VWS V14.00,2013-04-30 05:47:00,
2013-04-30 01:48:00,65.5,62.8,29.95,SSE,147,2.0,5.0,91,0.00,,---,0.00,0.00,VWS V14.00,2013-04-30 05:48:00,
2013-04-30 01:49:00,65.5,62.8,29.95,SSE,147,3.0,5.0,91,0.00,,---,0.00,0.00,VWS V14.00,2013-04-30 05:49:00,
2013-04-30 01:50:00,65.5,62.8,29.95,SSE,147,1.0,5.0,91,0.00,,---,0.00,0.00,VWS V14.00,2013-04-30 05:50:00,
2013-04-30 01:51:00,65.5,62.8,29.95,SSE,147,0.0,5.0,91,0.00,,---,0.00,0.00,VWS V14.00,2013-04-30 05:51:00,
2013-04-30 01:52:00,65.4,62.7,29.95,SSE,147,0.0,5.0,91,0.00,,---,0.00,0.00,VWS V14.00,2013-04-30 05:52:00,
2013-04-30 01:53:00,65.4,62.7,29.95,SSE,147,0.0,5.0,91,0.00,,---,0.00,0.00,VWS V14.00,2013-04-30 05:53:00,
2013-04-30 01:54:00,65.4,62.7,29.95,SSE,147,0.0,5.0,91,0.00,,---,0.00,0.00,VWS V14.00,2013-04-30 05:54:00,
2013-04-30 01:55:00,65.4,62.7,29.95,SSE,147,0.0,5.0,91,0.00,,---,0.00,0.00,VWS V14.00,2013-04-30 05:55:00,
2013-04-30 01:56:00,65.4,62.7,29.95,SSE,147,0.0,5.0,91,0.00,,---,0.00,0.00,VWS V14.00,2013-04-30 05:56:00,
2013-04-30 01:57:00,65.4,62.7,29.95,SSE,147,0.0,5.0,91,0.00,,---,0.00,0.00,VWS V14.00,2013-04-30 05:57:00,
2013-04-30 01:58:00,65.4,62.7,29.95,SSE,147,0.0,5.0,91,0.00,,---,0.00,0.00,VWS V14.00,2013-04-30 05:58:00,
2013-04-30 01:59:00,65.4,62.7,29.95,SSE,147,2.0,5.0,91,0.00,,---,0.00,0.00,VWS V14.00,2013-04-30 05:59:00,
2013-04-30 02:00:00,65.4,62.7,29.95,SSE,147,1.0,5.0,91,0.00,,---,0.00,0.00,VWS V14.00,2013-04-30 06:00:00,
2013-04-30 02:01:00,65.4,62.7,29.95,SSE,147,0.0,0.0,91,0.00,,---,0.00,0.00,VWS V14.00,2013-04-30 06:01:00,
2013-04-30 02:02:00,65.4,62.7,29.95,SSE,147,1.0,2.0,91,0.00,,---,0.00,0.00,VWS V14.00,2013-04-30 06:02:00,
2013-04-30 02:03:00,65.4,62.7,29.95,SSE,147,2.0,2.0,91,0.00,,---,0.00,0.00,VWS V14.00,2013-04-30 06:03:00,
2013-04-30 02:04:00,65.4,62.7,29.95,SSE,147,0.0,2.0,91,0.00,,---,0.00,0.00,VWS V14.00,2013-04-30 06:04:00,
2013-04-30 02:05:00,65.4,62.7,29.95,SSE,147,0.0,2.0,91,0.00,,---,0.00,0.00,VWS V14.00,2013-04-30 06:05:00,
2013-04-30 02:06:00,65.4,62.7,29.95,SSE,147,0.0,2.0,91,0.00,,---,0.00,0.00,VWS V14.00,2013-04-30 06:06:00,
2013-04-30 02:07:00,65.5,62.8,29.95,SSE,147,0.0,2.0,91,0.00,,---,0.00,0.00,VWS V14.00,2013-04-30 06:07:00,
2013-04-30 02:08:00,65.5,62.8,29.95,SSE,147,0.0,2.0,91,0.00,,---,0.00,0.00,VWS V14.00,2013-04-30 06:08:00,
2013-04-30 02:09:00,65.6,62.9,29.95,SSE,147,0.0,2.0,91,0.00,,---,0.00,0.00,VWS V14.00,2013-04-30 06:09:00,
2013-04-30 02:10:00,65.6,62.9,29.95,SSE,147,0.0,2.0,91,0.00,,---,0.00,0.00,VWS V14.00,2013-04-30 06:10:00,
2013-04-30 02:11:00,65.6,62.9,29.95,SSE,147,0.0,2.0,91,0.00,,---,0.00,0.00,VWS V14.00,2013-04-30 06:11:00,
2013-04-30 02:12:00,65.5,62.8,29.95,SSE,147,0.0,2.0,91,0.00,,---,0.01,0.00,VWS V14.00,2013-04-30 06:12:00,
2013-04-30 02:13:00,65.4,62.7,29.95,SSE,147,0.0,2.0,91,0.00,,---,0.01,0.00,VWS V14.00,2013-04-30 06:13:00,
2013-04-30 02:14:00,65.4,62.7,29.95,SSE,147,0.0,2.0,91,0.00,,---,0.01,0.00,VWS V14.00,2013-04-30 06:14:00,
2013-04-30 02:15:00,65.3,62.6,29.95,SSE,147,0.0,2.0,91,0.00,,---,0.01,0.00,VWS V14.00,2013-04-30 06:15:00,
2013-04-30 02:16:00,65.3,62.6,29.95,SSE,147,0.0,2.0,91,0.00,,---,0.01,0.00,VWS V14.00,2013-04-30 06:16:00,
2013-04-30 02:17:00,65.3,62.6,29.95,SSE,147,0.0,2.0,91,0.00,,---,0.01,0.00,VWS V14.00,2013-04-30 06:17:00,
2013-04-30 02:18:00,65.3,62.6,29.95,SSE,147,0.0,2.0,91,0.00,,---,0.01,0.00,VWS V14.00,2013-04-30 06:18:00,
2013-04-30 02:19:00,65.3,62.6,29.95,SSE,147,0.0,2.0,91,0.00,,---,0.01,0.00,VWS V14.00,2013-04-30 06:19:00,
2013-04-30 02:20:00,65.3,62.6,29.95,SSE,147,0.0,2.0,91,0.00,,---,0.01,0.00,VWS V14.00,2013-04-30 06:20:00,
2013-04-30 02:21:00,65.4,62.7,29.95,SSE,147,0.0,2.0,91,0.00,,---,0.01,0.00,VWS V14.00,2013-04-30 06:21:00,
2013-04-30 02:22:00,65.4,62.7,29.95,SSE,147,0.0,2.0,91,0.00,,---,0.01,0.00,VWS V14.00,2013-04-30 06:22:00,
2013-04-30 02:23:00,65.3,62.6,29.95,SSE,147,0.0,2.0,91,0.00,,---,0.01,0.00,VWS V14.00,2013-04-30 06:23:00,
2013-04-30 02:24:00,65.3,62.6,29.95,SSE,147,0.0,2.0,91,0.00,,---,0.01,0.00,VWS V14.00,2013-04-30 06:24:00,
2013-04-30 02:25:00,65.3,62.6,29.95,SSE,147,0.0,2.0,91,0.00,,---,0.01,0.00,VWS V14.00,2013-04-30 06:25:00,
2013-04-30 02:26:00,65.3,62.6,29.95,SSE,147,0.0,2.0,91,0.00,,---,0.01,0.00,VWS V14.00,2013-04-30 06:26:00,
2013-04-30 02:27:00,65.3,62.6,29.95,SSE,147,0.0,2.0,91,0.00,,---,0.01,0.00,VWS V14.00,2013-04-30 06:27:00,
2013-04-30 02:28:00,65.3,62.6,29.95,SSE,147,0.0,2.0,91,0.00,,---,0.01,0.00,VWS V14.00,2013-04-30 06:28:00,
2013-04-30 02:29:00,65.3,62.6,29.95,SSE,147,0.0,2.0,91,0.00,,---,0.01,0.00,VWS V14.00,2013-04-30 06:29:00,
2013-04-30 02:30:00,65.3,62.6,29.95,SSE,147,0.0,2.0,91,0.00,,---,0.01,0.00,VWS V14.00,2013-04-30 06:30:00,
2013-04-30 02:31:00,65.3,62.6,29.95,SSE,147,0.0,0.0,91,0.00,,---,0.01,0.00,VWS V14.00,2013-04-30 06:31:00,
2013-04-30 02:32:00,65.3,62.6,29.95,SSE,147,0.0,0.0,91,0.00,,---,0.01,0.00,VWS V14.00,2013-04-30 06:32:00,
2013-04-30 02:33:00,65.2,62.5,29.96,SSE,147,0.0,0.0,91,0.00,,---,0.01,0.00,VWS V14.00,2013-04-30 06:33:00,
2013-04-30 02:34:00,65.2,62.5,29.96,SSE,147,0.0,0.0,91,0.00,,---,0.01,0.00,VWS V14.00,2013-04-30 06:34:00,
2013-04-30 02:35:00,65.2,62.5,29.96,SSE,147,0.0,0.0,91,0.00,,---,0.01,0.00,VWS V14.00,2013-04-30 06:35:00,
2013-04-30 02:36:00,65.3,62.6,29.96,SSE,147,0.0,0.0,91,0.00,,---,0.01,0.00,VWS V14.00,2013-04-30 06:36:00,
2013-04-30 02:37:00,65.3,62.6,29.96,SSE,147,0.0,0.0,91,0.00,,---,0.01,0.00,VWS V14.00,2013-04-30 06:37:00,
2013-04-30 02:38:00,65.3,62.6,29.96,SSE,147,0.0,0.0,91,0.00,,---,0.01,0.00,VWS V14.00,2013-04-30 06:38:00,
2013-04-30 02:39:00,65.3,62.6,29.96,SSE,147,0.0,0.0,91,0.00,,---,0.01,0.00,VWS V14.00,2013-04-30 06:39:00,
2013-04-30 02:40:00,65.3,62.6,29.96,SSE,147,0.0,0.0,91,0.00,,---,0.01,0.00,VWS V14.00,2013-04-30 06:40:00,
2013-04-30 02:41:00,65.3,62.6,29.96,SSE,147,0.0,0.0,91,0.00,,---,0.01,0.00,VWS V14.00,2013-04-30 06:41:00,
2013-04-30 02:42:00,65.3,62.6,29.96,SSE,147,0.0,0.0,91,0.00,,---,0.01,0.00,VWS V14.00,2013-04-30 06:42:00,
2013-04-30 02:43:00,65.3,62.6,29.96,SSE,147,0.0,0.0,91,0.00,,---,0.01,0.00,VWS V14.00,2013-04-30 06:43:00,
2013-04-30 02:44:00,65.3,62.6,29.96,SSE,147,0.0,0.0,91,0.00,,---,0.01,0.00,VWS V14.00,2013-04-30 06:44:00,
2013-04-30 02:45:00,65.4,62.7,29.96,SSE,147,0.0,0.0,91,0.00,,---,0.01,0.00,VWS V14.00,2013-04-30 06:45:00,
2013-04-30 02:46:00,65.5,62.8,29.96,SSE,147,0.0,0.0,91,0.00,,---,0.01,0.00,VWS V14.00,2013-04-30 06:46:00,
2013-04-30 02:47:00,65.5,62.8,29.96,SSE,147,2.0,3.0,91,0.00,,---,0.01,0.00,VWS V14.00,2013-04-30 06:47:00,
2013-04-30 02:48:00,65.6,63.2,29.95,SSE,147,1.0,3.0,92,0.00,,---,0.01,0.00,VWS V14.00,2013-04-30 06:48:00,
2013-04-30 02:49:00,65.7,63.3,29.95,SSE,147,0.0,3.0,92,0.00,,---,0.01,0.00,VWS V14.00,2013-04-30 06:49:00,
2013-04-30 02:50:00,65.7,63.3,29.95,SSE,147,1.0,3.0,92,0.00,,---,0.01,0.00,VWS V14.00,2013-04-30 06:50:00,
2013-04-30 02:51:00,65.7,63.3,29.95,SSE,147,2.0,3.0,92,0.00,,---,0.01,0.00,VWS V14.00,2013-04-30 06:51:00,
2013-04-30 02:52:00,65.7,63.3,29.95,SSE,147,0.0,3.0,92,0.00,,---,0.01,0.00,VWS V14.00,2013-04-30 06:52:00,
2013-04-30 02:53:00,65.6,63.2,29.95,SSE,147,1.0,3.0,92,0.00,,---,0.01,0.00,VWS V14.00,2013-04-30 06:53:00,
2013-04-30 02:54:00,65.7,63.3,29.95,SSE,147,4.0,4.0,92,0.00,,---,0.01,0.00,VWS V14.00,2013-04-30 06:54:00,
2013-04-30 02:55:00,65.6,63.2,29.95,SE,144,3.0,4.0,92,0.00,,---,0.01,0.00,VWS V14.00,2013-04-30 06:55:00,
2013-04-30 02:56:00,65.6,63.2,29.95,East,87,4.0,5.0,92,0.00,,---,0.01,0.00,VWS V14.00,2013-04-30 06:56:00,
2013-04-30 02:57:00,65.6,63.2,29.95,East,87,4.0,5.0,92,0.00,,---,0.01,0.00,VWS V14.00,2013-04-30 06:57:00,
2013-04-30 02:58:00,65.6,63.2,29.95,East,87,5.0,5.0,92,0.00,,---,0.01,0.00,VWS V14.00,2013-04-30 06:58:00,
2013-04-30 02:59:00,65.4,62.7,29.95,East,87,4.0,5.0,91,0.00,,---,0.01,0.00,VWS V14.00,2013-04-30 06:59:00,
2013-04-30 03:00:00,65.4,62.7,29.95,East,87,4.0,5.0,91,0.00,,---,0.01,0.00,VWS V14.00,2013-04-30 07:00:00,
2013-04-30 03:01:00,65.4,62.7,29.95,East,87,4.0,5.0,91,0.00,,---,0.01,0.00,VWS V14.00,2013-04-30 07:01:00,
2013-04-30 03:02:00,65.4,62.7,29.95,East,87,4.0,5.0,91,0.00,,---,0.01,0.00,VWS V14.00,2013-04-30 07:02:00,
2013-04-30 03:03:00,65.4,62.7,29.95,East,87,4.0,5.0,91,0.00,,---,0.01,0.00,VWS V14.00,2013-04-30 07:03:00,
2013-04-30 03:04:00,65.5,62.8,29.95,East,87,4.0,5.0,91,0.00,,---,0.01,0.00,VWS V14.00,2013-04-30 07:04:00,
2013-04-30 03:05:00,65.5,62.8,29.95,East,87,3.0,5.0,91,0.00,,---,0.01,0.00,VWS V14.00,2013-04-30 07:05:00,
2013-04-30 03:06:00,65.5,62.8,29.95,East,87,3.0,5.0,91,0.00,,---,0.01,0.00,VWS V14.00,2013-04-30 07:06:00,
2013-04-30 03:07:00,65.5,62.8,29.95,East,87,3.0,5.0,91,0.00,,---,0.01,0.00,VWS V14.00,2013-04-30 07:07:00,
2013-04-30 03:08:00,65.5,62.8,29.95,East,87,2.0,5.0,91,0.00,,---,0.01,0.00,VWS V14.00,2013-04-30 07:08:00,
2013-04-30 03:09:00,65.5,62.8,29.95,East,87,1.0,5.0,91,0.00,,---,0.01,0.00,VWS V14.00,2013-04-30 07:09:00,
2013-04-30 03:10:00,65.5,62.8,29.95,East,87,1.0,5.0,91,0.00,,---,0.01,0.00,VWS V14.00,2013-04-30 07:10:00,
2013-04-30 03:11:00,65.5,62.8,29.95,East,87,1.0,5.0,91,0.00,,---,0.01,0.00,VWS V14.00,2013-04-30 07:11:00,
2013-04-30 03:12:00,65.5,62.8,29.95,East,87,2.0,5.0,91,0.00,,---,0.01,0.00,VWS V14.00,2013-04-30 07:12:00,
2013-04-30 03:13:00,65.5,62.8,29.95,East,87,1.0,5.0,91,0.00,,---,0.01,0.00,VWS V14.00,2013-04-30 07:13:00,
2013-04-30 03:14:00,65.5,62.8,29.96,East,87,1.0,5.0,91,0.00,,---,0.01,0.00,VWS V14.00,2013-04-30 07:14:00,
2013-04-30 03:15:00,65.5,62.8,29.95,East,87,0.0,5.0,91,0.00,,---,0.01,0.00,VWS V14.00,2013-04-30 07:15:00,
2013-04-30 03:16:00,65.5,62.8,29.96,East,87,0.0,5.0,91,0.00,,---,0.01,0.00,VWS V14.00,2013-04-30 07:16:00,
2013-04-30 03:17:00,65.5,62.8,29.96,East,87,0.0,5.0,91,0.00,,---,0.01,0.00,VWS V14.00,2013-04-30 07:17:00,
2013-04-30 03:18:00,65.6,62.9,29.96,East,87,0.0,5.0,91,0.00,,---,0.01,0.00,VWS V14.00,2013-04-30 07:18:00,
2013-04-30 03:19:00,65.5,62.8,29.96,East,87,0.0,5.0,91,0.00,,---,0.01,0.00,VWS V14.00,2013-04-30 07:19:00,
2013-04-30 03:20:00,65.6,62.9,29.96,East,87,0.0,5.0,91,0.00,,---,0.01,0.00,VWS V14.00,2013-04-30 07:20:00,
2013-04-30 03:21:00,65.5,62.8,29.96,East,87,0.0,5.0,91,0.00,,---,0.01,0.00,VWS V14.00,2013-04-30 07:21:00,
2013-04-30 03:22:00,65.5,62.8,29.96,East,87,0.0,5.0,91,0.00,,---,0.01,0.00,VWS V14.00,2013-04-30 07:22:00,
2013-04-30 03:23:00,65.5,62.8,29.96,East,87,0.0,5.0,91,0.00,,---,0.01,0.00,VWS V14.00,2013-04-30 07:23:00,
2013-04-30 03:24:00,65.5,62.8,29.96,East,87,0.0,5.0,91,0.00,,---,0.01,0.00,VWS V14.00,2013-04-30 07:24:00,
2013-04-30 03:25:00,65.6,62.9,29.96,East,87,0.0,5.0,91,0.00,,---,0.01,0.00,VWS V14.00,2013-04-30 07:25:00,
2013-04-30 03:26:00,65.5,62.8,29.96,East,87,0.0,5.0,91,0.00,,---,0.01,0.00,VWS V14.00,2013-04-30 07:26:00,
2013-04-30 03:27:00,65.5,62.8,29.97,East,87,0.0,5.0,91,0.00,,---,0.01,0.00,VWS V14.00,2013-04-30 07:27:00,
2013-04-30 03:28:00,65.6,62.9,29.97,East,87,0.0,5.0,91,0.00,,---,0.01,0.00,VWS V14.00,2013-04-30 07:28:00,
2013-04-30 03:29:00,65.5,62.8,29.96,East,87,0.0,5.0,91,0.00,,---,0.01,0.00,VWS V14.00,2013-04-30 07:29:00,
2013-04-30 03:30:00,65.6,62.9,29.96,East,87,0.0,5.0,91,0.00,,---,0.01,0.00,VWS V14.00,2013-04-30 07:30:00,
2013-04-30 03:31:00,65.5,62.8,29.96,East,87,0.0,0.0,91,0.00,,---,0.01,0.00,VWS V14.00,2013-04-30 07:31:00,
2013-04-30 03:32:00,65.5,62.8,29.96,East,87,0.0,0.0,91,0.00,,---,0.01,0.00,VWS V14.00,2013-04-30 07:32:00,
2013-04-30 03:33:00,65.5,62.8,29.96,East,87,0.0,0.0,91,0.00,,---,0.01,0.00,VWS V14.00,2013-04-30 07:33:00,
2013-04-30 03:34:00,65.5,62.8,29.96,East,87,0.0,0.0,91,0.00,,---,0.01,0.00,VWS V14.00,2013-04-30 07:34:00,
2013-04-30 03:35:00,65.5,62.8,29.96,East,87,0.0,0.0,91,0.00,,---,0.01,0.00,VWS V14.00,2013-04-30 07:35:00,
2013-04-30 03:36:00,65.5,62.8,29.96,East,87,0.0,0.0,91,0.00,,---,0.01,0.00,VWS V14.00,2013-04-30 07:36:00,
2013-04-30 03:37:00,65.5,62.8,29.96,East,87,0.0,0.0,91,0.00,,---,0.01,0.00,VWS V14.00,2013-04-30 07:37:00,
2013-04-30 03:38:00,65.5,62.8,29.97,East,87,0.0,0.0,91,0.00,,---,0.01,0.00,VWS V14.00,2013-04-30 07:38:00,
2013-04-30 03:39:00,65.5,62.8,29.97,East,87,0.0,0.0,91,0.00,,---,0.01,0.00,VWS V14.00,2013-04-30 07:39:00,
2013-04-30 03:40:00,65.6,62.9,29.97,East,87,0.0,0.0,91,0.00,,---,0.01,0.00,VWS V14.00,2013-04-30 07:40:00,
2013-04-30 03:41:00,65.6,62.9,29.97,East,87,0.0,0.0,91,0.00,,---,0.01,0.00,VWS V14.00,2013-04-30 07:41:00,
2013-04-30 03:42:00,65.6,63.2,29.97,East,87,0.0,0.0,92,0.00,,---,0.01,0.00,VWS V14.00,2013-04-30 07:42:00,
2013-04-30 03:43:00,65.6,63.2,29.97,East,87,0.0,0.0,92,0.00,,---,0.01,0.00,VWS V14.00,2013-04-30 07:43:00,
2013-04-30 03:44:00,65.6,63.2,29.97,East,87,0.0,0.0,92,0.00,,---,0.01,0.00,VWS V14.00,2013-04-30 07:44:00,
2013-04-30 03:45:00,65.6,63.2,29.97,East,87,0.0,0.0,92,0.00,,---,0.01,0.00,VWS V14.00,2013-04-30 07:45:00,
2013-04-30 03:46:00,65.7,63.3,29.97,East,87,0.0,0.0,92,0.00,,---,0.01,0.00,VWS V14.00,2013-04-30 07:46:00,
2013-04-30 03:47:00,65.7,63.3,29.97,East,87,0.0,0.0,92,0.00,,---,0.01,0.00,VWS V14.00,2013-04-30 07:47:00,
2013-04-30 03:48:00,65.7,63.3,29.97,East,87,2.0,2.0,92,0.00,,---,0.01,0.00,VWS V14.00,2013-04-30 07:48:00,
2013-04-30 03:49:00,65.6,63.2,29.97,East,87,2.0,3.0,92,0.00,,---,0.01,0.00,VWS V14.00,2013-04-30 07:49:00,
2013-04-30 03:50:00,65.6,63.2,29.97,East,87,2.0,3.0,92,0.00,,---,0.01,0.00,VWS V14.00,2013-04-30 07:50:00,
2013-04-30 03:51:00,65.6,62.9,29.97,East,87,2.0,3.0,91,0.00,,---,0.01,0.00,VWS V14.00,2013-04-30 07:51:00,
2013-04-30 03:52:00,65.6,62.9,29.97,East,87,2.0,3.0,91,0.00,,---,0.01,0.00,VWS V14.00,2013-04-30 07:52:00,
2013-04-30 03:53:00,65.5,62.8,29.97,East,87,2.0,3.0,91,0.00,,---,0.01,0.00,VWS V14.00,2013-04-30 07:53:00,
2013-04-30 03:54:00,65.5,62.8,29.97,East,87,2.0,3.0,91,0.00,,---,0.01,0.00,VWS V14.00,2013-04-30 07:54:00,
2013-04-30 03:55:00,65.6,62.9,29.97,East,87,2.0,3.0,91,0.00,,---,0.01,0.00,VWS V14.00,2013-04-30 07:55:00,
2013-04-30 03:56:00,65.5,62.8,29.97,East,87,0.0,3.0,91,0.00,,---,0.01,0.00,VWS V14.00,2013-04-30 07:56:00,
2013-04-30 03:57:00,65.5,62.8,29.97,East,87,1.0,3.0,91,0.00,,---,0.01,0.00,VWS V14.00,2013-04-30 07:57:00,
2013-04-30 03:58:00,65.5,62.8,29.97,East,87,0.0,3.0,91,0.00,,---,0.01,0.00,VWS V14.00,2013-04-30 07:58:00,
2013-04-30 03:59:00,65.5,62.8,29.97,East,87,0.0,3.0,91,0.00,,---,0.01,0.00,VWS V14.00,2013-04-30 07:59:00,
2013-04-30 04:00:00,65.5,62.8,29.97,East,87,1.0,3.0,91,0.00,,---,0.01,0.00,VWS V14.00,2013-04-30 08:00:00,
2013-04-30 04:01:00,65.5,62.8,29.97,East,87,2.0,2.0,91,0.00,,---,0.01,0.00,VWS V14.00,2013-04-30 08:01:00,
2013-04-30 04:02:00,65.4,62.7,29.97,East,87,1.0,3.0,91,0.00,,---,0.01,0.00,VWS V14.00,2013-04-30 08:02:00,
2013-04-30 04:03:00,65.4,62.7,29.97,East,87,1.0,3.0,91,0.00,,---,0.01,0.00,VWS V14.00,2013-04-30 08:03:00,
2013-04-30 04:04:00,65.4,62.7,29.97,East,87,1.0,3.0,91,0.00,,---,0.01,0.00,VWS V14.00,2013-04-30 08:04:00,
2013-04-30 04:05:00,65.4,62.7,29.97,East,87,2.0,3.0,91,0.00,,---,0.01,0.00,VWS V14.00,2013-04-30 08:05:00,
2013-04-30 04:06:00,65.3,62.6,29.97,East,87,2.0,3.0,91,0.00,,---,0.01,0.00,VWS V14.00,2013-04-30 08:06:00,
2013-04-30 04:07:00,65.3,62.6,29.97,East,87,2.0,3.0,91,0.00,,---,0.01,0.00,VWS V14.00,2013-04-30 08:07:00,
2013-04-30 04:08:00,65.3,62.6,29.97,East,87,1.0,3.0,91,0.00,,---,0.01,0.00,VWS V14.00,2013-04-30 08:08:00,
2013-04-30 04:09:00,65.3,62.6,29.97,East,87,2.0,3.0,91,0.00,,---,0.02,0.00,VWS V14.00,2013-04-30 08:09:00,
2013-04-30 04:10:00,65.2,62.5,29.97,East,87,2.0,3.0,91,0.00,,---,0.02,0.00,VWS V14.00,2013-04-30 08:10:00,
2013-04-30 04:11:00,65.2,62.5,29.97,East,87,1.0,3.0,91,0.00,,---,0.02,0.00,VWS V14.00,2013-04-30 08:11:00,
2013-04-30 04:12:00,65.2,62.5,29.97,East,87,3.0,3.0,91,0.00,,---,0.02,0.00,VWS V14.00,2013-04-30 08:12:00,
2013-04-30 04:13:00,65.2,62.8,29.97,East,87,2.0,3.0,92,0.00,,---,0.02,0.00,VWS V14.00,2013-04-30 08:13:00,
2013-04-30 04:14:00,65.2,62.8,29.97,East,87,3.0,3.0,92,0.00,,---,0.02,0.00,VWS V14.00,2013-04-30 08:14:00,
2013-04-30 04:15:00,65.1,62.7,29.97,East,87,2.0,3.0,92,0.00,,---,0.02,0.00,VWS V14.00,2013-04-30 08:15:00,
2013-04-30 04:16:00,65.1,62.7,29.97,East,87,0.0,3.0,92,0.00,,---,0.02,0.00,VWS V14.00,2013-04-30 08:16:00,
2013-04-30 04:17:00,65.1,62.7,29.97,East,87,1.0,3.0,92,0.00,,---,0.02,0.00,VWS V14.00,2013-04-30 08:17:00,
2013-04-30 04:18:00,65.1,62.7,29.97,East,87,2.0,3.0,92,0.00,,---,0.02,0.00,VWS V14.00,2013-04-30 08:18:00,
2013-04-30 04:19:00,65.1,62.7,29.97,East,87,2.0,3.0,92,0.00,,---,0.02,0.00,VWS V14.00,2013-04-30 08:19:00,
2013-04-30 04:20:00,65.1,62.7,29.97,East,87,2.0,3.0,92,0.00,,---,0.02,0.00,VWS V14.00,2013-04-30 08:20:00,
2013-04-30 04:21:00,65.0,62.6,29.97,East,87,2.0,3.0,92,0.00,,---,0.02,0.00,VWS V14.00,2013-04-30 08:21:00,
2013-04-30 04:22:00,65.0,62.6,29.97,East,87,1.0,3.0,92,0.00,,---,0.02,0.00,VWS V14.00,2013-04-30 08:22:00,
2013-04-30 04:23:00,65.0,62.6,29.97,East,87,2.0,3.0,92,0.00,,---,0.02,0.00,VWS V14.00,2013-04-30 08:23:00,
2013-04-30 04:24:00,65.0,62.6,29.97,East,87,1.0,3.0,92,0.00,,---,0.02,0.00,VWS V14.00,2013-04-30 08:24:00,
2013-04-30 04:25:00,64.9,62.5,29.97,East,87,2.0,3.0,92,0.00,,---,0.02,0.00,VWS V14.00,2013-04-30 08:25:00,
2013-04-30 04:26:00,64.9,62.5,29.97,East,87,1.0,3.0,92,0.00,,---,0.02,0.00,VWS V14.00,2013-04-30 08:26:00,
2013-04-30 04:27:00,64.9,62.5,29.97,East,87,2.0,3.0,92,0.00,,---,0.02,0.00,VWS V14.00,2013-04-30 08:27:00,
2013-04-30 04:28:00,64.8,62.1,29.97,East,87,1.0,3.0,91,0.00,,---,0.02,0.00,VWS V14.00,2013-04-30 08:28:00,
2013-04-30 04:29:00,64.8,62.1,29.97,East,87,2.0,3.0,91,0.00,,---,0.02,0.00,VWS V14.00,2013-04-30 08:29:00,
2013-04-30 04:30:00,64.8,62.1,29.97,East,87,0.0,3.0,91,0.00,,---,0.02,0.00,VWS V14.00,2013-04-30 08:30:00,
2013-04-30 04:31:00,64.8,62.1,29.97,East,87,1.0,2.0,91,0.00,,---,0.02,0.00,VWS V14.00,2013-04-30 08:31:00,
2013-04-30 04:32:00,64.8,62.1,29.97,East,87,1.0,2.0,91,0.00,,---,0.02,0.00,VWS V14.00,2013-04-30 08:32:00,
2013-04-30 04:33:00,64.8,62.1,29.97,East,87,0.0,2.0,91,0.00,,---,0.02,0.00,VWS V14.00,2013-04-30 08:33:00,
2013-04-30 04:34:00,64.8,62.1,29.97,East,87,0.0,2.0,91,0.00,,---,0.02,0.00,VWS V14.00,2013-04-30 08:34:00,
2013-04-30 04:35:00,64.8,62.1,29.97,East,87,0.0,2.0,91,0.00,,---,0.02,0.00,VWS V14.00,2013-04-30 08:35:00,
2013-04-30 04:36:00,64.7,62.0,29.97,East,87,0.0,2.0,91,0.00,,---,0.02,0.00,VWS V14.00,2013-04-30 08:36:00,
2013-04-30 04:37:00,64.7,62.0,29.97,East,87,0.0,2.0,91,0.00,,---,0.02,0.00,VWS V14.00,2013-04-30 08:37:00,
2013-04-30 04:38:00,64.7,62.0,29.97,East,87,0.0,2.0,91,0.00,,---,0.02,0.00,VWS V14.00,2013-04-30 08:38:00,
2013-04-30 04:39:00,64.7,62.0,29.97,East,87,0.0,2.0,91,0.00,,---,0.02,0.00,VWS V14.00,2013-04-30 08:39:00,
2013-04-30 04:40:00,64.6,61.9,29.97,East,87,0.0,2.0,91,0.00,,---,0.02,0.00,VWS V14.00,2013-04-30 08:40:00,
2013-04-30 04:41:00,64.6,61.9,29.97,East,87,0.0,2.0,91,0.00,,---,0.02,0.00,VWS V14.00,2013-04-30 08:41:00,
2013-04-30 04:42:00,64.6,61.9,29.97,East,87,0.0,2.0,91,0.00,,---,0.02,0.00,VWS V14.00,2013-04-30 08:42:00,
2013-04-30 04:43:00,64.6,62.2,29.96,East,87,0.0,2.0,92,0.00,,---,0.02,0.00,VWS V14.00,2013-04-30 08:43:00,
2013-04-30 04:44:00,64.6,62.2,29.96,East,87,0.0,2.0,92,0.00,,---,0.02,0.00,VWS V14.00,2013-04-30 08:44:00,
2013-04-30 04:45:00,64.6,62.2,29.96,East,87,2.0,2.0,92,0.00,,---,0.02,0.00,VWS V14.00,2013-04-30 08:45:00,
2013-04-30 04:46:00,64.6,62.2,29.97,East,87,1.0,3.0,92,0.00,,---,0.02,0.00,VWS V14.00,2013-04-30 08:46:00,
2013-04-30 04:47:00,64.6,62.2,29.96,East,87,2.0,3.0,92,0.00,,---,0.02,0.00,VWS V14.00,2013-04-30 08:47:00,
2013-04-30 04:48:00,64.6,62.2,29.97,East,87,2.0,3.0,92,0.00,,---,0.02,0.00,VWS V14.00,2013-04-30 08:48:00,
2013-04-30 04:49:00,64.6,62.2,29.97,East,87,1.0,3.0,92,0.00,,---,0.02,0.00,VWS V14.00,2013-04-30 08:49:00,
2013-04-30 04:50:00,64.6,62.2,29.97,East,87,1.0,3.0,92,0.00,,---,0.02,0.00,VWS V14.00,2013-04-30 08:50:00,
2013-04-30 04:51:00,64.6,62.2,29.97,East,87,1.0,3.0,92,0.00,,---,0.02,0.00,VWS V14.00,2013-04-30 08:51:00,
2013-04-30 04:52:00,64.6,62.2,29.97,East,87,1.0,3.0,92,0.00,,---,0.02,0.00,VWS V14.00,2013-04-30 08:52:00,
2013-04-30 04:53:00,64.6,62.2,29.97,East,87,0.0,3.0,92,0.00,,---,0.02,0.00,VWS V14.00,2013-04-30 08:53:00,
2013-04-30 04:54:00,64.7,62.3,29.96,East,87,1.0,3.0,92,0.00,,---,0.02,0.00,VWS V14.00,2013-04-30 08:54:00,
2013-04-30 04:55:00,64.6,62.2,29.97,East,87,0.0,3.0,92,0.00,,---,0.02,0.00,VWS V14.00,2013-04-30 08:55:00,
2013-04-30 04:56:00,64.7,62.3,29.97,East,87,1.0,3.0,92,0.00,,---,0.02,0.00,VWS V14.00,2013-04-30 08:56:00,
2013-04-30 04:57:00,64.7,62.3,29.97,East,87,0.0,3.0,92,0.00,,---,0.02,0.00,VWS V14.00,2013-04-30 08:57:00,
2013-04-30 04:58:00,64.7,62.3,29.97,East,87,2.0,3.0,92,0.00,,---,0.02,0.00,VWS V14.00,2013-04-30 08:58:00,
2013-04-30 04:59:00,64.7,62.3,29.97,East,87,2.0,3.0,92,0.00,,---,0.02,0.00,VWS V14.00,2013-04-30 08:59:00,
2013-04-30 05:00:00,64.7,62.3,29.97,East,87,2.0,3.0,92,0.00,,---,0.02,0.00,VWS V14.00,2013-04-30 09:00:00,
2013-04-30 05:01:00,64.6,62.2,29.96,East,87,2.0,3.0,92,0.00,,---,0.02,0.00,VWS V14.00,2013-04-30 09:01:00,
2013-04-30 05:02:00,64.6,62.2,29.96,East,87,0.0,3.0,92,0.00,,---,0.02,0.00,VWS V14.00,2013-04-30 09:02:00,
2013-04-30 05:03:00,64.5,62.1,29.96,East,87,1.0,3.0,92,0.00,,---,0.02,0.00,VWS V14.00,2013-04-30 09:03:00,
2013-04-30 05:04:00,64.5,62.1,29.96,East,87,0.0,3.0,92,0.00,,---,0.02,0.00,VWS V14.00,2013-04-30 09:04:00,
2013-04-30 05:05:00,64.5,62.1,29.96,East,87,0.0,3.0,92,0.00,,---,0.02,0.00,VWS V14.00,2013-04-30 09:05:00,
2013-04-30 05:06:00,64.5,62.1,29.96,East,87,0.0,3.0,92,0.00,,---,0.02,0.00,VWS V14.00,2013-04-30 09:06:00,
2013-04-30 05:07:00,64.5,62.1,29.96,East,87,0.0,3.0,92,0.00,,---,0.02,0.00,VWS V14.00,2013-04-30 09:07:00,
2013-04-30 05:08:00,64.5,62.1,29.96,East,87,0.0,3.0,92,0.00,,---,0.02,0.00,VWS V14.00,2013-04-30 09:08:00,
2013-04-30 05:09:00,64.5,62.1,29.96,East,87,0.0,3.0,92,0.00,,---,0.02,0.00,VWS V14.00,2013-04-30 09:09:00,
2013-04-30 05:10:00,64.5,62.1,29.96,East,87,0.0,3.0,92,0.00,,---,0.02,0.00,VWS V14.00,2013-04-30 09:10:00,
2013-04-30 05:11:00,64.5,62.1,29.96,East,87,0.0,3.0,92,0.00,,---,0.02,0.00,VWS V14.00,2013-04-30 09:11:00,
2013-04-30 05:12:00,64.5,62.1,29.96,East,87,0.0,3.0,92,0.00,,---,0.02,0.00,VWS V14.00,2013-04-30 09:12:00,
2013-04-30 05:13:00,64.5,62.1,29.96,East,87,0.0,3.0,92,0.00,,---,0.02,0.00,VWS V14.00,2013-04-30 09:13:00,
2013-04-30 05:14:00,64.5,62.1,29.96,East,87,0.0,3.0,92,0.00,,---,0.02,0.00,VWS V14.00,2013-04-30 09:14:00,
2013-04-30 05:15:00,64.5,62.1,29.96,East,87,0.0,3.0,92,0.00,,---,0.02,0.00,VWS V14.00,2013-04-30 09:15:00,
2013-04-30 05:16:00,64.5,62.1,29.96,East,87,0.0,3.0,92,0.00,,---,0.02,0.00,VWS V14.00,2013-04-30 09:16:00,
2013-04-30 05:17:00,64.5,62.1,29.96,East,87,3.0,3.0,92,0.00,,---,0.02,0.00,VWS V14.00,2013-04-30 09:17:00,
2013-04-30 05:18:00,64.5,62.1,29.96,NNE,24,2.0,4.0,92,0.00,,---,0.02,0.00,VWS V14.00,2013-04-30 09:18:00,
2013-04-30 05:19:00,64.5,62.1,29.96,NNE,24,2.0,4.0,92,0.00,,---,0.02,0.00,VWS V14.00,2013-04-30 09:19:00,
2013-04-30 05:20:00,64.5,62.1,29.96,NNE,24,2.0,4.0,92,0.00,,---,0.02,0.00,VWS V14.00,2013-04-30 09:20:00,
2013-04-30 05:21:00,64.5,62.1,29.96,NNE,24,3.0,4.0,92,0.00,,---,0.02,0.00,VWS V14.00,2013-04-30 09:21:00,
2013-04-30 05:22:00,64.5,62.1,29.96,NNE,24,2.0,4.0,92,0.00,,---,0.02,0.00,VWS V14.00,2013-04-30 09:22:00,
2013-04-30 05:23:00,64.5,62.1,29.96,NNE,24,0.0,4.0,92,0.00,,---,0.02,0.00,VWS V14.00,2013-04-30 09:23:00,
2013-04-30 05:24:00,64.5,62.1,29.96,NNE,24,1.0,4.0,92,0.00,,---,0.02,0.00,VWS V14.00,2013-04-30 09:24:00,
2013-04-30 05:25:00,64.5,62.1,29.96,NNE,24,1.0,4.0,92,0.00,,---,0.02,0.00,VWS V14.00,2013-04-30 09:25:00,
2013-04-30 05:26:00,64.5,62.1,29.96,NNE,24,2.0,4.0,92,0.00,,---,0.02,0.00,VWS V14.00,2013-04-30 09:26:00,
2013-04-30 05:27:00,64.5,62.1,29.95,NNE,24,3.0,4.0,92,0.00,,---,0.02,0.00,VWS V14.00,2013-04-30 09:27:00,
2013-04-30 05:28:00,64.4,62.0,29.95,NNE,24,2.0,4.0,92,0.00,,---,0.02,0.00,VWS V14.00,2013-04-30 09:28:00,
2013-04-30 05:29:00,64.4,62.0,29.95,NNE,24,2.0,4.0,92,0.00,,---,0.02,0.00,VWS V14.00,2013-04-30 09:29:00,
2013-04-30 05:30:00,64.4,62.0,29.96,NNE,24,3.0,4.0,92,0.00,,---,0.02,0.00,VWS V14.00,2013-04-30 09:30:00,
2013-04-30 05:31:00,64.4,62.0,29.96,NNE,24,2.0,3.0,92,0.00,,---,0.02,0.00,VWS V14.00,2013-04-30 09:31:00,
2013-04-30 05:32:00,64.4,62.0,29.96,NNE,24,3.0,3.0,92,0.00,,---,0.02,0.00,VWS V14.00,2013-04-30 09:32:00,
2013-04-30 05:33:00,64.4,62.0,29.96,NNE,24,3.0,3.0,92,0.00,,---,0.03,0.00,VWS V14.00,2013-04-30 09:33:00,
2013-04-30 05:34:00,64.4,62.0,29.96,NNE,24,3.0,4.0,92,0.00,,---,0.03,0.00,VWS V14.00,2013-04-30 09:34:00,
2013-04-30 05:35:00,64.5,62.1,29.96,NNE,24,2.0,4.0,92,0.00,,---,0.03,0.00,VWS V14.00,2013-04-30 09:35:00,
2013-04-30 05:36:00,64.5,62.1,29.95,NNE,24,2.0,4.0,92,0.00,,---,0.03,0.00,VWS V14.00,2013-04-30 09:36:00,
2013-04-30 05:37:00,64.5,62.1,29.96,NNE,22,3.0,5.0,92,0.00,,---,0.03,0.00,VWS V14.00,2013-04-30 09:37:00,
2013-04-30 05:38:00,64.5,62.1,29.95,NNE,22,3.0,5.0,92,0.00,,---,0.03,0.00,VWS V14.00,2013-04-30 09:38:00,
2013-04-30 05:39:00,64.5,62.1,29.95,NNE,22,3.0,5.0,92,0.00,,---,0.03,0.00,VWS V14.00,2013-04-30 09:39:00,
2013-04-30 05:40:00,64.5,62.1,29.96,NNE,22,3.0,5.0,92,0.00,,---,0.03,0.00,VWS V14.00,2013-04-30 09:40:00,
2013-04-30 05:41:00,64.6,62.2,29.96,NNE,22,3.0,5.0,92,0.00,,---,0.03,0.00,VWS V14.00,2013-04-30 09:41:00,
2013-04-30 05:42:00,64.6,62.2,29.96,NW,323,4.0,6.0,92,0.00,,---,0.03,0.00,VWS V14.00,2013-04-30 09:42:00,
2013-04-30 05:43:00,64.6,62.2,29.96,NW,320,3.0,6.0,92,0.00,,---,0.03,0.00,VWS V14.00,2013-04-30 09:43:00,
2013-04-30 05:44:00,64.6,62.2,29.96,NW,320,3.0,6.0,92,0.00,,---,0.03,0.00,VWS V14.00,2013-04-30 09:44:00,
2013-04-30 05:45:00,64.6,62.2,29.96,NW,320,5.0,6.0,92,0.00,,---,0.03,0.00,VWS V14.00,2013-04-30 09:45:00,
2013-04-30 05:46:00,64.5,62.1,29.96,NW,306,5.0,6.0,92,0.00,,---,0.03,0.00,VWS V14.00,2013-04-30 09:46:00,
2013-04-30 05:47:00,64.5,62.1,29.96,NW,310,3.0,6.0,92,0.00,,---,0.03,0.00,VWS V14.00,2013-04-30 09:47:00,
2013-04-30 05:48:00,64.5,62.1,29.96,NW,320,3.0,6.0,92,0.00,,---,0.03,0.00,VWS V14.00,2013-04-30 09:48:00,
2013-04-30 05:49:00,64.5,62.1,29.96,NW,320,3.0,6.0,92,0.00,,---,0.03,0.00,VWS V14.00,2013-04-30 09:49:00,
2013-04-30 05:50:00,64.5,62.1,29.96,NW,320,3.0,6.0,92,0.00,,---,0.03,0.00,VWS V14.00,2013-04-30 09:50:00,
2013-04-30 05:51:00,64.5,62.1,29.96,NW,320,2.0,6.0,92,0.00,,---,0.03,0.00,VWS V14.00,2013-04-30 09:51:00,
2013-04-30 05:52:00,64.6,62.2,29.96,NW,320,2.0,6.0,92,0.00,,---,0.03,0.00,VWS V14.00,2013-04-30 09:52:00,
2013-04-30 05:53:00,64.6,62.2,29.96,NW,320,2.0,6.0,92,0.00,,---,0.03,0.00,VWS V14.00,2013-04-30 09:53:00,
2013-04-30 05:54:00,64.6,62.2,29.96,NW,320,1.0,6.0,92,0.00,,---,0.03,0.00,VWS V14.00,2013-04-30 09:54:00,
2013-04-30 05:55:00,64.7,62.3,29.96,NW,320,3.0,6.0,92,0.00,,---,0.03,0.00,VWS V14.00,2013-04-30 09:55:00,
2013-04-30 05:56:00,64.7,62.3,29.96,NW,324,4.0,6.0,92,0.00,,---,0.03,0.00,VWS V14.00,2013-04-30 09:56:00,
2013-04-30 05:57:00,64.7,62.3,29.96,NW,324,3.0,6.0,92,0.00,,---,0.03,0.00,VWS V14.00,2013-04-30 09:57:00,
2013-04-30 05:58:00,64.7,62.3,29.96,NW,324,3.0,6.0,92,0.00,,---,0.03,0.00,VWS V14.00,2013-04-30 09:58:00,
2013-04-30 05:59:00,64.7,62.3,29.96,NW,324,2.0,6.0,92,0.00,,---,0.03,0.00,VWS V14.00,2013-04-30 09:59:00,
2013-04-30 06:00:00,64.7,62.3,29.96,NW,324,4.0,6.0,92,0.00,,---,0.03,0.00,VWS V14.00,2013-04-30 10:00:00,
2013-04-30 06:01:00,64.7,62.3,29.96,NW,324,3.0,4.0,92,0.00,,---,0.03,0.00,VWS V14.00,2013-04-30 10:01:00,
2013-04-30 06:02:00,64.7,62.3,29.96,NW,324,2.0,4.0,92,0.00,,---,0.03,0.00,VWS V14.00,2013-04-30 10:02:00,
2013-04-30 06:03:00,64.7,62.3,29.96,NW,324,3.0,4.0,92,0.00,,---,0.03,0.00,VWS V14.00,2013-04-30 10:03:00,
2013-04-30 06:04:00,64.7,62.3,29.96,NW,324,2.0,4.0,92,0.00,,---,0.03,0.00,VWS V14.00,2013-04-30 10:04:00,
2013-04-30 06:05:00,64.7,62.3,29.96,NW,324,2.0,4.0,92,0.00,,---,0.03,0.00,VWS V14.00,2013-04-30 10:05:00,
2013-04-30 06:06:00,64.7,62.3,29.96,NW,324,1.0,4.0,92,0.00,,---,0.03,0.00,VWS V14.00,2013-04-30 10:06:00,
2013-04-30 06:07:00,64.7,62.3,29.96,NW,324,1.0,4.0,92,0.00,,---,0.03,0.00,VWS V14.00,2013-04-30 10:07:00,
2013-04-30 06:08:00,64.7,62.3,29.96,NW,324,1.0,4.0,92,0.00,,---,0.03,0.00,VWS V14.00,2013-04-30 10:08:00,
2013-04-30 06:09:00,64.7,62.3,29.96,NW,324,0.0,4.0,92,0.00,,---,0.03,0.00,VWS V14.00,2013-04-30 10:09:00,
2013-04-30 06:10:00,64.7,62.3,29.96,NW,324,0.0,4.0,92,0.00,,---,0.03,0.00,VWS V14.00,2013-04-30 10:10:00,
2013-04-30 06:11:00,64.7,62.3,29.96,NW,324,0.0,4.0,92,0.00,,---,0.03,0.00,VWS V14.00,2013-04-30 10:11:00,
2013-04-30 06:12:00,64.7,62.3,29.96,NW,324,0.0,4.0,92,0.00,,---,0.03,0.00,VWS V14.00,2013-04-30 10:12:00,
2013-04-30 06:13:00,64.7,62.3,29.96,NW,324,0.0,4.0,92,0.00,,---,0.03,0.00,VWS V14.00,2013-04-30 10:13:00,
2013-04-30 06:14:00,64.7,62.3,29.96,NW,324,4.0,4.0,92,0.00,,---,0.03,0.00,VWS V14.00,2013-04-30 10:14:00,
2013-04-30 06:15:00,64.8,62.4,29.96,NW,320,5.0,5.0,92,0.00,,---,0.03,0.00,VWS V14.00,2013-04-30 10:15:00,
2013-04-30 06:16:00,64.9,62.5,29.96,NW,310,4.0,6.0,92,0.00,,---,0.03,0.00,VWS V14.00,2013-04-30 10:16:00,
2013-04-30 06:17:00,64.9,62.5,29.97,NW,310,4.0,6.0,92,0.00,,---,0.03,0.00,VWS V14.00,2013-04-30 10:17:00,
2013-04-30 06:18:00,64.8,62.4,29.96,NW,310,3.0,6.0,92,0.00,,---,0.03,0.00,VWS V14.00,2013-04-30 10:18:00,
2013-04-30 06:19:00,64.8,62.4,29.96,NW,310,2.0,6.0,92,0.00,,---,0.03,0.00,VWS V14.00,2013-04-30 10:19:00,
2013-04-30 06:20:00,64.7,62.3,29.96,NW,310,2.0,6.0,92,0.00,,---,0.03,0.00,VWS V14.00,2013-04-30 10:20:00,
2013-04-30 06:21:00,64.7,62.3,29.96,NW,310,1.0,6.0,92,0.00,,---,0.03,0.00,VWS V14.00,2013-04-30 10:21:00,
2013-04-30 06:22:00,64.7,62.3,29.96,NW,310,0.0,6.0,92,0.00,,---,0.03,0.00,VWS V14.00,2013-04-30 10:22:00,
2013-04-30 06:23:00,64.7,62.3,29.96,NW,310,3.0,6.0,92,0.00,,---,0.03,0.00,VWS V14.00,2013-04-30 10:23:00,
2013-04-30 06:24:00,64.6,62.2,29.96,NW,310,3.0,6.0,92,0.00,,---,0.03,0.00,VWS V14.00,2013-04-30 10:24:00,
2013-04-30 06:25:00,64.6,62.2,29.96,NW,310,4.0,6.0,92,0.00,,---,0.03,0.00,VWS V14.00,2013-04-30 10:25:00,
2013-04-30 06:26:00,64.6,62.2,29.96,NW,310,3.0,6.0,92,0.00,,---,0.03,0.00,VWS V14.00,2013-04-30 10:26:00,
2013-04-30 06:27:00,64.6,62.2,29.96,NW,310,0.0,6.0,92,0.00,,---,0.03,0.00,VWS V14.00,2013-04-30 10:27:00,
2013-04-30 06:28:00,64.6,62.2,29.96,NW,310,2.0,6.0,92,0.00,,---,0.03,0.00,VWS V14.00,2013-04-30 10:28:00,
2013-04-30 06:29:00,64.5,62.1,29.96,NW,310,3.0,6.0,92,0.00,,---,0.03,0.00,VWS V14.00,2013-04-30 10:29:00,
2013-04-30 06:30:00,64.5,62.1,29.96,NW,310,1.0,6.0,92,0.00,,---,0.03,0.00,VWS V14.00,2013-04-30 10:30:00,
2013-04-30 06:31:00,64.5,62.1,29.96,NW,310,0.0,1.0,92,0.00,,---,0.04,0.00,VWS V14.00,2013-04-30 10:31:00,
2013-04-30 06:32:00,64.5,62.1,29.96,SE,141,0.0,1.0,92,0.00,,---,0.04,0.00,VWS V14.00,2013-04-30 10:32:00,
2013-04-30 06:33:00,64.5,62.1,29.97,SE,141,0.0,1.0,92,0.00,,---,0.04,0.00,VWS V14.00,2013-04-30 10:33:00,
2013-04-30 06:34:00,64.5,62.1,29.97,SE,141,0.0,1.0,92,0.00,,---,0.04,0.00,VWS V14.00,2013-04-30 10:34:00,
2013-04-30 06:35:00,64.5,62.1,29.97,SE,141,0.0,1.0,92,0.00,,---,0.04,0.00,VWS V14.00,2013-04-30 10:35:00,
2013-04-30 06:36:00,64.5,62.1,29.97,SE,141,0.0,1.0,92,0.00,,---,0.04,0.00,VWS V14.00,2013-04-30 10:36:00,
2013-04-30 06:37:00,64.6,62.2,29.97,SE,141,0.0,1.0,92,0.00,,---,0.04,0.00,VWS V14.00,2013-04-30 10:37:00,
2013-04-30 06:38:00,64.5,62.1,29.97,SE,141,0.0,1.0,92,0.00,,---,0.04,0.00,VWS V14.00,2013-04-30 10:38:00,
2013-04-30 06:39:00,64.5,62.1,29.97,SE,141,0.0,1.0,92,0.00,,---,0.04,0.00,VWS V14.00,2013-04-30 10:39:00,
2013-04-30 06:40:00,64.5,62.1,29.97,SE,141,0.0,1.0,92,0.00,,---,0.04,0.00,VWS V14.00,2013-04-30 10:40:00,
2013-04-30 06:41:00,64.5,62.1,29.97,SE,141,0.0,1.0,92,0.00,,---,0.04,0.00,VWS V14.00,2013-04-30 10:41:00,
2013-04-30 06:42:00,64.5,62.1,29.97,SE,141,0.0,1.0,92,0.00,,---,0.04,0.00,VWS V14.00,2013-04-30 10:42:00,
2013-04-30 06:43:00,64.5,62.1,29.97,SE,141,0.0,1.0,92,0.00,,---,0.04,5.00,VWS V14.00,2013-04-30 10:43:00,
2013-04-30 06:44:00,64.5,62.1,29.97,South,170,2.0,2.0,92,0.00,,---,0.04,5.00,VWS V14.00,2013-04-30 10:44:00,
2013-04-30 06:45:00,64.5,62.1,29.97,South,170,2.0,2.0,92,0.00,,---,0.04,5.00,VWS V14.00,2013-04-30 10:45:00,
2013-04-30 06:46:00,64.5,62.1,29.97,South,170,2.0,2.0,92,0.00,,---,0.04,5.00,VWS V14.00,2013-04-30 10:46:00,
2013-04-30 06:47:00,64.5,62.1,29.97,South,170,2.0,2.0,92,0.00,,---,0.04,5.00,VWS V14.00,2013-04-30 10:47:00,
2013-04-30 06:48:00,64.5,62.1,29.97,South,170,2.0,3.0,92,0.00,,---,0.04,7.00,VWS V14.00,2013-04-30 10:48:00,
2013-04-30 06:49:00,64.4,62.0,29.97,South,170,0.0,3.0,92,0.00,,---,0.04,7.00,VWS V14.00,2013-04-30 10:49:00,
2013-04-30 06:50:00,64.5,62.1,29.98,South,170,0.0,3.0,92,0.00,,---,0.04,7.00,VWS V14.00,2013-04-30 10:50:00,
2013-04-30 06:51:00,64.5,62.1,29.98,South,170,0.0,3.0,92,0.00,,---,0.04,7.00,VWS V14.00,2013-04-30 10:51:00,
2013-04-30 06:52:00,64.5,62.1,29.98,South,170,2.0,3.0,92,0.00,,---,0.04,7.00,VWS V14.00,2013-04-30 10:52:00,
2013-04-30 06:53:00,64.5,62.1,29.98,South,170,1.0,3.0,92,0.00,,---,0.04,7.00,VWS V14.00,2013-04-30 10:53:00,
2013-04-30 06:54:00,64.5,62.1,29.98,South,170,1.0,3.0,92,0.00,,---,0.04,7.00,VWS V14.00,2013-04-30 10:54:00,
2013-04-30 06:55:00,64.5,62.4,29.98,South,170,2.0,3.0,93,0.00,,---,0.04,9.00,VWS V14.00,2013-04-30 10:55:00,
2013-04-30 06:56:00,64.5,62.1,29.98,South,170,1.0,3.0,92,0.00,,---,0.04,9.00,VWS V14.00,2013-04-30 10:56:00,
2013-04-30 06:57:00,64.5,62.4,29.98,South,170,2.0,3.0,93,0.00,,---,0.04,11.00,VWS V14.00,2013-04-30 10:57:00,
2013-04-30 06:58:00,64.5,62.4,29.98,South,170,3.0,3.0,93,0.00,,---,0.04,11.00,VWS V14.00,2013-04-30 10:58:00,
2013-04-30 06:59:00,64.5,62.4,29.98,South,175,3.0,3.0,93,0.00,,---,0.04,12.00,VWS V14.00,2013-04-30 10:59:00,
2013-04-30 07:00:00,64.4,62.3,29.98,SSW,199,4.0,4.0,93,0.00,,---,0.04,14.00,VWS V14.00,2013-04-30 11:00:00,
2013-04-30 07:01:00,64.4,62.3,29.98,SSW,199,2.0,4.0,93,0.00,,---,0.04,16.00,VWS V14.00,2013-04-30 11:01:00,
2013-04-30 07:02:00,64.4,62.3,29.98,SSW,199,2.0,4.0,93,0.00,,---,0.04,16.00,VWS V14.00,2013-04-30 11:02:00,
2013-04-30 07:03:00,64.3,61.9,29.98,SSW,199,1.0,4.0,92,0.00,,---,0.04,18.00,VWS V14.00,2013-04-30 11:03:00,
2013-04-30 07:04:00,64.3,61.9,29.98,SSW,199,0.0,4.0,92,0.00,,---,0.04,18.00,VWS V14.00,2013-04-30 11:04:00,
2013-04-30 07:05:00,64.3,61.9,29.98,SSW,199,0.0,4.0,92,0.00,,---,0.04,19.00,VWS V14.00,2013-04-30 11:05:00,
2013-04-30 07:06:00,64.3,61.9,29.98,SSW,199,1.0,4.0,92,0.00,,---,0.04,19.00,VWS V14.00,2013-04-30 11:06:00,
2013-04-30 07:07:00,64.3,61.9,29.98,SSW,199,1.0,4.0,92,0.00,,---,0.04,19.00,VWS V14.00,2013-04-30 11:07:00,
2013-04-30 07:08:00,64.4,62.0,29.99,SSW,199,2.0,4.0,92,0.00,,---,0.04,19.00,VWS V14.00,2013-04-30 11:08:00,
2013-04-30 07:09:00,64.4,62.3,29.99,SSW,199,2.0,4.0,93,0.00,,---,0.04,19.00,VWS V14.00,2013-04-30 11:09:00,
2013-04-30 07:10:00,64.4,62.0,29.99,SSW,199,2.0,4.0,92,0.00,,---,0.04,19.00,VWS V14.00,2013-04-30 11:10:00,
2013-04-30 07:11:00,64.3,61.9,29.99,SSW,199,3.0,4.0,92,0.00,,---,0.04,19.00,VWS V14.00,2013-04-30 11:11:00,
2013-04-30 07:12:00,64.3,61.9,29.99,SW,236,2.0,4.0,92,0.00,,---,0.04,19.00,VWS V14.00,2013-04-30 11:12:00,
2013-04-30 07:13:00,64.3,61.9,29.99,NNW,328,2.0,4.0,92,0.00,,---,0.04,19.00,VWS V14.00,2013-04-30 11:13:00,
2013-04-30 07:14:00,64.3,61.9,29.99,NNW,328,0.0,4.0,92,0.00,,---,0.04,21.00,VWS V14.00,2013-04-30 11:14:00,
2013-04-30 07:15:00,64.3,61.9,29.99,NNW,328,0.0,4.0,92,0.00,,---,0.04,19.00,VWS V14.00,2013-04-30 11:15:00,
2013-04-30 07:16:00,64.3,61.9,29.99,NNW,328,3.0,4.0,92,0.00,,---,0.04,21.00,VWS V14.00,2013-04-30 11:16:00,
2013-04-30 07:17:00,64.3,61.9,29.99,NNW,328,0.0,4.0,92,0.00,,---,0.04,21.00,VWS V14.00,2013-04-30 11:17:00,
2013-04-30 07:18:00,64.3,61.9,29.99,NNW,328,0.0,4.0,92,0.00,,---,0.04,23.00,VWS V14.00,2013-04-30 11:18:00,
2013-04-30 07:19:00,64.3,61.9,29.99,NNW,328,0.0,4.0,92,0.00,,---,0.04,23.00,VWS V14.00,2013-04-30 11:19:00,
2013-04-30 07:20:00,64.3,61.9,29.99,NNW,328,0.0,4.0,92,0.00,,---,0.04,23.00,VWS V14.00,2013-04-30 11:20:00,
2013-04-30 07:21:00,64.3,61.9,29.99,WNW,298,0.0,4.0,92,0.00,,---,0.04,23.00,VWS V14.00,2013-04-30 11:21:00,
2013-04-30 07:22:00,64.3,61.9,29.99,WNW,298,0.0,4.0,92,0.00,,---,0.04,26.00,VWS V14.00,2013-04-30 11:22:00,
2013-04-30 07:23:00,64.3,61.9,29.99,WNW,298,0.0,4.0,92,0.00,,---,0.04,28.00,VWS V14.00,2013-04-30 11:23:00,
2013-04-30 07:24:00,64.2,61.8,29.99,WNW,298,0.0,4.0,92,0.00,,---,0.04,28.00,VWS V14.00,2013-04-30 11:24:00,
2013-04-30 07:25:00,64.2,61.8,29.99,WNW,285,0.0,4.0,92,0.00,,---,0.04,30.00,VWS V14.00,2013-04-30 11:25:00,
2013-04-30 07:26:00,64.2,61.8,29.99,WNW,285,0.0,4.0,92,0.00,,---,0.04,32.00,VWS V14.00,2013-04-30 11:26:00,
2013-04-30 07:27:00,64.2,61.8,29.99,WNW,285,0.0,4.0,92,0.00,,---,0.04,33.00,VWS V14.00,2013-04-30 11:27:00,
2013-04-30 07:28:00,64.2,61.8,29.99,WNW,285,0.0,4.0,92,0.00,,---,0.04,35.00,VWS V14.00,2013-04-30 11:28:00,
2013-04-30 07:29:00,64.1,61.7,29.99,WNW,286,0.0,4.0,92,0.00,,---,0.04,42.00,VWS V14.00,2013-04-30 11:29:00,
2013-04-30 07:30:00,64.1,61.7,29.99,WNW,286,0.0,4.0,92,0.00,,---,0.04,42.00,VWS V14.00,2013-04-30 11:30:00,
2013-04-30 07:31:00,64.1,61.7,29.99,WNW,286,0.0,0.0,92,0.00,,---,0.04,44.00,VWS V14.00,2013-04-30 11:31:00,
2013-04-30 07:32:00,64.1,61.7,29.99,WNW,286,0.0,0.0,92,0.00,,---,0.04,47.00,VWS V14.00,2013-04-30 11:32:00,
2013-04-30 07:33:00,64.1,61.7,29.99,WNW,287,2.0,2.0,92,0.00,,---,0.04,47.00,VWS V14.00,2013-04-30 11:33:00,
2013-04-30 07:34:00,64.1,61.7,29.99,WNW,286,3.0,3.0,92,0.00,,---,0.04,47.00,VWS V14.00,2013-04-30 11:34:00,
2013-04-30 07:35:00,64.0,61.6,29.99,ENE,58,2.0,3.0,92,0.00,,---,0.04,49.00,VWS V14.00,2013-04-30 11:35:00,
2013-04-30 07:36:00,64.0,61.9,29.99,ENE,58,0.0,3.0,93,0.00,,---,0.04,51.00,VWS V14.00,2013-04-30 11:36:00,
2013-04-30 07:37:00,64.0,61.9,29.99,ENE,58,0.0,3.0,93,0.00,,---,0.04,56.00,VWS V14.00,2013-04-30 11:37:00,
2013-04-30 07:38:00,64.0,61.9,29.99,ENE,58,0.0,3.0,93,0.00,,---,0.04,60.00,VWS V14.00,2013-04-30 11:38:00,
2013-04-30 07:39:00,64.0,61.9,30.00,ENE,58,0.0,3.0,93,0.00,,---,0.04,63.00,VWS V14.00,2013-04-30 11:39:00,
2013-04-30 07:40:00,64.0,61.9,30.00,ENE,58,0.0,3.0,93,0.00,,---,0.04,69.00,VWS V14.00,2013-04-30 11:40:00,
2013-04-30 07:41:00,64.0,61.9,30.00,ENE,58,0.0,3.0,93,0.00,,---,0.04,67.00,VWS V14.00,2013-04-30 11:41:00,
2013-04-30 07:42:00,64.0,61.9,30.00,ENE,58,3.0,3.0,93,0.00,,---,0.04,65.00,VWS V14.00,2013-04-30 11:42:00,
2013-04-30 07:43:00,64.0,61.9,30.00,ENE,58,3.0,3.0,93,0.00,,---,0.04,60.00,VWS V14.00,2013-04-30 11:43:00,
2013-04-30 07:44:00,64.1,62.0,30.00,ENE,58,3.0,3.0,93,0.00,,---,0.04,56.00,VWS V14.00,2013-04-30 11:44:00,
2013-04-30 07:45:00,64.1,62.0,30.00,ENE,58,2.0,3.0,93,0.00,,---,0.04,47.00,VWS V14.00,2013-04-30 11:45:00,
2013-04-30 07:46:00,64.1,62.0,30.00,ENE,58,1.0,3.0,93,0.00,,---,0.04,42.00,VWS V14.00,2013-04-30 11:46:00,
2013-04-30 07:47:00,64.1,62.0,30.00,ENE,58,2.0,3.0,93,0.00,,---,0.04,42.00,VWS V14.00,2013-04-30 11:47:00,
2013-04-30 07:48:00,64.1,62.0,30.00,ENE,58,1.0,3.0,93,0.00,,---,0.04,46.00,VWS V14.00,2013-04-30 11:48:00,
2013-04-30 07:49:00,64.1,62.0,30.00,ENE,58,0.0,3.0,93,0.00,,---,0.04,46.00,VWS V14.00,2013-04-30 11:49:00,
2013-04-30 07:50:00,64.1,62.0,30.00,ENE,58,0.0,3.0,93,0.00,,---,0.04,47.00,VWS V14.00,2013-04-30 11:50:00,
2013-04-30 07:51:00,64.2,62.1,30.00,ENE,58,0.0,3.0,93,0.00,,---,0.04,49.00,VWS V14.00,2013-04-30 11:51:00,
2013-04-30 07:52:00,64.2,62.1,30.00,ENE,58,3.0,3.0,93,0.00,,---,0.04,58.00,VWS V14.00,2013-04-30 11:52:00,
2013-04-30 07:53:00,64.2,62.1,30.00,ENE,58,2.0,3.0,93,0.00,,---,0.04,65.00,VWS V14.00,2013-04-30 11:53:00,
2013-04-30 07:54:00,64.2,62.1,30.00,ENE,58,2.0,3.0,93,0.00,,---,0.05,74.00,VWS V14.00,2013-04-30 11:54:00,
2013-04-30 07:55:00,64.2,62.1,30.00,ENE,58,1.0,3.0,93,0.00,,---,0.05,83.00,VWS V14.00,2013-04-30 11:55:00,
2013-04-30 07:56:00,64.2,62.1,30.00,ENE,58,0.0,3.0,93,0.00,,---,0.05,95.00,VWS V14.00,2013-04-30 11:56:00,
2013-04-30 07:57:00,64.2,62.1,30.00,ENE,58,1.0,3.0,93,0.00,,---,0.05,107.00,VWS V14.00,2013-04-30 11:57:00,
2013-04-30 07:58:00,64.2,62.1,30.00,North,355,1.0,3.0,93,0.00,,---,0.05,113.00,VWS V14.00,2013-04-30 11:58:00,
2013-04-30 07:59:00,64.3,62.2,30.00,ENE,68,1.0,3.0,93,0.00,,---,0.05,120.00,VWS V14.00,2013-04-30 11:59:00,
2013-04-30 08:00:00,64.3,62.2,30.00,ENE,68,1.0,3.0,93,0.00,,---,0.05,142.00,VWS V14.00,2013-04-30 12:00:00,
2013-04-30 08:01:00,64.3,62.2,30.00,ENE,68,1.0,2.0,93,0.00,,---,0.05,141.00,VWS V14.00,2013-04-30 12:01:00,
2013-04-30 08:02:00,64.3,62.2,30.00,ENE,68,0.0,2.0,93,0.00,,---,0.05,146.00,VWS V14.00,2013-04-30 12:02:00,
2013-04-30 08:03:00,64.3,62.2,30.01,ENE,68,0.0,2.0,93,0.00,,---,0.05,163.00,VWS V14.00,2013-04-30 12:03:00,
2013-04-30 08:04:00,64.4,62.3,30.00,ENE,68,0.0,2.0,93,0.00,,---,0.05,141.00,VWS V14.00,2013-04-30 12:04:00,
2013-04-30 08:05:00,64.4,62.3,30.00,ENE,68,0.0,2.0,93,0.00,,---,0.05,134.00,VWS V14.00,2013-04-30 12:05:00,
2013-04-30 08:06:00,64.5,62.4,30.00,ENE,68,0.0,2.0,93,0.00,,---,0.05,128.00,VWS V14.00,2013-04-30 12:06:00,
2013-04-30 08:07:00,64.5,62.4,30.00,ENE,68,0.0,2.0,93,0.00,,---,0.05,127.00,VWS V14.00,2013-04-30 12:07:00,
2013-04-30 08:08:00,64.5,62.4,30.00,ENE,68,0.0,2.0,93,0.00,,---,0.05,125.00,VWS V14.00,2013-04-30 12:08:00,
2013-04-30 08:09:00,64.6,62.5,30.00,ENE,68,0.0,2.0,93,0.00,,---,0.05,116.00,VWS V14.00,2013-04-30 12:09:00,
2013-04-30 08:10:00,64.6,62.5,30.00,ENE,68,0.0,2.0,93,0.00,,---,0.05,91.00,VWS V14.00,2013-04-30 12:10:00,
2013-04-30 08:11:00,64.6,62.5,30.00,ENE,68,0.0,2.0,93,0.00,,---,0.05,81.00,VWS V14.00,2013-04-30 12:11:00,
2013-04-30 08:12:00,64.7,62.6,30.01,ENE,68,0.0,2.0,93,0.00,,---,0.05,76.00,VWS V14.00,2013-04-30 12:12:00,
2013-04-30 08:13:00,64.7,62.6,30.00,ENE,68,0.0,2.0,93,0.00,,---,0.05,70.00,VWS V14.00,2013-04-30 12:13:00,
2013-04-30 08:14:00,64.7,62.6,30.00,ENE,68,0.0,2.0,93,0.00,,---,0.05,70.00,VWS V14.00,2013-04-30 12:14:00,
2013-04-30 08:15:00,64.7,62.6,30.00,ENE,68,0.0,2.0,93,0.00,,---,0.05,70.00,VWS V14.00,2013-04-30 12:15:00,
2013-04-30 08:16:00,64.7,62.6,30.00,ENE,68,0.0,2.0,93,0.00,,---,0.05,74.00,VWS V14.00,2013-04-30 12:16:00,
2013-04-30 08:17:00,64.7,62.6,30.00,ENE,68,0.0,2.0,93,0.00,,---,0.05,72.00,VWS V14.00,2013-04-30 12:17:00,
2013-04-30 08:18:00,64.8,62.7,30.00,ENE,68,0.0,2.0,93,0.00,,---,0.05,77.00,VWS V14.00,2013-04-30 12:18:00,
2013-04-30 08:19:00,64.8,62.7,30.00,ENE,68,0.0,2.0,93,0.00,,---,0.05,81.00,VWS V14.00,2013-04-30 12:19:00,
2013-04-30 08:20:00,64.8,62.7,30.00,ENE,68,2.0,2.0,93,0.00,,---,0.05,84.00,VWS V14.00,2013-04-30 12:20:00,
2013-04-30 08:21:00,64.8,62.7,30.00,ENE,68,2.0,3.0,93,0.00,,---,0.05,100.00,VWS V14.00,2013-04-30 12:21:00,
2013-04-30 08:22:00,64.9,62.8,30.00,ENE,68,2.0,3.0,93,0.00,,---,0.05,104.00,VWS V14.00,2013-04-30 12:22:00,
2013-04-30 08:23:00,64.9,62.8,30.00,ENE,68,2.0,3.0,93,0.00,,---,0.05,105.00,VWS V14.00,2013-04-30 12:23:00,
2013-04-30 08:24:00,65.0,62.9,30.00,ENE,68,2.0,3.0,93,0.00,,---,0.05,125.00,VWS V14.00,2013-04-30 12:24:00,
2013-04-30 08:25:00,65.0,62.9,30.00,ENE,68,3.0,3.0,93,0.00,,---,0.05,127.00,VWS V14.00,2013-04-30 12:25:00,
2013-04-30 08:26:00,65.0,62.9,30.00,ENE,68,3.0,3.0,93,0.00,,---,0.05,130.00,VWS V14.00,2013-04-30 12:26:00,
2013-04-30 08:27:00,65.0,62.9,30.00,ENE,68,2.0,3.0,93,0.00,,---,0.05,130.00,VWS V14.00,2013-04-30 12:27:00,
2013-04-30 08:28:00,65.0,62.9,30.00,ENE,68,3.0,4.0,93,0.00,,---,0.05,120.00,VWS V14.00,2013-04-30 12:28:00,
2013-04-30 08:29:00,65.1,63.0,30.00,ENE,68,2.0,4.0,93,0.00,,---,0.05,116.00,VWS V14.00,2013-04-30 12:29:00,
2013-04-30 08:30:00,65.1,63.0,30.00,ENE,68,2.0,4.0,93,0.00,,---,0.05,121.00,VWS V14.00,2013-04-30 12:30:00,
2013-04-30 08:31:00,65.1,63.0,30.00,ENE,68,1.0,2.0,93,0.00,,---,0.05,128.00,VWS V14.00,2013-04-30 12:31:00,
2013-04-30 08:32:00,65.1,63.0,30.00,NE,45,3.0,4.0,93,0.00,,---,0.05,105.00,VWS V14.00,2013-04-30 12:32:00,
2013-04-30 08:33:00,65.2,63.1,30.00,NE,45,2.0,4.0,93,0.00,,---,0.05,142.00,VWS V14.00,2013-04-30 12:33:00,
2013-04-30 08:34:00,65.2,63.1,30.00,NE,45,0.0,4.0,93,0.00,,---,0.05,167.00,VWS V14.00,2013-04-30 12:34:00,
2013-04-30 08:35:00,65.2,63.1,30.00,NE,45,4.0,4.0,93,0.00,,---,0.05,151.00,VWS V14.00,2013-04-30 12:35:00,
2013-04-30 08:36:00,65.3,63.2,30.00,NE,45,3.0,4.0,93,0.00,,---,0.05,149.00,VWS V14.00,2013-04-30 12:36:00,
2013-04-30 08:37:00,65.3,63.2,30.00,NE,45,3.0,4.0,93,0.00,,---,0.05,163.00,VWS V14.00,2013-04-30 12:37:00,
2013-04-30 08:38:00,65.2,63.1,30.00,NE,45,3.0,4.0,93,0.00,,---,0.05,172.00,VWS V14.00,2013-04-30 12:38:00,
2013-04-30 08:39:00,65.2,63.1,30.00,NE,45,2.0,4.0,93,0.00,,---,0.05,174.00,VWS V14.00,2013-04-30 12:39:00,
2013-04-30 08:40:00,65.3,63.2,30.00,NE,45,3.0,4.0,93,0.00,,---,0.05,167.00,VWS V14.00,2013-04-30 12:40:00,
2013-04-30 08:41:00,65.3,63.2,30.00,NNE,25,4.0,5.0,93,0.00,,---,0.05,183.00,VWS V14.00,2013-04-30 12:41:00,
2013-04-30 08:42:00,65.4,63.3,30.00,NNE,25,5.0,5.0,93,0.00,,---,0.05,185.00,VWS V14.00,2013-04-30 12:42:00,
2013-04-30 08:43:00,65.4,63.3,30.00,NNE,25,3.0,5.0,93,0.00,,---,0.05,186.00,VWS V14.00,2013-04-30 12:43:00,
2013-04-30 08:44:00,65.4,63.3,30.00,NNE,25,2.0,5.0,93,0.00,,---,0.05,185.00,VWS V14.00,2013-04-30 12:44:00,
2013-04-30 08:45:00,65.4,63.3,30.00,NNE,25,3.0,5.0,93,0.00,,---,0.05,174.00,VWS V14.00,2013-04-30 12:45:00,
2013-04-30 08:46:00,65.4,63.3,30.00,NNE,25,3.0,5.0,93,0.00,,---,0.05,174.00,VWS V14.00,2013-04-30 12:46:00,
2013-04-30 08:47:00,65.4,63.3,30.00,NNE,25,2.0,5.0,93,0.00,,---,0.05,171.00,VWS V14.00,2013-04-30 12:47:00,
2013-04-30 08:48:00,65.5,63.4,30.00,NNE,25,2.0,5.0,93,0.00,,---,0.05,167.00,VWS V14.00,2013-04-30 12:48:00,
2013-04-30 08:49:00,65.5,63.4,30.00,NNE,25,3.0,5.0,93,0.00,,---,0.05,176.00,VWS V14.00,2013-04-30 12:49:00,
2013-04-30 08:50:00,65.5,63.4,30.00,NNE,25,5.0,5.0,93,0.00,,---,0.05,174.00,VWS V14.00,2013-04-30 12:50:00,
2013-04-30 08:51:00,65.6,63.5,30.00,NNE,25,3.0,6.0,93,0.00,,---,0.05,160.00,VWS V14.00,2013-04-30 12:51:00,
2013-04-30 08:52:00,65.6,63.5,30.00,NNE,25,3.0,6.0,93,0.00,,---,0.05,155.00,VWS V14.00,2013-04-30 12:52:00,
2013-04-30 08:53:00,65.5,63.4,30.00,NNE,13,6.0,6.0,93,0.00,,---,0.05,149.00,VWS V14.00,2013-04-30 12:53:00,
2013-04-30 08:54:00,65.5,63.4,30.00,NNE,12,5.0,6.0,93,0.00,,---,0.05,149.00,VWS V14.00,2013-04-30 12:54:00,
2013-04-30 08:55:00,65.6,63.5,30.00,North,8,4.0,6.0,93,0.00,,---,0.05,144.00,VWS V14.00,2013-04-30 12:55:00,
2013-04-30 08:56:00,65.6,63.5,30.00,North,8,4.0,6.0,93,0.00,,---,0.05,156.00,VWS V14.00,2013-04-30 12:56:00,
2013-04-30 08:57:00,65.6,63.5,30.00,NNW,347,6.0,7.0,93,0.00,,---,0.05,144.00,VWS V14.00,2013-04-30 12:57:00,
2013-04-30 08:58:00,65.7,63.6,30.00,NNW,347,4.0,7.0,93,0.00,,---,0.05,148.00,VWS V14.00,2013-04-30 12:58:00,
2013-04-30 08:59:00,65.7,63.6,30.01,NNW,333,6.0,8.0,93,0.00,,---,0.05,171.00,VWS V14.00,2013-04-30 12:59:00,
2013-04-30 09:00:00,65.8,63.7,30.00,NNW,333,5.0,8.0,93,0.00,,---,0.05,218.00,VWS V14.00,2013-04-30 13:00:00,
2013-04-30 09:01:00,65.8,63.7,30.01,NW,320,7.0,8.0,93,0.00,,---,0.05,230.00,VWS V14.00,2013-04-30 13:01:00,
2013-04-30 09:02:00,65.8,63.7,30.00,NW,321,5.0,8.0,93,0.00,,---,0.05,204.00,VWS V14.00,2013-04-30 13:02:00,
2013-04-30 09:03:00,65.8,63.7,30.01,NW,321,7.0,8.0,93,0.00,,---,0.05,211.00,VWS V14.00,2013-04-30 13:03:00,
2013-04-30 09:04:00,65.8,63.7,30.01,NW,322,6.0,8.0,93,0.00,,---,0.05,192.00,VWS V14.00,2013-04-30 13:04:00,
2013-04-30 09:05:00,65.7,63.6,30.01,NW,322,5.0,8.0,93,0.00,,---,0.05,244.00,VWS V14.00,2013-04-30 13:05:00,
2013-04-30 09:06:00,65.7,63.6,30.01,NW,322,5.0,8.0,93,0.00,,---,0.05,204.00,VWS V14.00,2013-04-30 13:06:00,
2013-04-30 09:07:00,65.7,63.6,30.01,NW,324,4.0,8.0,93,0.00,,---,0.05,185.00,VWS V14.00,2013-04-30 13:07:00,
2013-04-30 09:08:00,65.8,63.7,30.01,North,351,4.0,8.0,93,0.00,,---,0.06,311.00,VWS V14.00,2013-04-30 13:08:00,
2013-04-30 09:09:00,65.8,63.7,30.01,North,351,4.0,8.0,93,0.00,,---,0.06,390.00,VWS V14.00,2013-04-30 13:09:00,
2013-04-30 09:10:00,65.8,63.7,30.01,North,351,4.0,8.0,93,0.00,,---,0.06,327.00,VWS V14.00,2013-04-30 13:10:00,
2013-04-30 09:11:00,65.9,63.8,30.01,NNW,343,5.0,8.0,93,0.00,,---,0.06,278.00,VWS V14.00,2013-04-30 13:11:00,
2013-04-30 09:12:00,65.9,63.8,30.01,NNW,343,5.0,8.0,93,0.00,,---,0.06,295.00,VWS V14.00,2013-04-30 13:12:00,
2013-04-30 09:13:00,65.9,63.8,30.01,NNW,343,5.0,8.0,93,0.00,,---,0.06,243.00,VWS V14.00,2013-04-30 13:13:00,
2013-04-30 09:14:00,66.0,63.9,30.01,NNW,343,3.0,8.0,93,0.00,,---,0.06,302.00,VWS V14.00,2013-04-30 13:14:00,
2013-04-30 09:15:00,66.0,63.9,30.01,NNW,343,4.0,8.0,93,0.00,,---,0.06,369.00,VWS V14.00,2013-04-30 13:15:00,
2013-04-30 09:16:00,66.0,63.9,30.01,NNW,343,6.0,8.0,93,0.00,,---,0.06,369.00,VWS V14.00,2013-04-30 13:16:00,
2013-04-30 09:17:00,66.0,63.9,30.01,NNW,343,6.0,8.0,93,0.00,,---,0.06,192.00,VWS V14.00,2013-04-30 13:17:00,
2013-04-30 09:18:00,66.0,63.9,30.01,NNW,342,5.0,8.0,93,0.00,,---,0.06,192.00,VWS V14.00,2013-04-30 13:18:00,
2013-04-30 09:19:00,65.9,63.8,30.01,NNW,342,4.0,8.0,93,0.00,,---,0.06,330.00,VWS V14.00,2013-04-30 13:19:00,
2013-04-30 09:20:00,65.9,63.8,30.01,NNW,342,5.0,8.0,93,0.00,,---,0.06,446.00,VWS V14.00,2013-04-30 13:20:00,
2013-04-30 09:21:00,66.0,63.9,30.01,NNW,342,6.0,8.0,93,0.00,,---,0.06,439.00,VWS V14.00,2013-04-30 13:21:00,
2013-04-30 09:22:00,66.0,63.9,30.01,NNW,341,2.0,8.0,93,0.00,,---,0.06,439.00,VWS V14.00,2013-04-30 13:22:00,
2013-04-30 09:23:00,66.0,63.9,30.01,NNW,341,4.0,8.0,93,0.00,,---,0.06,519.00,VWS V14.00,2013-04-30 13:23:00,
2013-04-30 09:24:00,66.1,64.0,30.01,NNW,341,5.0,8.0,93,0.00,,---,0.06,547.00,VWS V14.00,2013-04-30 13:24:00,
2013-04-30 09:25:00,66.1,64.0,30.01,NNW,341,4.0,8.0,93,0.00,,---,0.06,489.00,VWS V14.00,2013-04-30 13:25:00,
2013-04-30 09:26:00,66.1,64.0,30.01,NNW,341,4.0,8.0,93,0.00,,---,0.06,606.00,VWS V14.00,2013-04-30 13:26:00,
2013-04-30 09:27:00,66.2,64.1,30.01,NNW,338,4.0,8.0,93,0.00,,---,0.06,656.00,VWS V14.00,2013-04-30 13:27:00,
2013-04-30 09:28:00,66.2,64.1,30.01,NNW,338,3.0,8.0,93,0.00,,---,0.06,573.00,VWS V14.00,2013-04-30 13:28:00,
2013-04-30 09:29:00,66.2,64.1,30.01,NNW,338,6.0,8.0,93,0.00,,---,0.06,510.00,VWS V14.00,2013-04-30 13:29:00,
2013-04-30 09:30:00,66.2,64.1,30.01,NNW,338,4.0,8.0,93,0.00,,---,0.06,559.00,VWS V14.00,2013-04-30 13:30:00,
2013-04-30 09:31:00,66.2,64.1,30.01,NNW,338,6.0,7.0,93,0.00,,---,0.06,566.00,VWS V14.00,2013-04-30 13:31:00,
2013-04-30 09:32:00,66.2,64.1,30.01,NNW,338,6.0,7.0,93,0.00,,---,0.06,570.00,VWS V14.00,2013-04-30 13:32:00,
2013-04-30 09:33:00,66.3,64.2,30.01,NNW,335,7.0,8.0,93,0.00,,---,0.06,570.00,VWS V14.00,2013-04-30 13:33:00,
2013-04-30 09:34:00,66.3,64.2,30.01,NNW,333,7.0,8.0,93,0.00,,---,0.06,568.00,VWS V14.00,2013-04-30 13:34:00,
2013-04-30 09:35:00,66.3,64.2,30.01,NNW,333,5.0,8.0,93,0.00,,---,0.06,568.00,VWS V14.00,2013-04-30 13:35:00,
2013-04-30 09:36:00,66.3,64.2,30.01,NNW,332,7.0,8.0,93,0.00,,---,0.06,566.00,VWS V14.00,2013-04-30 13:36:00,
2013-04-30 09:37:00,66.4,64.3,30.01,NNW,332,6.0,8.0,93,0.00,,---,0.06,561.00,VWS V14.00,2013-04-30 13:37:00,
2013-04-30 09:38:00,66.4,64.3,30.01,NNW,331,5.0,8.0,93,0.00,,---,0.06,571.00,VWS V14.00,2013-04-30 13:38:00,
2013-04-30 09:39:00,66.5,64.4,30.01,NNW,331,6.0,8.0,93,0.00,,---,0.06,573.00,VWS V14.00,2013-04-30 13:39:00,
2013-04-30 09:40:00,66.6,64.5,30.01,NNW,330,4.0,8.0,93,0.00,,---,0.06,577.00,VWS V14.00,2013-04-30 13:40:00,
2013-04-30 09:41:00,66.7,64.6,30.01,NNW,330,5.0,8.0,93,0.00,,---,0.06,575.00,VWS V14.00,2013-04-30 13:41:00,
2013-04-30 09:42:00,66.8,64.7,30.01,NNW,328,5.0,8.0,93,0.00,,---,0.06,577.00,VWS V14.00,2013-04-30 13:42:00,
2013-04-30 09:43:00,66.8,64.7,30.01,NNW,328,6.0,8.0,93,0.00,,---,0.06,578.00,VWS V14.00,2013-04-30 13:43:00,
2013-04-30 09:44:00,66.8,64.7,30.01,NW,324,4.0,8.0,93,0.00,,---,0.06,587.00,VWS V14.00,2013-04-30 13:44:00,
2013-04-30 09:45:00,66.8,64.7,30.01,NW,324,3.0,8.0,93,0.00,,---,0.06,584.00,VWS V14.00,2013-04-30 13:45:00,
2013-04-30 09:46:00,66.9,64.8,30.01,NW,324,3.0,8.0,93,0.00,,---,0.06,585.00,VWS V14.00,2013-04-30 13:46:00,
2013-04-30 09:47:00,67.0,64.9,30.01,NW,324,3.0,8.0,93,0.00,,---,0.06,587.00,VWS V14.00,2013-04-30 13:47:00,
2013-04-30 09:48:00,67.0,64.9,30.02,NW,324,4.0,8.0,93,0.00,,---,0.06,591.00,VWS V14.00,2013-04-30 13:48:00,
2013-04-30 09:49:00,67.1,65.0,30.02,NW,324,5.0,8.0,93,0.00,,---,0.06,596.00,VWS V14.00,2013-04-30 13:49:00,
2013-04-30 09:50:00,67.1,65.0,30.01,NW,324,4.0,8.0,93,0.00,,---,0.06,598.00,VWS V14.00,2013-04-30 13:50:00,
2013-04-30 09:51:00,67.2,65.1,30.02,NW,324,4.0,8.0,93,0.00,,---,0.06,601.00,VWS V14.00,2013-04-30 13:51:00,
2013-04-30 09:52:00,67.3,65.2,30.01,NW,324,3.0,8.0,93,0.00,,---,0.06,606.00,VWS V14.00,2013-04-30 13:52:00,
2013-04-30 09:53:00,67.3,65.2,30.02,NW,324,3.0,8.0,93,0.00,,---,0.06,610.00,VWS V14.00,2013-04-30 13:53:00,
2013-04-30 09:54:00,67.4,65.3,30.02,NW,324,3.0,8.0,93,0.00,,---,0.06,610.00,VWS V14.00,2013-04-30 13:54:00,
2013-04-30 09:55:00,67.4,65.3,30.01,NW,324,3.0,8.0,93,0.00,,---,0.06,613.00,VWS V14.00,2013-04-30 13:55:00,
2013-04-30 09:56:00,67.5,65.4,30.02,NW,324,0.0,8.0,93,0.00,,---,0.06,615.00,VWS V14.00,2013-04-30 13:56:00,
2013-04-30 09:57:00,67.6,65.5,30.01,NW,324,3.0,8.0,93,0.00,,---,0.06,619.00,VWS V14.00,2013-04-30 13:57:00,
2013-04-30 09:58:00,67.7,65.6,30.02,NW,324,1.0,8.0,93,0.00,,---,0.06,622.00,VWS V14.00,2013-04-30 13:58:00,
2013-04-30 09:59:00,67.8,65.7,30.02,NW,324,0.0,8.0,93,0.00,,---,0.06,626.00,VWS V14.00,2013-04-30 13:59:00,
2013-04-30 10:00:00,67.9,65.8,30.02,NW,324,1.0,8.0,93,0.00,,---,0.06,628.00,VWS V14.00,2013-04-30 14:00:00,
2013-04-30 10:01:00,67.9,65.8,30.01,NW,324,2.0,4.0,93,0.00,,---,0.06,633.00,VWS V14.00,2013-04-30 14:01:00,
2013-04-30 10:02:00,67.9,65.8,30.01,NW,324,3.0,4.0,93,0.00,,---,0.06,635.00,VWS V14.00,2013-04-30 14:02:00,
2013-04-30 10:03:00,67.9,65.8,30.01,NW,324,2.0,4.0,93,0.00,,---,0.06,636.00,VWS V14.00,2013-04-30 14:03:00,
2013-04-30 10:04:00,67.9,65.8,30.01,NW,324,4.0,4.0,93,0.00,,---,0.06,636.00,VWS V14.00,2013-04-30 14:04:00,
2013-04-30 10:05:00,68.0,65.9,30.01,NW,324,2.0,4.0,93,0.00,,---,0.06,642.00,VWS V14.00,2013-04-30 14:05:00,
2013-04-30 10:06:00,68.0,65.9,30.01,NW,324,3.0,4.0,93,0.00,,---,0.06,645.00,VWS V14.00,2013-04-30 14:06:00,
2013-04-30 10:07:00,68.0,65.6,30.01,NW,324,2.0,4.0,92,0.00,,---,0.06,649.00,VWS V14.00,2013-04-30 14:07:00,
2013-04-30 10:08:00,68.1,65.7,30.01,NW,324,2.0,4.0,92,0.00,,---,0.06,650.00,VWS V14.00,2013-04-30 14:08:00,
2013-04-30 10:09:00,68.2,65.8,30.01,NW,324,1.0,4.0,92,0.00,,---,0.06,652.00,VWS V14.00,2013-04-30 14:09:00,
2013-04-30 10:10:00,68.3,65.9,30.01,NW,324,0.0,4.0,92,0.00,,---,0.06,654.00,VWS V14.00,2013-04-30 14:10:00,
2013-04-30 10:11:00,68.3,65.9,30.01,NW,324,2.0,4.0,92,0.00,,---,0.06,656.00,VWS V14.00,2013-04-30 14:11:00,
2013-04-30 10:12:00,68.4,66.0,30.01,NW,324,3.0,4.0,92,0.00,,---,0.06,661.00,VWS V14.00,2013-04-30 14:12:00,
2013-04-30 10:13:00,68.5,66.1,30.01,NW,324,1.0,4.0,92,0.00,,---,0.06,663.00,VWS V14.00,2013-04-30 14:13:00,
2013-04-30 10:14:00,68.6,66.2,30.01,NW,324,3.0,4.0,92,0.00,,---,0.06,666.00,VWS V14.00,2013-04-30 14:14:00,
2013-04-30 10:15:00,68.7,66.3,30.01,NW,324,3.0,4.0,92,0.00,,---,0.06,668.00,VWS V14.00,2013-04-30 14:15:00,
2013-04-30 10:16:00,68.7,66.3,30.01,NW,324,3.0,4.0,92,0.00,,---,0.06,671.00,VWS V14.00,2013-04-30 14:16:00,
2013-04-30 10:17:00,68.8,66.1,30.01,NW,324,2.0,4.0,91,0.00,,---,0.07,675.00,VWS V14.00,2013-04-30 14:17:00,
2013-04-30 10:18:00,68.8,66.1,30.01,NW,324,0.0,4.0,91,0.00,,---,0.07,680.00,VWS V14.00,2013-04-30 14:18:00,
2013-04-30 10:19:00,68.9,66.2,30.01,NW,324,1.0,4.0,91,0.00,,---,0.07,682.00,VWS V14.00,2013-04-30 14:19:00,
2013-04-30 10:20:00,69.0,66.3,30.01,NW,324,1.0,4.0,91,0.00,,---,0.07,684.00,VWS V14.00,2013-04-30 14:20:00,
2013-04-30 10:21:00,69.2,66.5,30.01,NW,324,2.0,4.0,91,0.00,,---,0.07,687.00,VWS V14.00,2013-04-30 14:21:00,
2013-04-30 10:22:00,69.2,66.2,30.01,NW,324,3.0,4.0,90,0.00,,---,0.07,693.00,VWS V14.00,2013-04-30 14:22:00,
2013-04-30 10:23:00,69.2,65.8,30.01,NW,324,3.0,4.0,89,0.00,,---,0.07,694.00,VWS V14.00,2013-04-30 14:23:00,
2013-04-30 10:24:00,69.4,66.0,30.01,NW,324,3.0,4.0,89,0.00,,---,0.07,698.00,VWS V14.00,2013-04-30 14:24:00,
2013-04-30 10:25:00,69.4,66.0,30.01,NW,324,3.0,4.0,89,0.00,,---,0.07,703.00,VWS V14.00,2013-04-30 14:25:00,
2013-04-30 10:26:00,69.5,65.8,30.01,NW,324,2.0,4.0,88,0.00,,---,0.07,707.00,VWS V14.00,2013-04-30 14:26:00,
2013-04-30 10:27:00,69.6,65.6,30.01,NW,324,2.0,4.0,87,0.00,,---,0.07,712.00,VWS V14.00,2013-04-30 14:27:00,
2013-04-30 10:28:00,69.7,65.3,30.01,NW,324,3.0,4.0,86,0.00,,---,0.07,714.00,VWS V14.00,2013-04-30 14:28:00,
2013-04-30 10:29:00,69.8,65.4,30.01,NW,324,3.0,4.0,86,0.00,,---,0.07,715.00,VWS V14.00,2013-04-30 14:29:00,
2013-04-30 10:30:00,69.9,65.5,30.01,NW,324,4.0,4.0,86,0.00,,---,0.07,722.00,VWS V14.00,2013-04-30 14:30:00,
2013-04-30 10:31:00,70.0,65.6,30.01,NW,324,4.0,4.0,86,0.00,,---,0.07,726.00,VWS V14.00,2013-04-30 14:31:00,
2013-04-30 10:32:00,70.1,65.4,30.01,NW,324,3.0,4.0,85,0.00,,---,0.07,729.00,VWS V14.00,2013-04-30 14:32:00,
2013-04-30 10:33:00,70.2,65.5,30.01,NW,324,3.0,4.0,85,0.00,,---,0.07,735.00,VWS V14.00,2013-04-30 14:33:00,
2013-04-30 10:34:00,70.2,65.1,30.01,NW,324,2.0,4.0,84,0.00,,---,0.07,738.00,VWS V14.00,2013-04-30 14:34:00,
2013-04-30 10:35:00,70.3,65.2,30.01,NW,324,3.0,4.0,84,0.00,,---,0.07,744.00,VWS V14.00,2013-04-30 14:35:00,
2013-04-30 10:36:00,70.4,65.3,30.01,NW,324,4.0,4.0,84,0.00,,---,0.07,745.00,VWS V14.00,2013-04-30 14:36:00,
2013-04-30 10:37:00,70.5,65.4,30.01,NW,324,4.0,5.0,84,0.00,,---,0.07,752.00,VWS V14.00,2013-04-30 14:37:00,
2013-04-30 10:38:00,70.7,65.6,30.01,NW,324,4.0,5.0,84,0.00,,---,0.07,756.00,VWS V14.00,2013-04-30 14:38:00,
2013-04-30 10:39:00,70.8,65.7,30.01,NW,324,4.0,5.0,84,0.00,,---,0.07,758.00,VWS V14.00,2013-04-30 14:39:00,
2013-04-30 10:40:00,70.8,65.4,30.01,NW,324,4.0,5.0,83,0.00,,---,0.07,761.00,VWS V14.00,2013-04-30 14:40:00,
2013-04-30 10:41:00,70.9,65.1,30.01,NW,324,4.0,5.0,82,0.00,,---,0.07,763.00,VWS V14.00,2013-04-30 14:41:00,
2013-04-30 10:42:00,71.0,65.2,30.01,NW,324,4.0,5.0,82,0.00,,---,0.07,766.00,VWS V14.00,2013-04-30 14:42:00,
2013-04-30 10:43:00,71.1,65.3,30.01,NW,324,4.0,5.0,82,0.00,,---,0.07,770.00,VWS V14.00,2013-04-30 14:43:00,
2013-04-30 10:44:00,71.2,65.4,30.01,NW,324,5.0,5.0,82,0.00,,---,0.07,772.00,VWS V14.00,2013-04-30 14:44:00,
2013-04-30 10:45:00,71.3,65.2,30.01,NW,324,5.0,5.0,81,0.00,,---,0.07,775.00,VWS V14.00,2013-04-30 14:45:00,
2013-04-30 10:46:00,71.4,65.3,30.01,NW,324,4.0,5.0,81,0.00,,---,0.07,777.00,VWS V14.00,2013-04-30 14:46:00,
2013-04-30 10:47:00,71.4,65.3,30.01,NW,324,4.0,5.0,81,0.00,,---,0.07,779.00,VWS V14.00,2013-04-30 14:47:00,
2013-04-30 10:48:00,71.5,65.4,30.01,NW,324,4.0,5.0,81,0.00,,---,0.07,784.00,VWS V14.00,2013-04-30 14:48:00,
2013-04-30 10:49:00,71.6,65.1,30.00,NW,324,5.0,5.0,80,0.00,,---,0.07,788.00,VWS V14.00,2013-04-30 14:49:00,
2013-04-30 10:50:00,71.7,65.2,30.01,NW,324,4.0,5.0,80,0.00,,---,0.07,789.00,VWS V14.00,2013-04-30 14:50:00,
2013-04-30 10:51:00,71.7,64.1,30.01,NW,324,3.0,5.0,77,0.00,,---,0.07,793.00,VWS V14.00,2013-04-30 14:51:00,
2013-04-30 10:52:00,71.8,64.6,30.01,NW,324,5.0,5.0,78,0.00,,---,0.07,793.00,VWS V14.00,2013-04-30 14:52:00,
2013-04-30 10:53:00,71.9,64.7,30.00,NW,322,3.0,6.0,78,0.00,,---,0.07,795.00,VWS V14.00,2013-04-30 14:53:00,
2013-04-30 10:54:00,72.1,64.9,30.00,NNW,335,4.0,6.0,78,0.00,,---,0.07,800.00,VWS V14.00,2013-04-30 14:54:00,
2013-04-30 10:55:00,72.2,65.3,30.00,West,274,5.0,6.0,79,0.00,,---,0.07,803.00,VWS V14.00,2013-04-30 14:55:00,
2013-04-30 10:56:00,72.2,64.6,30.00,West,280,5.0,6.0,77,0.00,,---,0.07,807.00,VWS V14.00,2013-04-30 14:56:00,
2013-04-30 10:57:00,72.3,63.9,30.00,West,280,5.0,6.0,75,0.00,,---,0.07,807.00,VWS V14.00,2013-04-30 14:57:00,
2013-04-30 10:58:00,72.4,63.7,30.00,West,280,5.0,6.0,74,0.00,,---,0.07,809.00,VWS V14.00,2013-04-30 14:58:00,
2013-04-30 10:59:00,72.4,62.9,30.01,West,280,1.0,6.0,72,0.00,,---,0.07,810.00,VWS V14.00,2013-04-30 14:59:00,
2013-04-30 11:00:00,72.5,62.6,30.01,West,280,0.0,6.0,71,0.00,,---,0.07,814.00,VWS V14.00,2013-04-30 15:00:00,
2013-04-30 11:01:00,72.6,63.1,30.01,West,280,5.0,6.0,72,0.00,,---,0.07,816.00,VWS V14.00,2013-04-30 15:01:00,
2013-04-30 11:02:00,72.7,62.4,30.00,West,280,1.0,6.0,70,0.00,,---,0.07,819.00,VWS V14.00,2013-04-30 15:02:00,
2013-04-30 11:03:00,72.8,62.0,30.01,West,280,6.0,6.0,69,0.00,,---,0.07,819.00,VWS V14.00,2013-04-30 15:03:00,
2013-04-30 11:04:00,72.9,63.0,30.01,West,280,5.0,6.0,71,0.00,,---,0.07,821.00,VWS V14.00,2013-04-30 15:04:00,
2013-04-30 11:05:00,73.0,62.2,30.01,West,280,3.0,6.0,69,0.00,,---,0.07,824.00,VWS V14.00,2013-04-30 15:05:00,
2013-04-30 11:06:00,73.1,62.3,30.01,NW,318,3.0,6.0,69,0.00,,---,0.07,828.00,VWS V14.00,2013-04-30 15:06:00,
2013-04-30 11:07:00,73.2,62.0,30.01,NW,318,3.0,6.0,68,0.00,,---,0.07,831.00,VWS V14.00,2013-04-30 15:07:00,
2013-04-30 11:08:00,73.3,62.5,30.01,NW,318,4.0,6.0,69,0.00,,---,0.07,833.00,VWS V14.00,2013-04-30 15:08:00,
2013-04-30 11:09:00,73.4,63.4,30.01,NW,318,2.0,6.0,71,0.00,,---,0.07,837.00,VWS V14.00,2013-04-30 15:09:00,
2013-04-30 11:10:00,73.4,62.6,30.01,NW,318,2.0,6.0,69,0.00,,---,0.07,838.00,VWS V14.00,2013-04-30 15:10:00,
2013-04-30 11:11:00,73.5,63.1,30.01,NW,318,1.0,6.0,70,0.00,,---,0.07,840.00,VWS V14.00,2013-04-30 15:11:00,
2013-04-30 11:12:00,73.6,62.4,30.01,NW,318,1.0,6.0,68,0.00,,---,0.07,842.00,VWS V14.00,2013-04-30 15:12:00,
2013-04-30 11:13:00,73.9,61.4,30.01,NW,318,1.0,6.0,65,0.00,,---,0.07,844.00,VWS V14.00,2013-04-30 15:13:00,
2013-04-30 11:14:00,74.2,61.2,30.01,NW,318,3.0,6.0,64,0.00,,---,0.07,847.00,VWS V14.00,2013-04-30 15:14:00,
2013-04-30 11:15:00,74.5,62.0,30.00,NW,318,2.0,6.0,65,0.00,,---,0.08,849.00,VWS V14.00,2013-04-30 15:15:00,
2013-04-30 11:16:00,74.8,61.8,30.00,NW,318,2.0,6.0,64,0.00,,---,0.08,851.00,VWS V14.00,2013-04-30 15:16:00,
2013-04-30 11:17:00,75.1,62.5,30.00,NW,318,1.0,6.0,65,0.00,,---,0.08,854.00,VWS V14.00,2013-04-30 15:17:00,
2013-04-30 11:18:00,75.4,62.8,30.00,NW,318,3.0,6.0,65,0.00,,---,0.08,856.00,VWS V14.00,2013-04-30 15:18:00,
2013-04-30 11:19:00,75.7,62.2,30.00,NW,318,3.0,6.0,63,0.00,,---,0.08,860.00,VWS V14.00,2013-04-30 15:19:00,
2013-04-30 11:20:00,76.0,62.5,30.00,NW,318,3.0,6.0,63,0.00,,---,0.08,861.00,VWS V14.00,2013-04-30 15:20:00,
2013-04-30 11:21:00,76.2,63.1,30.00,NW,318,4.0,6.0,64,0.00,,---,0.08,861.00,VWS V14.00,2013-04-30 15:21:00,
2013-04-30 11:22:00,76.4,63.3,30.00,NNW,341,3.0,6.0,64,0.00,,---,0.08,863.00,VWS V14.00,2013-04-30 15:22:00,
2013-04-30 11:23:00,76.5,63.4,30.00,NNW,341,3.0,6.0,64,0.00,,---,0.08,867.00,VWS V14.00,2013-04-30 15:23:00,
2013-04-30 11:24:00,76.6,63.5,30.00,NNW,341,3.0,6.0,64,0.00,,---,0.08,867.00,VWS V14.00,2013-04-30 15:24:00,
2013-04-30 11:25:00,76.7,63.6,30.00,NNW,341,4.0,6.0,64,0.00,,---,0.08,870.00,VWS V14.00,2013-04-30 15:25:00,
2013-04-30 11:26:00,76.7,63.6,30.00,NNW,341,4.0,6.0,64,0.00,,---,0.08,872.00,VWS V14.00,2013-04-30 15:26:00,
2013-04-30 11:27:00,76.8,63.7,30.00,NNW,341,4.0,6.0,64,0.00,,---,0.08,874.00,VWS V14.00,2013-04-30 15:27:00,
2013-04-30 11:28:00,76.8,63.7,30.00,NNW,341,3.0,6.0,64,0.00,,---,0.08,877.00,VWS V14.00,2013-04-30 15:28:00,
2013-04-30 11:29:00,76.9,63.8,30.00,NNW,341,3.0,6.0,64,0.00,,---,0.08,879.00,VWS V14.00,2013-04-30 15:29:00,
2013-04-30 11:30:00,77.0,63.9,30.00,NNW,341,3.0,6.0,64,0.00,,---,0.08,881.00,VWS V14.00,2013-04-30 15:30:00,
2013-04-30 11:31:00,77.0,63.5,30.01,NNW,341,4.0,4.0,63,0.00,,---,0.08,882.00,VWS V14.00,2013-04-30 15:31:00,
2013-04-30 11:32:00,77.1,63.1,30.01,NNW,341,4.0,4.0,62,0.00,,---,0.08,884.00,VWS V14.00,2013-04-30 15:32:00,
2013-04-30 11:33:00,77.1,63.1,30.01,NNW,341,4.0,5.0,62,0.00,,---,0.08,884.00,VWS V14.00,2013-04-30 15:33:00,
2013-04-30 11:34:00,77.2,63.2,30.00,NNW,341,3.0,5.0,62,0.00,,---,0.08,886.00,VWS V14.00,2013-04-30 15:34:00,
2013-04-30 11:35:00,77.3,63.7,30.00,NNW,341,3.0,5.0,63,0.00,,---,0.08,889.00,VWS V14.00,2013-04-30 15:35:00,
2013-04-30 11:36:00,77.3,63.7,30.00,NNW,341,3.0,5.0,63,0.00,,---,0.08,891.00,VWS V14.00,2013-04-30 15:36:00,
2013-04-30 11:37:00,77.2,63.6,30.00,NNW,341,3.0,5.0,63,0.00,,---,0.08,893.00,VWS V14.00,2013-04-30 15:37:00,
2013-04-30 11:38:00,77.1,64.0,30.00,NNW,341,3.0,5.0,64,0.00,,---,0.08,895.00,VWS V14.00,2013-04-30 15:38:00,
2013-04-30 11:39:00,77.0,64.3,30.00,NNW,341,3.0,5.0,65,0.00,,---,0.08,896.00,VWS V14.00,2013-04-30 15:39:00,
2013-04-30 11:40:00,76.9,63.8,30.00,NNW,341,3.0,5.0,64,0.00,,---,0.08,898.00,VWS V14.00,2013-04-30 15:40:00,
2013-04-30 11:41:00,76.8,63.7,30.00,NNW,341,3.0,5.0,64,0.00,,---,0.08,900.00,VWS V14.00,2013-04-30 15:41:00,
2013-04-30 11:42:00,76.8,63.7,30.00,North,349,4.0,5.0,64,0.00,,---,0.08,902.00,VWS V14.00,2013-04-30 15:42:00,
2013-04-30 11:43:00,76.9,63.8,30.00,North,349,4.0,5.0,64,0.00,,---,0.08,905.00,VWS V14.00,2013-04-30 15:43:00,
2013-04-30 11:44:00,76.8,62.8,30.00,North,349,3.0,5.0,62,0.00,,---,0.08,907.00,VWS V14.00,2013-04-30 15:44:00,
2013-04-30 11:45:00,76.7,63.2,30.00,North,349,3.0,5.0,63,0.00,,---,0.08,907.00,VWS V14.00,2013-04-30 15:45:00,
2013-04-30 11:46:00,76.7,63.2,30.00,North,349,3.0,5.0,63,0.00,,---,0.08,911.00,VWS V14.00,2013-04-30 15:46:00,
2013-04-30 11:47:00,76.7,64.1,30.00,North,349,2.0,5.0,65,0.00,,---,0.08,912.00,VWS V14.00,2013-04-30 15:47:00,
2013-04-30 11:48:00,76.8,64.2,30.00,North,349,3.0,5.0,65,0.00,,---,0.08,916.00,VWS V14.00,2013-04-30 15:48:00,
2013-04-30 11:49:00,76.9,63.8,30.00,North,349,3.0,5.0,64,0.00,,---,0.08,916.00,VWS V14.00,2013-04-30 15:49:00,
2013-04-30 11:50:00,77.1,64.0,30.00,North,349,4.0,5.0,64,0.00,,---,0.08,918.00,VWS V14.00,2013-04-30 15:50:00,
2013-04-30 11:51:00,77.3,63.3,30.00,North,349,3.0,5.0,62,0.00,,---,0.08,918.00,VWS V14.00,2013-04-30 15:51:00,
2013-04-30 11:52:00,77.4,63.4,30.00,North,349,4.0,5.0,62,0.00,,---,0.08,923.00,VWS V14.00,2013-04-30 15:52:00,
2013-04-30 11:53:00,77.5,63.9,30.00,North,349,3.0,5.0,63,0.00,,---,0.08,923.00,VWS V14.00,2013-04-30 15:53:00,
2013-04-30 11:54:00,77.5,63.0,30.00,North,349,5.0,5.0,61,0.00,,---,0.08,925.00,VWS V14.00,2013-04-30 15:54:00,
2013-04-30 11:55:00,77.6,63.6,30.00,North,349,3.0,5.0,62,0.00,,---,0.08,925.00,VWS V14.00,2013-04-30 15:55:00,
2013-04-30 11:56:00,77.8,64.2,30.00,North,349,3.0,5.0,63,0.00,,---,0.08,928.00,VWS V14.00,2013-04-30 15:56:00,
2013-04-30 11:57:00,77.8,62.8,30.00,North,349,3.0,5.0,60,0.00,,---,0.08,928.00,VWS V14.00,2013-04-30 15:57:00,
2013-04-30 11:58:00,77.8,63.3,30.00,North,349,3.0,5.0,61,0.00,,---,0.08,930.00,VWS V14.00,2013-04-30 15:58:00,
2013-04-30 11:59:00,77.8,63.3,30.00,North,349,2.0,5.0,61,0.00,,---,0.08,935.00,VWS V14.00,2013-04-30 15:59:00,
2013-04-30 12:00:00,77.9,64.8,30.00,North,349,3.0,5.0,64,0.00,,---,0.08,933.00,VWS V14.00,2013-04-30 16:00:00,
2013-04-30 12:01:00,77.9,63.8,30.00,North,349,4.0,5.0,62,0.00,,---,0.08,935.00,VWS V14.00,2013-04-30 16:01:00,
2013-04-30 12:02:00,77.9,63.8,30.00,North,349,4.0,5.0,62,0.00,,---,0.09,937.00,VWS V14.00,2013-04-30 16:02:00,
2013-04-30 12:03:00,77.9,63.8,30.00,North,349,5.0,6.0,62,0.00,,---,0.09,937.00,VWS V14.00,2013-04-30 16:03:00,
2013-04-30 12:04:00,77.9,63.4,30.00,North,350,4.0,6.0,61,0.00,,---,0.09,940.00,VWS V14.00,2013-04-30 16:04:00,
2013-04-30 12:05:00,77.8,63.3,30.00,North,350,4.0,6.0,61,0.00,,---,0.09,942.00,VWS V14.00,2013-04-30 16:05:00,
2013-04-30 12:06:00,77.7,62.7,29.99,North,350,2.0,6.0,60,0.00,,---,0.09,944.00,VWS V14.00,2013-04-30 16:06:00,
2013-04-30 12:07:00,77.6,62.6,30.00,North,350,0.0,6.0,60,0.00,,---,0.09,942.00,VWS V14.00,2013-04-30 16:07:00,
2013-04-30 12:08:00,77.6,63.1,30.00,North,350,3.0,6.0,61,0.00,,---,0.09,944.00,VWS V14.00,2013-04-30 16:08:00,
2013-04-30 12:09:00,77.7,63.2,30.00,North,350,1.0,6.0,61,0.00,,---,0.09,946.00,VWS V14.00,2013-04-30 16:09:00,
2013-04-30 12:10:00,77.8,63.3,30.00,North,350,0.0,6.0,61,0.00,,---,0.09,947.00,VWS V14.00,2013-04-30 16:10:00,
2013-04-30 12:11:00,77.9,63.4,30.00,North,350,3.0,6.0,61,0.00,,---,0.09,947.00,VWS V14.00,2013-04-30 16:11:00,
2013-04-30 12:12:00,78.1,63.1,29.99,North,350,1.0,6.0,60,0.00,,---,0.09,953.00,VWS V14.00,2013-04-30 16:12:00,
2013-04-30 12:13:00,78.3,63.3,29.99,North,350,4.0,6.0,60,0.00,,---,0.09,954.00,VWS V14.00,2013-04-30 16:13:00,
2013-04-30 12:14:00,78.4,63.4,29.99,North,350,4.0,6.0,60,0.00,,---,0.09,954.00,VWS V14.00,2013-04-30 16:14:00,
2013-04-30 12:15:00,78.5,63.5,29.99,North,350,5.0,6.0,60,0.00,,---,0.09,956.00,VWS V14.00,2013-04-30 16:15:00,
2013-04-30 12:16:00,78.6,63.1,30.00,North,350,4.0,6.0,59,0.00,,---,0.09,960.00,VWS V14.00,2013-04-30 16:16:00,
2013-04-30 12:17:00,78.6,63.1,30.00,North,349,3.0,6.0,59,0.00,,---,0.09,962.00,VWS V14.00,2013-04-30 16:17:00,
2013-04-30 12:18:00,78.6,62.6,29.99,North,349,3.0,6.0,58,0.00,,---,0.09,963.00,VWS V14.00,2013-04-30 16:18:00,
2013-04-30 12:19:00,78.6,63.6,29.99,North,349,4.0,6.0,60,0.00,,---,0.09,963.00,VWS V14.00,2013-04-30 16:19:00,
2013-04-30 12:20:00,78.6,63.6,30.00,North,349,4.0,6.0,60,0.00,,---,0.09,965.00,VWS V14.00,2013-04-30 16:20:00,
2013-04-30 12:21:00,78.6,63.1,29.99,North,350,4.0,6.0,59,0.00,,---,0.09,967.00,VWS V14.00,2013-04-30 16:21:00,
2013-04-30 12:22:00,78.5,63.5,30.00,North,349,3.0,6.0,60,0.00,,---,0.09,969.00,VWS V14.00,2013-04-30 16:22:00,
2013-04-30 12:23:00,78.5,63.5,30.00,North,349,3.0,6.0,60,0.00,,---,0.09,967.00,VWS V14.00,2013-04-30 16:23:00,
2013-04-30 12:24:00,78.5,63.5,29.99,North,349,3.0,6.0,60,0.00,,---,0.09,970.00,VWS V14.00,2013-04-30 16:24:00,
2013-04-30 12:25:00,78.6,63.6,29.99,North,349,3.0,6.0,60,0.00,,---,0.09,970.00,VWS V14.00,2013-04-30 16:25:00,
2013-04-30 12:26:00,78.7,63.7,29.99,North,349,4.0,6.0,60,0.00,,---,0.09,972.00,VWS V14.00,2013-04-30 16:26:00,
2013-04-30 12:27:00,78.8,63.8,29.99,North,349,3.0,6.0,60,0.00,,---,0.09,974.00,VWS V14.00,2013-04-30 16:27:00,
2013-04-30 12:28:00,78.9,63.8,29.99,North,350,4.0,6.0,60,0.00,,---,0.09,976.00,VWS V14.00,2013-04-30 16:28:00,
2013-04-30 12:29:00,79.0,63.9,29.99,NNE,23,5.0,6.0,60,0.00,,---,0.09,976.00,VWS V14.00,2013-04-30 16:29:00,
2013-04-30 12:30:00,78.9,62.9,29.99,NNE,23,4.0,6.0,58,0.00,,---,0.09,972.00,VWS V14.00,2013-04-30 16:30:00,
2013-04-30 12:31:00,78.9,63.4,29.99,NNE,23,5.0,5.0,59,0.00,,---,0.09,979.00,VWS V14.00,2013-04-30 16:31:00,
2013-04-30 12:32:00,78.9,63.8,29.99,NNE,23,4.0,6.0,60,0.00,,---,0.09,981.00,VWS V14.00,2013-04-30 16:32:00,
2013-04-30 12:33:00,78.9,63.4,29.99,NNE,24,3.0,6.0,59,0.00,,---,0.09,983.00,VWS V14.00,2013-04-30 16:33:00,
2013-04-30 12:34:00,78.9,63.4,29.99,NNE,23,3.0,6.0,59,0.00,,---,0.09,986.00,VWS V14.00,2013-04-30 16:34:00,
2013-04-30 12:35:00,78.9,64.3,29.99,NNE,25,3.0,6.0,61,0.00,,---,0.09,988.00,VWS V14.00,2013-04-30 16:35:00,
2013-04-30 12:36:00,78.8,62.8,29.99,NNE,25,2.0,6.0,58,0.00,,---,0.09,988.00,VWS V14.00,2013-04-30 16:36:00,
2013-04-30 12:37:00,78.7,63.2,29.99,NNE,25,2.0,6.0,59,0.00,,---,0.09,990.00,VWS V14.00,2013-04-30 16:37:00,
2013-04-30 12:38:00,78.8,63.8,29.99,NNE,25,3.0,6.0,60,0.00,,---,0.09,990.00,VWS V14.00,2013-04-30 16:38:00,
2013-04-30 12:39:00,78.8,63.3,29.99,NNE,25,0.0,6.0,59,0.00,,---,0.10,993.00,VWS V14.00,2013-04-30 16:39:00,
2013-04-30 12:40:00,78.8,63.3,29.99,NNE,25,1.0,6.0,59,0.00,,---,0.10,995.00,VWS V14.00,2013-04-30 16:40:00,
2013-04-30 12:41:00,78.9,63.4,29.99,NNE,24,3.0,6.0,59,0.00,,---,0.10,993.00,VWS V14.00,2013-04-30 16:41:00,
2013-04-30 12:42:00,78.9,63.8,29.99,NNE,24,3.0,6.0,60,0.00,,---,0.10,991.00,VWS V14.00,2013-04-30 16:42:00,
2013-04-30 12:43:00,79.0,63.5,29.99,NNE,22,4.0,6.0,59,0.00,,---,0.10,998.00,VWS V14.00,2013-04-30 16:43:00,
2013-04-30 12:44:00,79.1,63.1,29.99,NNE,22,2.0,6.0,58,0.00,,---,0.10,1002.00,VWS V14.00,2013-04-30 16:44:00,
2013-04-30 12:45:00,79.2,63.7,29.98,NNE,22,5.0,6.0,59,0.00,,---,0.10,1002.00,VWS V14.00,2013-04-30 16:45:00,
2013-04-30 12:46:00,79.3,63.3,29.99,North,9,8.0,8.0,58,0.00,,---,0.10,1000.00,VWS V14.00,2013-04-30 16:46:00,
2013-04-30 12:47:00,79.4,63.3,29.98,North,5,7.0,9.0,58,0.00,,---,0.10,1000.00,VWS V14.00,2013-04-30 16:47:00,
2013-04-30 12:48:00,79.4,62.9,29.99,North,351,7.0,9.0,57,0.00,,---,0.10,997.00,VWS V14.00,2013-04-30 16:48:00,
2013-04-30 12:49:00,79.4,62.9,29.99,NNE,12,7.0,9.0,57,0.00,,---,0.10,998.00,VWS V14.00,2013-04-30 16:49:00,
2013-04-30 12:50:00,79.3,62.3,29.98,North,1,6.0,9.0,56,0.00,,---,0.10,998.00,VWS V14.00,2013-04-30 16:50:00,
2013-04-30 12:51:00,79.3,62.8,29.99,North,1,5.0,9.0,57,0.00,,---,0.10,1000.00,VWS V14.00,2013-04-30 16:51:00,
2013-04-30 12:52:00,79.3,63.3,29.99,North,360,4.0,9.0,58,0.00,,---,0.10,1000.00,VWS V14.00,2013-04-30 16:52:00,
2013-04-30 12:53:00,79.2,63.7,29.99,North,353,4.0,9.0,59,0.00,,---,0.10,1002.00,VWS V14.00,2013-04-30 16:53:00,
2013-04-30 12:54:00,79.1,62.6,29.99,North,353,1.0,9.0,57,0.00,,---,0.10,1004.00,VWS V14.00,2013-04-30 16:54:00,
2013-04-30 12:55:00,79.1,62.6,29.99,North,353,1.0,9.0,57,0.00,,---,0.10,1004.00,VWS V14.00,2013-04-30 16:55:00,
2013-04-30 12:56:00,79.1,63.1,29.98,North,353,1.0,9.0,58,0.00,,---,0.10,1005.00,VWS V14.00,2013-04-30 16:56:00,
2013-04-30 12:57:00,79.3,63.3,29.98,North,353,0.0,9.0,58,0.00,,---,0.10,1005.00,VWS V14.00,2013-04-30 16:57:00,
2013-04-30 12:58:00,79.4,62.9,29.98,North,353,0.0,9.0,57,0.00,,---,0.10,1005.00,VWS V14.00,2013-04-30 16:58:00,
2013-04-30 12:59:00,79.6,62.5,29.99,North,353,0.0,9.0,56,0.00,,---,0.10,1009.00,VWS V14.00,2013-04-30 16:59:00,
2013-04-30 13:00:00,79.8,63.2,29.98,North,353,0.0,9.0,57,0.00,,---,0.10,1013.00,VWS V14.00,2013-04-30 17:00:00,
2013-04-30 13:01:00,80.1,63.5,29.98,North,353,0.0,0.0,57,0.00,,---,0.10,1020.00,VWS V14.00,2013-04-30 17:01:00,
2013-04-30 13:02:00,80.5,63.4,29.98,North,353,3.0,5.0,56,0.00,,---,0.10,1025.00,VWS V14.00,2013-04-30 17:02:00,
2013-04-30 13:03:00,80.7,63.0,29.98,North,353,3.0,5.0,55,0.00,,---,0.10,1049.00,VWS V14.00,2013-04-30 17:03:00,
2013-04-30 13:04:00,80.9,62.7,29.98,North,353,4.0,5.0,54,0.00,,---,0.10,1076.00,VWS V14.00,2013-04-30 17:04:00,
2013-04-30 13:05:00,81.0,62.8,29.98,North,10,5.0,7.0,54,0.00,,---,0.10,1109.00,VWS V14.00,2013-04-30 17:05:00,
2013-04-30 13:06:00,80.9,62.2,29.98,North,11,4.0,7.0,53,0.00,,---,0.10,1056.00,VWS V14.00,2013-04-30 17:06:00,
2013-04-30 13:07:00,80.9,62.2,29.98,North,11,3.0,7.0,53,0.00,,---,0.10,1032.00,VWS V14.00,2013-04-30 17:07:00,
2013-04-30 13:08:00,80.7,62.5,29.98,North,11,1.0,7.0,54,0.00,,---,0.10,1021.00,VWS V14.00,2013-04-30 17:08:00,
2013-04-30 13:09:00,80.6,62.4,29.98,North,11,2.0,7.0,54,0.00,,---,0.10,1020.00,VWS V14.00,2013-04-30 17:09:00,
2013-04-30 13:10:00,80.4,62.8,29.98,NNE,23,4.0,7.0,55,0.00,,---,0.10,1018.00,VWS V14.00,2013-04-30 17:10:00,
2013-04-30 13:11:00,80.3,62.2,29.98,NNE,25,4.0,7.0,54,0.00,,---,0.10,1014.00,VWS V14.00,2013-04-30 17:11:00,
2013-04-30 13:12:00,80.0,61.9,29.98,NNE,26,3.0,7.0,54,0.00,,---,0.10,1014.00,VWS V14.00,2013-04-30 17:12:00,
2013-04-30 13:13:00,79.8,62.7,29.98,NE,35,6.0,7.0,56,0.00,,---,0.10,1016.00,VWS V14.00,2013-04-30 17:13:00,
2013-04-30 13:14:00,79.7,62.6,29.98,NE,43,4.0,7.0,56,0.00,,---,0.10,1025.00,VWS V14.00,2013-04-30 17:14:00,
2013-04-30 13:15:00,79.6,62.5,29.98,NE,43,1.0,7.0,56,0.00,,---,0.10,1030.00,VWS V14.00,2013-04-30 17:15:00,
2013-04-30 13:16:00,79.6,62.5,29.98,NE,43,0.0,7.0,56,0.00,,---,0.10,1032.00,VWS V14.00,2013-04-30 17:16:00,
2013-04-30 13:17:00,79.5,62.5,29.98,NE,43,0.0,7.0,56,0.00,,---,0.10,1020.00,VWS V14.00,2013-04-30 17:17:00,
2013-04-30 13:18:00,79.5,62.5,29.98,NE,43,3.0,7.0,56,0.00,,---,0.10,1028.00,VWS V14.00,2013-04-30 17:18:00,
2013-04-30 13:19:00,79.4,62.3,29.98,NE,43,0.0,7.0,56,0.00,,---,0.10,1034.00,VWS V14.00,2013-04-30 17:19:00,
2013-04-30 13:20:00,79.3,62.3,29.98,NE,43,0.0,7.0,56,0.00,,---,0.10,1044.00,VWS V14.00,2013-04-30 17:20:00,
2013-04-30 13:21:00,79.3,62.3,29.98,NE,43,0.0,7.0,56,0.00,,---,0.10,1046.00,VWS V14.00,2013-04-30 17:21:00,
2013-04-30 13:22:00,79.3,62.8,29.97,NE,43,0.0,7.0,57,0.00,,---,0.10,1046.00,VWS V14.00,2013-04-30 17:22:00,
2013-04-30 13:23:00,79.3,63.3,29.97,NE,43,1.0,7.0,58,0.00,,---,0.10,1055.00,VWS V14.00,2013-04-30 17:23:00,
2013-04-30 13:24:00,79.5,63.0,29.97,NE,43,0.0,7.0,57,0.00,,---,0.10,1051.00,VWS V14.00,2013-04-30 17:24:00,
2013-04-30 13:25:00,79.7,63.1,29.98,NE,43,0.0,7.0,57,0.00,,---,0.10,1037.00,VWS V14.00,2013-04-30 17:25:00,
2013-04-30 13:26:00,80.0,63.4,29.97,NE,43,0.0,7.0,57,0.00,,---,0.10,1049.00,VWS V14.00,2013-04-30 17:26:00,
2013-04-30 13:27:00,80.2,63.6,29.97,NE,43,3.0,7.0,57,0.00,,---,0.10,1081.00,VWS V14.00,2013-04-30 17:27:00,
2013-04-30 13:28:00,80.3,62.7,29.97,NE,43,3.0,7.0,55,0.00,,---,0.11,1081.00,VWS V14.00,2013-04-30 17:28:00,
2013-04-30 13:29:00,80.4,63.3,29.97,NE,43,2.0,7.0,56,0.00,,---,0.11,1081.00,VWS V14.00,2013-04-30 17:29:00,
2013-04-30 13:30:00,80.5,63.4,29.97,NE,43,0.0,7.0,56,0.00,,---,0.11,1081.00,VWS V14.00,2013-04-30 17:30:00,
2013-04-30 13:31:00,80.4,62.8,29.97,NE,43,0.0,0.0,55,0.00,,---,0.11,1081.00,VWS V14.00,2013-04-30 17:31:00,
2013-04-30 13:32:00,80.4,63.3,29.97,NE,43,3.0,3.0,56,0.00,,---,0.11,1081.00,VWS V14.00,2013-04-30 17:32:00,
2013-04-30 13:33:00,80.5,63.9,29.97,NE,42,4.0,4.0,57,0.00,,---,0.11,1081.00,VWS V14.00,2013-04-30 17:33:00,
2013-04-30 13:34:00,80.5,63.9,29.97,NE,41,3.0,6.0,57,0.00,,---,0.11,1081.00,VWS V14.00,2013-04-30 17:34:00,
2013-04-30 13:35:00,80.4,62.8,29.97,NE,41,1.0,6.0,55,0.00,,---,0.11,1081.00,VWS V14.00,2013-04-30 17:35:00,
2013-04-30 13:36:00,80.4,62.8,29.97,NE,41,0.0,6.0,55,0.00,,---,0.11,1081.00,VWS V14.00,2013-04-30 17:36:00,
2013-04-30 13:37:00,80.3,63.2,29.97,NE,41,1.0,6.0,56,0.00,,---,0.11,1081.00,VWS V14.00,2013-04-30 17:37:00,
2013-04-30 13:38:00,80.3,63.2,29.97,NE,41,0.0,6.0,56,0.00,,---,0.11,1081.00,VWS V14.00,2013-04-30 17:38:00,
2013-04-30 13:39:00,80.4,63.8,29.97,NE,41,0.0,6.0,57,0.00,,---,0.11,1144.00,VWS V14.00,2013-04-30 17:39:00,
2013-04-30 13:40:00,80.6,64.0,29.97,NE,41,0.0,6.0,57,0.00,,---,0.11,1144.00,VWS V14.00,2013-04-30 17:40:00,
2013-04-30 13:41:00,80.7,63.6,29.97,NE,41,0.0,6.0,56,0.00,,---,0.11,1144.00,VWS V14.00,2013-04-30 17:41:00,
2013-04-30 13:42:00,80.8,63.7,29.97,NE,41,0.0,6.0,56,0.00,,---,0.11,1144.00,VWS V14.00,2013-04-30 17:42:00,
2013-04-30 13:43:00,81.0,63.3,29.97,NE,41,0.0,6.0,55,0.00,,---,0.11,1144.00,VWS V14.00,2013-04-30 17:43:00,
2013-04-30 13:44:00,81.1,63.4,29.97,NE,41,0.0,6.0,55,0.00,,---,0.11,346.00,VWS V14.00,2013-04-30 17:44:00,
2013-04-30 13:45:00,81.2,63.5,29.97,NE,41,3.0,6.0,55,0.00,,---,0.11,346.00,VWS V14.00,2013-04-30 17:45:00,
2013-04-30 13:46:00,81.2,63.5,29.97,NE,41,3.0,6.0,55,0.00,,---,0.11,346.00,VWS V14.00,2013-04-30 17:46:00,
2013-04-30 13:47:00,81.3,63.6,29.97,NE,41,0.0,6.0,55,0.00,,---,0.11,1134.00,VWS V14.00,2013-04-30 17:47:00,
2013-04-30 13:48:00,81.3,64.1,29.97,NE,41,0.0,6.0,56,0.00,,---,0.11,1134.00,VWS V14.00,2013-04-30 17:48:00,
2013-04-30 13:49:00,81.4,63.2,29.97,NE,41,2.0,6.0,54,0.00,,---,0.11,1079.00,VWS V14.00,2013-04-30 17:49:00,
2013-04-30 13:50:00,81.4,62.6,29.97,NE,41,3.0,6.0,53,0.00,,---,0.11,1078.00,VWS V14.00,2013-04-30 17:50:00,
2013-04-30 13:51:00,81.4,63.2,29.97,NE,41,2.0,6.0,54,0.00,,---,0.11,1072.00,VWS V14.00,2013-04-30 17:51:00,
2013-04-30 13:52:00,81.4,63.7,29.97,NNE,16,6.0,6.0,55,0.00,,---,0.11,1065.00,VWS V14.00,2013-04-30 17:52:00,
2013-04-30 13:53:00,81.3,63.6,29.97,NNW,347,6.0,7.0,55,0.00,,---,0.11,1060.00,VWS V14.00,2013-04-30 17:53:00,
2013-04-30 13:54:00,81.2,63.5,29.97,NW,325,7.0,9.0,55,0.00,,---,0.11,1062.00,VWS V14.00,2013-04-30 17:54:00,
2013-04-30 13:55:00,80.9,62.7,29.97,NNW,341,4.0,9.0,54,0.00,,---,0.11,1076.00,VWS V14.00,2013-04-30 17:55:00,
2013-04-30 13:56:00,80.8,63.1,29.97,NNW,341,4.0,9.0,55,0.00,,---,0.11,1086.00,VWS V14.00,2013-04-30 17:56:00,
2013-04-30 13:57:00,80.7,63.0,29.97,NNW,341,3.0,9.0,55,0.00,,---,0.11,1085.00,VWS V14.00,2013-04-30 17:57:00,
2013-04-30 13:58:00,80.7,64.1,29.97,NNW,340,2.0,9.0,57,0.00,,---,0.11,1085.00,VWS V14.00,2013-04-30 17:58:00,
2013-04-30 13:59:00,80.7,62.5,29.97,NNW,341,1.0,9.0,54,0.00,,---,0.11,181.00,VWS V14.00,2013-04-30 17:59:00,
2013-04-30 14:00:00,80.6,62.4,29.97,NNW,341,1.0,9.0,54,0.00,,---,0.11,207.00,VWS V14.00,2013-04-30 18:00:00,
2013-04-30 14:01:00,80.6,63.0,29.97,NNW,341,2.0,4.0,55,0.00,,---,0.11,207.00,VWS V14.00,2013-04-30 18:01:00,
2013-04-30 14:02:00,80.6,63.5,29.97,NNW,341,2.0,4.0,56,0.00,,---,0.11,207.00,VWS V14.00,2013-04-30 18:02:00,
2013-04-30 14:03:00,80.7,63.0,29.97,NNW,341,1.0,4.0,55,0.00,,---,0.11,1079.00,VWS V14.00,2013-04-30 18:03:00,
2013-04-30 14:04:00,80.9,63.2,29.97,NNW,341,2.0,4.0,55,0.00,,---,0.11,1069.00,VWS V14.00,2013-04-30 18:04:00,
2013-04-30 14:05:00,81.0,63.8,29.97,NNW,335,7.0,7.0,56,0.00,,---,0.11,1065.00,VWS V14.00,2013-04-30 18:05:00,
2013-04-30 14:06:00,81.1,62.4,29.97,NNW,331,1.0,7.0,53,0.00,,---,0.11,1076.00,VWS V14.00,2013-04-30 18:06:00,
2013-04-30 14:07:00,81.2,63.0,29.97,NNW,331,4.0,7.0,54,0.00,,---,0.11,1079.00,VWS V14.00,2013-04-30 18:07:00,
2013-04-30 14:08:00,81.3,63.1,29.97,NNW,331,4.0,7.0,54,0.00,,---,0.11,1086.00,VWS V14.00,2013-04-30 18:08:00,
2013-04-30 14:09:00,81.4,62.6,29.97,NNW,331,2.0,7.0,53,0.00,,---,0.11,1095.00,VWS V14.00,2013-04-30 18:09:00,
2013-04-30 14:10:00,81.4,62.6,29.97,NNW,335,5.0,7.0,53,0.00,,---,0.11,1102.00,VWS V14.00,2013-04-30 18:10:00,
2013-04-30 14:11:00,81.4,63.2,29.97,NW,320,7.0,10.0,54,0.00,,---,0.11,1102.00,VWS V14.00,2013-04-30 18:11:00,
2013-04-30 14:12:00,81.2,61.9,29.97,NW,317,5.0,10.0,52,0.00,,---,0.11,1088.00,VWS V14.00,2013-04-30 18:12:00,
2013-04-30 14:13:00,81.1,62.4,29.97,NNW,329,6.0,10.0,53,0.00,,---,0.11,1067.00,VWS V14.00,2013-04-30 18:13:00,
2013-04-30 14:14:00,81.0,62.8,29.97,NNW,328,6.0,10.0,54,0.00,,---,0.11,1053.00,VWS V14.00,2013-04-30 18:14:00,
2013-04-30 14:15:00,80.9,62.2,29.97,NNW,328,2.0,10.0,53,0.00,,---,0.11,1042.00,VWS V14.00,2013-04-30 18:15:00,
2013-04-30 14:16:00,80.8,61.5,29.97,NNW,328,0.0,10.0,52,0.00,,---,0.12,1039.00,VWS V14.00,2013-04-30 18:16:00,
2013-04-30 14:17:00,80.7,61.5,29.97,NNW,328,0.0,10.0,52,0.00,,---,0.12,1041.00,VWS V14.00,2013-04-30 18:17:00,
2013-04-30 14:18:00,80.7,62.5,29.97,NNW,328,0.0,10.0,54,0.00,,---,0.12,1044.00,VWS V14.00,2013-04-30 18:18:00,
2013-04-30 14:19:00,80.8,62.6,29.97,NNW,328,0.0,10.0,54,0.00,,---,0.12,1056.00,VWS V14.00,2013-04-30 18:19:00,
2013-04-30 14:20:00,80.9,61.6,29.97,NNW,328,0.0,10.0,52,0.00,,---,0.12,1056.00,VWS V14.00,2013-04-30 18:20:00,
2013-04-30 14:21:00,81.1,61.8,29.97,NNW,328,4.0,10.0,52,0.00,,---,0.12,1051.00,VWS V14.00,2013-04-30 18:21:00,
2013-04-30 14:22:00,81.3,62.5,29.96,North,353,6.0,10.0,53,0.00,,---,0.12,1046.00,VWS V14.00,2013-04-30 18:22:00,
2013-04-30 14:23:00,81.5,62.7,29.96,NW,326,7.0,10.0,53,0.00,,---,0.12,1049.00,VWS V14.00,2013-04-30 18:23:00,
2013-04-30 14:24:00,81.5,62.7,29.97,NW,325,7.0,10.0,53,0.00,,---,0.12,1067.00,VWS V14.00,2013-04-30 18:24:00,
2013-04-30 14:25:00,81.4,62.6,29.97,North,349,6.0,10.0,53,0.00,,---,0.12,1067.00,VWS V14.00,2013-04-30 18:25:00,
2013-04-30 14:26:00,81.3,62.0,29.97,North,349,5.0,10.0,52,0.00,,---,0.12,1035.00,VWS V14.00,2013-04-30 18:26:00,
2013-04-30 14:27:00,81.3,62.0,29.97,North,353,5.0,10.0,52,0.00,,---,0.12,1046.00,VWS V14.00,2013-04-30 18:27:00,
2013-04-30 14:28:00,81.2,61.9,29.97,North,352,1.0,10.0,52,0.00,,---,0.12,1051.00,VWS V14.00,2013-04-30 18:28:00,
2013-04-30 14:29:00,81.3,62.5,29.97,North,352,4.0,10.0,53,0.00,,---,0.12,1056.00,VWS V14.00,2013-04-30 18:29:00,
2013-04-30 14:30:00,81.3,62.5,29.96,North,352,3.0,10.0,53,0.00,,---,0.12,1044.00,VWS V14.00,2013-04-30 18:30:00,
2013-04-30 14:31:00,81.4,62.1,29.96,North,352,1.0,3.0,52,0.00,,---,0.12,1041.00,VWS V14.00,2013-04-30 18:31:00,
2013-04-30 14:32:00,81.6,62.3,29.97,North,352,0.0,3.0,52,0.00,,---,0.12,1039.00,VWS V14.00,2013-04-30 18:32:00,
2013-04-30 14:33:00,81.7,62.4,29.97,North,352,0.0,3.0,52,0.00,,---,0.12,1041.00,VWS V14.00,2013-04-30 18:33:00,
2013-04-30 14:34:00,82.0,62.1,29.97,North,353,3.0,3.0,51,0.00,,---,0.12,1046.00,VWS V14.00,2013-04-30 18:34:00,
2013-04-30 14:35:00,82.0,63.2,29.97,East,82,11.0,11.0,53,0.00,,---,0.12,1053.00,VWS V14.00,2013-04-30 18:35:00,
2013-04-30 14:36:00,81.8,65.6,29.97,East,84,8.0,11.0,58,0.00,,---,0.12,1046.00,VWS V14.00,2013-04-30 18:36:00,
2013-04-30 14:37:00,81.1,65.9,29.97,East,82,9.0,11.0,60,0.00,,---,0.12,1039.00,VWS V14.00,2013-04-30 18:37:00,
2013-04-30 14:38:00,80.4,66.2,29.97,East,82,10.0,11.0,62,0.00,,---,0.12,1035.00,VWS V14.00,2013-04-30 18:38:00,
2013-04-30 14:39:00,79.7,65.5,29.97,East,88,9.0,11.0,62,0.00,,---,0.12,1032.00,VWS V14.00,2013-04-30 18:39:00,
2013-04-30 14:40:00,79.3,67.0,29.97,East,88,8.0,12.0,66,0.00,,---,0.12,1034.00,VWS V14.00,2013-04-30 18:40:00,
2013-04-30 14:41:00,78.9,66.6,29.97,East,90,8.0,12.0,66,0.00,,---,0.12,1037.00,VWS V14.00,2013-04-30 18:41:00,
2013-04-30 14:42:00,78.6,66.3,29.97,East,84,14.0,14.0,66,0.00,,---,0.12,1046.00,VWS V14.00,2013-04-30 18:42:00,
2013-04-30 14:43:00,78.3,66.9,29.97,East,97,10.0,14.0,68,0.00,,---,0.12,1048.00,VWS V14.00,2013-04-30 18:43:00,
2013-04-30 14:44:00,78.1,66.3,29.97,East,100,10.0,14.0,67,0.00,,---,0.12,1051.00,VWS V14.00,2013-04-30 18:44:00,
2013-04-30 14:45:00,78.0,66.6,29.97,East,99,16.0,16.0,68,0.00,,---,0.12,1056.00,VWS V14.00,2013-04-30 18:45:00,
2013-04-30 14:46:00,77.7,66.7,29.97,East,94,13.0,17.0,69,0.00,,---,0.12,1060.00,VWS V14.00,2013-04-30 18:46:00,
2013-04-30 14:47:00,77.6,67.1,29.97,East,91,13.0,17.0,70,0.00,,---,0.12,1063.00,VWS V14.00,2013-04-30 18:47:00,
2013-04-30 14:48:00,77.5,66.9,29.97,East,91,12.0,17.0,70,0.00,,---,0.12,1090.00,VWS V14.00,2013-04-30 18:48:00,
2013-04-30 14:49:00,77.4,66.9,29.96,East,85,13.0,17.0,70,0.00,,---,0.12,1107.00,VWS V14.00,2013-04-30 18:49:00,
2013-04-30 14:50:00,77.3,66.8,29.96,East,94,11.0,17.0,70,0.00,,---,0.12,1123.00,VWS V14.00,2013-04-30 18:50:00,
2013-04-30 14:51:00,77.2,66.7,29.96,East,93,14.0,17.0,70,0.00,,---,0.12,1125.00,VWS V14.00,2013-04-30 18:51:00,
2013-04-30 14:52:00,77.2,66.7,29.97,East,96,13.0,17.0,70,0.00,,---,0.12,1146.00,VWS V14.00,2013-04-30 18:52:00,
2013-04-30 14:53:00,77.1,66.6,29.97,East,95,11.0,17.0,70,0.00,,---,0.12,1095.00,VWS V14.00,2013-04-30 18:53:00,
2013-04-30 14:54:00,77.1,66.6,29.97,East,96,12.0,17.0,70,0.00,,---,0.12,1063.00,VWS V14.00,2013-04-30 18:54:00,
2013-04-30 14:55:00,77.1,66.6,29.96,East,95,10.0,17.0,70,0.00,,---,0.12,1076.00,VWS V14.00,2013-04-30 18:55:00,
2013-04-30 14:56:00,77.1,66.6,29.96,East,98,9.0,17.0,70,0.00,,---,0.12,1076.00,VWS V14.00,2013-04-30 18:56:00,
2013-04-30 14:57:00,77.0,66.5,29.96,East,94,7.0,17.0,70,0.00,,---,0.12,1076.00,VWS V14.00,2013-04-30 18:57:00,
2013-04-30 14:58:00,77.0,66.9,29.96,East,85,11.0,17.0,71,0.00,,---,0.12,248.00,VWS V14.00,2013-04-30 18:58:00,
2013-04-30 14:59:00,77.1,67.0,29.96,East,92,14.0,17.0,71,0.00,,---,0.12,255.00,VWS V14.00,2013-04-30 18:59:00,
2013-04-30 15:00:00,77.0,66.1,29.97,East,93,12.0,17.0,69,0.00,,---,0.12,255.00,VWS V14.00,2013-04-30 19:00:00,
2013-04-30 15:01:00,77.0,66.5,29.97,East,96,7.0,12.0,70,0.00,,---,0.12,272.00,VWS V14.00,2013-04-30 19:01:00,
2013-04-30 15:02:00,77.1,67.0,29.97,East,87,9.0,12.0,71,0.00,,---,0.12,272.00,VWS V14.00,2013-04-30 19:02:00,
2013-04-30 15:03:00,77.1,66.6,29.97,East,88,12.0,13.0,70,0.00,,---,0.12,1056.00,VWS V14.00,2013-04-30 19:03:00,
2013-04-30 15:04:00,77.1,67.4,29.97,East,89,12.0,13.0,72,0.00,,---,0.12,1069.00,VWS V14.00,2013-04-30 19:04:00,
2013-04-30 15:05:00,77.2,67.1,29.97,East,97,12.0,14.0,71,0.00,,---,0.12,1090.00,VWS V14.00,2013-04-30 19:05:00,
2013-04-30 15:06:00,77.2,67.1,29.97,East,83,13.0,14.0,71,0.00,,---,0.12,1027.00,VWS V14.00,2013-04-30 19:06:00,
2013-04-30 15:07:00,77.2,67.1,29.96,East,86,13.0,14.0,71,0.00,,---,0.12,1018.00,VWS V14.00,2013-04-30 19:07:00,
2013-04-30 15:08:00,77.2,67.1,29.96,East,99,13.0,15.0,71,0.00,,---,0.12,1018.00,VWS V14.00,2013-04-30 19:08:00,
2013-04-30 15:09:00,77.2,67.5,29.96,East,91,14.0,15.0,72,0.00,,---,0.12,179.00,VWS V14.00,2013-04-30 19:09:00,
2013-04-30 15:10:00,77.1,67.4,29.96,East,86,12.0,15.0,72,0.00,,---,0.12,199.00,VWS V14.00,2013-04-30 19:10:00,
2013-04-30 15:11:00,77.0,67.3,29.96,East,81,12.0,15.0,72,0.00,,---,0.12,206.00,VWS V14.00,2013-04-30 19:11:00,
2013-04-30 15:12:00,77.0,67.7,29.96,East,89,11.0,15.0,73,0.00,,---,0.12,192.00,VWS V14.00,2013-04-30 19:12:00,
2013-04-30 15:13:00,77.0,67.7,29.96,East,94,14.0,15.0,73,0.00,,---,0.12,192.00,VWS V14.00,2013-04-30 19:13:00,
2013-04-30 15:14:00,76.9,67.2,29.96,East,89,14.0,15.0,72,0.00,,---,0.12,199.00,VWS V14.00,2013-04-30 19:14:00,
2013-04-30 15:15:00,76.8,67.9,29.96,East,97,14.0,15.0,74,0.00,,---,0.12,216.00,VWS V14.00,2013-04-30 19:15:00,
2013-04-30 15:16:00,76.7,67.4,29.96,East,99,12.0,16.0,73,0.00,,---,0.12,216.00,VWS V14.00,2013-04-30 19:16:00,
2013-04-30 15:17:00,76.6,67.3,29.96,East,101,16.0,17.0,73,0.00,,---,0.12,1005.00,VWS V14.00,2013-04-30 19:17:00,
2013-04-30 15:18:00,76.5,67.2,29.96,East,89,15.0,17.0,73,0.00,,---,0.12,1000.00,VWS V14.00,2013-04-30 19:18:00,
2013-04-30 15:19:00,76.4,67.5,29.96,East,94,15.0,17.0,74,0.00,,---,0.12,1005.00,VWS V14.00,2013-04-30 19:19:00,
2013-04-30 15:20:00,76.4,67.9,29.96,East,84,16.0,17.0,75,0.00,,---,0.12,1013.00,VWS V14.00,2013-04-30 19:20:00,
2013-04-30 15:21:00,76.3,67.4,29.96,East,93,16.0,17.0,74,0.00,,---,0.12,1016.00,VWS V14.00,2013-04-30 19:21:00,
2013-04-30 15:22:00,76.3,67.4,29.96,East,89,15.0,17.0,74,0.00,,---,0.12,1021.00,VWS V14.00,2013-04-30 19:22:00,
2013-04-30 15:23:00,76.4,67.5,29.96,East,99,15.0,17.0,74,0.00,,---,0.12,1032.00,VWS V14.00,2013-04-30 19:23:00,
2013-04-30 15:24:00,76.4,67.5,29.96,East,99,14.0,17.0,74,0.00,,---,0.12,1032.00,VWS V14.00,2013-04-30 19:24:00,
2013-04-30 15:25:00,76.3,67.4,29.96,East,93,17.0,17.0,74,0.00,,---,0.12,1039.00,VWS V14.00,2013-04-30 19:25:00,
2013-04-30 15:26:00,76.2,67.3,29.96,East,99,15.0,17.0,74,0.00,,---,0.12,1034.00,VWS V14.00,2013-04-30 19:26:00,
2013-04-30 15:27:00,76.2,67.3,29.96,East,99,15.0,17.0,74,0.00,,---,0.12,1044.00,VWS V14.00,2013-04-30 19:27:00,
2013-04-30 15:28:00,76.1,67.2,29.96,ESE,113,14.0,18.0,74,0.00,,---,0.12,1044.00,VWS V14.00,2013-04-30 19:28:00,
2013-04-30 15:29:00,76.1,67.2,29.96,ESE,104,11.0,18.0,74,0.00,,---,0.12,1028.00,VWS V14.00,2013-04-30 19:29:00,
2013-04-30 15:30:00,76.0,67.1,29.96,ESE,108,14.0,18.0,74,0.00,,---,0.12,981.00,VWS V14.00,2013-04-30 19:30:00,
2013-04-30 15:31:00,76.0,66.7,29.96,East,97,16.0,20.0,73,0.00,,---,0.12,970.00,VWS V14.00,2013-04-30 19:31:00,
2013-04-30 15:32:00,75.9,66.6,29.96,East,94,16.0,20.0,73,0.00,,---,0.12,965.00,VWS V14.00,2013-04-30 19:32:00,
2013-04-30 15:33:00,75.8,66.5,29.96,East,93,17.0,20.0,73,0.00,,---,0.12,949.00,VWS V14.00,2013-04-30 19:33:00,
2013-04-30 15:34:00,75.8,66.5,29.96,East,95,12.0,20.0,73,0.00,,---,0.12,942.00,VWS V14.00,2013-04-30 19:34:00,
2013-04-30 15:35:00,75.7,66.8,29.96,East,95,11.0,20.0,74,0.00,,---,0.12,925.00,VWS V14.00,2013-04-30 19:35:00,
2013-04-30 15:36:00,75.7,66.8,29.96,East,97,12.0,20.0,74,0.00,,---,0.12,912.00,VWS V14.00,2013-04-30 19:36:00,
2013-04-30 15:37:00,75.8,66.9,29.96,East,91,13.0,20.0,74,0.00,,---,0.12,905.00,VWS V14.00,2013-04-30 19:37:00,
2013-04-30 15:38:00,75.7,66.8,29.96,East,101,14.0,20.0,74,0.00,,---,0.12,905.00,VWS V14.00,2013-04-30 19:38:00,
2013-04-30 15:39:00,75.7,67.2,29.96,ESE,110,17.0,20.0,75,0.00,,---,0.12,907.00,VWS V14.00,2013-04-30 19:39:00,
2013-04-30 15:40:00,75.7,66.8,29.96,East,99,14.0,20.0,74,0.00,,---,0.12,911.00,VWS V14.00,2013-04-30 19:40:00,
2013-04-30 15:41:00,75.6,66.7,29.96,ESE,111,15.0,20.0,74,0.00,,---,0.12,907.00,VWS V14.00,2013-04-30 19:41:00,
2013-04-30 15:42:00,75.5,66.6,29.96,East,94,13.0,20.0,74,0.00,,---,0.12,891.00,VWS V14.00,2013-04-30 19:42:00,
2013-04-30 15:43:00,75.5,67.0,29.96,East,90,13.0,20.0,75,0.00,,---,0.12,879.00,VWS V14.00,2013-04-30 19:43:00,
2013-04-30 15:44:00,75.4,67.3,29.96,East,100,18.0,20.0,76,0.00,,---,0.12,879.00,VWS V14.00,2013-04-30 19:44:00,
2013-04-30 15:45:00,75.4,67.3,29.96,East,91,16.0,20.0,76,0.00,,---,0.12,879.00,VWS V14.00,2013-04-30 19:45:00,
2013-04-30 15:46:00,75.3,66.8,29.96,East,95,14.0,20.0,75,0.00,,---,0.12,132.00,VWS V14.00,2013-04-30 19:46:00,
2013-04-30 15:47:00,75.3,67.2,29.96,East,96,16.0,20.0,76,0.00,,---,0.12,135.00,VWS V14.00,2013-04-30 19:47:00,
2013-04-30 15:48:00,75.2,67.1,29.96,ESE,103,15.0,20.0,76,0.00,,---,0.13,146.00,VWS V14.00,2013-04-30 19:48:00,
2013-04-30 15:49:00,75.1,67.0,29.96,East,97,16.0,20.0,76,0.00,,---,0.13,146.00,VWS V14.00,2013-04-30 19:49:00,
2013-04-30 15:50:00,75.0,66.9,29.96,East,97,16.0,20.0,76,0.00,,---,0.13,146.00,VWS V14.00,2013-04-30 19:50:00,
2013-04-30 15:51:00,74.9,66.8,29.96,East,93,17.0,20.0,76,0.00,,---,0.13,153.00,VWS V14.00,2013-04-30 19:51:00,
2013-04-30 15:52:00,74.9,67.2,29.96,East,93,15.0,20.0,77,0.00,,---,0.13,165.00,VWS V14.00,2013-04-30 19:52:00,
2013-04-30 15:53:00,74.8,67.1,29.96,East,93,18.0,20.0,77,0.00,,---,0.13,165.00,VWS V14.00,2013-04-30 19:53:00,
2013-04-30 15:54:00,74.7,67.0,29.96,East,96,20.0,21.0,77,0.00,,---,0.13,165.00,VWS V14.00,2013-04-30 19:54:00,
2013-04-30 15:55:00,74.6,66.9,29.96,East,93,17.0,21.0,77,0.00,,---,0.13,181.00,VWS V14.00,2013-04-30 19:55:00,
2013-04-30 15:56:00,74.6,66.9,29.96,East,82,16.0,21.0,77,0.00,,---,0.13,181.00,VWS V14.00,2013-04-30 19:56:00,
2013-04-30 15:57:00,74.5,66.8,29.96,ESE,104,17.0,21.0,77,0.00,,---,0.13,947.00,VWS V14.00,2013-04-30 19:57:00,
2013-04-30 15:58:00,74.4,66.7,29.96,East,97,17.0,21.0,77,0.00,,---,0.13,315.00,VWS V14.00,2013-04-30 19:58:00,
2013-04-30 15:59:00,74.4,66.7,29.96,East,93,16.0,21.0,77,0.00,,---,0.13,315.00,VWS V14.00,2013-04-30 19:59:00,
2013-04-30 16:00:00,74.4,67.1,29.96,East,95,12.0,21.0,78,0.00,,---,0.13,315.00,VWS V14.00,2013-04-30 20:00:00,
2013-04-30 16:01:00,74.4,67.1,29.96,East,93,21.0,21.0,78,0.00,,---,0.13,315.00,VWS V14.00,2013-04-30 20:01:00,
2013-04-30 16:02:00,74.4,67.1,29.96,ESE,102,21.0,21.0,78,0.00,,---,0.13,315.00,VWS V14.00,2013-04-30 20:02:00,
2013-04-30 16:03:00,74.3,67.0,29.96,East,95,15.0,21.0,78,0.00,,---,0.13,315.00,VWS V14.00,2013-04-30 20:03:00,
2013-04-30 16:04:00,74.2,66.9,29.96,East,96,13.0,21.0,78,0.00,,---,0.13,315.00,VWS V14.00,2013-04-30 20:04:00,
2013-04-30 16:05:00,74.2,66.9,29.96,East,91,16.0,21.0,78,0.00,,---,0.13,809.00,VWS V14.00,2013-04-30 20:05:00,
2013-04-30 16:06:00,74.2,66.9,29.96,East,99,15.0,21.0,78,0.00,,---,0.13,162.00,VWS V14.00,2013-04-30 20:06:00,
2013-04-30 16:07:00,74.2,66.9,29.96,East,91,15.0,21.0,78,0.00,,---,0.13,139.00,VWS V14.00,2013-04-30 20:07:00,
2013-04-30 16:08:00,74.2,66.9,29.97,East,90,18.0,21.0,78,0.00,,---,0.13,142.00,VWS V14.00,2013-04-30 20:08:00,
2013-04-30 16:09:00,74.2,66.9,29.96,East,90,13.0,21.0,78,0.00,,---,0.13,144.00,VWS V14.00,2013-04-30 20:09:00,
2013-04-30 16:10:00,74.1,66.8,29.96,East,94,14.0,21.0,78,0.00,,---,0.13,146.00,VWS V14.00,2013-04-30 20:10:00,
2013-04-30 16:11:00,74.2,67.3,29.96,East,97,12.0,21.0,79,0.00,,---,0.13,163.00,VWS V14.00,2013-04-30 20:11:00,
2013-04-30 16:12:00,74.2,66.9,29.96,East,89,14.0,21.0,78,0.00,,---,0.13,200.00,VWS V14.00,2013-04-30 20:12:00,
2013-04-30 16:13:00,74.2,66.5,29.96,East,100,13.0,21.0,77,0.00,,---,0.13,283.00,VWS V14.00,2013-04-30 20:13:00,
2013-04-30 16:14:00,74.2,66.5,29.96,East,98,14.0,21.0,77,0.00,,---,0.13,283.00,VWS V14.00,2013-04-30 20:14:00,
2013-04-30 16:15:00,74.2,66.9,29.96,East,99,13.0,21.0,78,0.00,,---,0.13,283.00,VWS V14.00,2013-04-30 20:15:00,
2013-04-30 16:16:00,74.1,66.8,29.96,ESE,109,15.0,21.0,78,0.00,,---,0.13,162.00,VWS V14.00,2013-04-30 20:16:00,
2013-04-30 16:17:00,74.0,66.7,29.96,ESE,114,13.0,21.0,78,0.00,,---,0.13,148.00,VWS V14.00,2013-04-30 20:17:00,
2013-04-30 16:18:00,74.0,66.7,29.96,ESE,110,15.0,21.0,78,0.00,,---,0.13,137.00,VWS V14.00,2013-04-30 20:18:00,
2013-04-30 16:19:00,73.9,66.2,29.96,East,89,12.0,21.0,77,0.00,,---,0.13,111.00,VWS V14.00,2013-04-30 20:19:00,
2013-04-30 16:20:00,73.9,66.6,29.96,ESE,106,12.0,21.0,78,0.00,,---,0.13,95.00,VWS V14.00,2013-04-30 20:20:00,
2013-04-30 16:21:00,73.9,66.2,29.96,East,100,16.0,21.0,77,0.00,,---,0.13,95.00,VWS V14.00,2013-04-30 20:21:00,
2013-04-30 16:22:00,73.9,66.2,29.96,ESE,104,16.0,21.0,77,0.00,,---,0.13,95.00,VWS V14.00,2013-04-30 20:22:00,
2013-04-30 16:23:00,73.9,66.2,29.96,ESE,104,15.0,21.0,77,0.00,,---,0.13,397.00,VWS V14.00,2013-04-30 20:23:00,
2013-04-30 16:24:00,73.9,66.2,29.96,ESE,103,13.0,21.0,77,0.00,,---,0.13,397.00,VWS V14.00,2013-04-30 20:24:00,
2013-04-30 16:25:00,73.9,66.2,29.97,ESE,105,17.0,21.0,77,0.00,,---,0.13,397.00,VWS V14.00,2013-04-30 20:25:00,
2013-04-30 16:26:00,73.9,66.2,29.96,ESE,104,17.0,21.0,77,0.00,,---,0.13,339.00,VWS V14.00,2013-04-30 20:26:00,
2013-04-30 16:27:00,73.9,66.2,29.97,ESE,104,12.0,21.0,77,0.00,,---,0.13,410.00,VWS V14.00,2013-04-30 20:27:00,
2013-04-30 16:28:00,73.9,66.6,29.97,East,100,17.0,21.0,78,0.00,,---,0.13,279.00,VWS V14.00,2013-04-30 20:28:00,
2013-04-30 16:29:00,73.8,65.8,29.97,ESE,112,12.0,21.0,76,0.00,,---,0.13,339.00,VWS V14.00,2013-04-30 20:29:00,
2013-04-30 16:30:00,73.9,65.9,29.97,East,95,13.0,21.0,76,0.00,,---,0.13,332.00,VWS V14.00,2013-04-30 20:30:00,
2013-04-30 16:31:00,74.0,66.3,29.97,ESE,102,11.0,15.0,77,0.00,,---,0.13,357.00,VWS V14.00,2013-04-30 20:31:00,
2013-04-30 16:32:00,74.0,66.3,29.97,East,98,9.0,16.0,77,0.00,,---,0.13,357.00,VWS V14.00,2013-04-30 20:32:00,
2013-04-30 16:33:00,74.0,66.0,29.97,ESE,102,15.0,18.0,76,0.00,,---,0.13,650.00,VWS V14.00,2013-04-30 20:33:00,
2013-04-30 16:34:00,74.0,65.6,29.97,ESE,104,13.0,18.0,75,0.00,,---,0.13,650.00,VWS V14.00,2013-04-30 20:34:00,
2013-04-30 16:35:00,74.1,66.4,29.97,East,93,14.0,18.0,77,0.00,,---,0.13,687.00,VWS V14.00,2013-04-30 20:35:00,
2013-04-30 16:36:00,74.2,66.5,29.97,East,87,16.0,18.0,77,0.00,,---,0.13,689.00,VWS V14.00,2013-04-30 20:36:00,
2013-04-30 16:37:00,74.2,66.2,29.97,East,94,16.0,18.0,76,0.00,,---,0.13,628.00,VWS V14.00,2013-04-30 20:37:00,
2013-04-30 16:38:00,74.2,66.2,29.97,East,96,13.0,18.0,76,0.00,,---,0.13,628.00,VWS V14.00,2013-04-30 20:38:00,
2013-04-30 16:39:00,74.2,65.8,29.97,East,89,14.0,18.0,75,0.00,,---,0.13,705.00,VWS V14.00,2013-04-30 20:39:00,
2013-04-30 16:40:00,74.2,66.2,29.97,East,100,19.0,19.0,76,0.00,,---,0.13,703.00,VWS V14.00,2013-04-30 20:40:00,
2013-04-30 16:41:00,74.1,65.7,29.97,East,96,15.0,20.0,75,0.00,,---,0.13,710.00,VWS V14.00,2013-04-30 20:41:00,
2013-04-30 16:42:00,74.2,66.2,29.97,East,94,14.0,20.0,76,0.00,,---,0.13,705.00,VWS V14.00,2013-04-30 20:42:00,
2013-04-30 16:43:00,74.2,66.2,29.97,East,90,15.0,20.0,76,0.00,,---,0.13,686.00,VWS V14.00,2013-04-30 20:43:00,
2013-04-30 16:44:00,74.3,66.2,29.97,East,93,14.0,20.0,76,0.00,,---,0.13,668.00,VWS V14.00,2013-04-30 20:44:00,
2013-04-30 16:45:00,74.4,66.7,29.97,East,87,15.0,20.0,77,0.00,,---,0.13,649.00,VWS V14.00,2013-04-30 20:45:00,
2013-04-30 16:46:00,74.4,66.3,29.97,East,89,16.0,20.0,76,0.00,,---,0.13,643.00,VWS V14.00,2013-04-30 20:46:00,
2013-04-30 16:47:00,74.4,66.0,29.97,East,81,11.0,20.0,75,0.00,,---,0.13,642.00,VWS V14.00,2013-04-30 20:47:00,
2013-04-30 16:48:00,74.4,66.3,29.97,East,92,14.0,20.0,76,0.00,,---,0.13,640.00,VWS V14.00,2013-04-30 20:48:00,
2013-04-30 16:49:00,74.5,66.4,29.97,East,97,14.0,21.0,76,0.00,,---,0.13,638.00,VWS V14.00,2013-04-30 20:49:00,
2013-04-30 16:50:00,74.5,66.1,29.97,East,89,15.0,21.0,75,0.00,,---,0.13,635.00,VWS V14.00,2013-04-30 20:50:00,
2013-04-30 16:51:00,74.4,66.0,29.97,East,96,14.0,21.0,75,0.00,,---,0.13,631.00,VWS V14.00,2013-04-30 20:51:00,
2013-04-30 16:52:00,74.4,66.3,29.96,East,87,18.0,21.0,76,0.00,,---,0.13,628.00,VWS V14.00,2013-04-30 20:52:00,
2013-04-30 16:53:00,74.4,66.0,29.97,East,97,14.0,21.0,75,0.00,,---,0.13,621.00,VWS V14.00,2013-04-30 20:53:00,
2013-04-30 16:54:00,74.4,66.0,29.97,East,84,18.0,21.0,75,0.00,,---,0.13,617.00,VWS V14.00,2013-04-30 20:54:00,
2013-04-30 16:55:00,74.4,65.6,29.97,East,89,18.0,21.0,74,0.00,,---,0.13,613.00,VWS V14.00,2013-04-30 20:55:00,
2013-04-30 16:56:00,74.5,66.1,29.97,East,95,15.0,21.0,75,0.00,,---,0.13,585.00,VWS V14.00,2013-04-30 20:56:00,
2013-04-30 16:57:00,74.5,66.1,29.97,East,91,15.0,21.0,75,0.00,,---,0.13,598.00,VWS V14.00,2013-04-30 20:57:00,
2013-04-30 16:58:00,74.6,66.2,29.97,East,83,17.0,21.0,75,0.00,,---,0.13,610.00,VWS V14.00,2013-04-30 20:58:00,
2013-04-30 16:59:00,74.6,65.8,29.97,East,91,14.0,21.0,74,0.00,,---,0.13,608.00,VWS V14.00,2013-04-30 20:59:00,
2013-04-30 17:00:00,74.6,66.2,29.97,East,86,14.0,21.0,75,0.00,,---,0.13,606.00,VWS V14.00,2013-04-30 21:00:00,
2013-04-30 17:01:00,74.6,66.9,29.97,East,84,15.0,16.0,77,0.00,,---,0.13,605.00,VWS V14.00,2013-04-30 21:01:00,
2013-04-30 17:02:00,74.6,65.8,29.97,East,81,15.0,17.0,74,0.00,,---,0.13,578.00,VWS V14.00,2013-04-30 21:02:00,
2013-04-30 17:03:00,74.6,65.8,29.97,East,94,12.0,17.0,74,0.00,,---,0.13,462.00,VWS V14.00,2013-04-30 21:03:00,
2013-04-30 17:04:00,74.6,66.2,29.97,East,100,17.0,18.0,75,0.00,,---,0.13,534.00,VWS V14.00,2013-04-30 21:04:00,
2013-04-30 17:05:00,74.5,66.1,29.97,East,99,13.0,18.0,75,0.00,,---,0.13,566.00,VWS V14.00,2013-04-30 21:05:00,
2013-04-30 17:06:00,74.5,66.4,29.97,East,99,14.0,18.0,76,0.00,,---,0.13,570.00,VWS V14.00,2013-04-30 21:06:00,
2013-04-30 17:07:00,74.4,66.3,29.97,East,101,14.0,18.0,76,0.00,,---,0.13,534.00,VWS V14.00,2013-04-30 21:07:00,
2013-04-30 17:08:00,74.3,66.6,29.97,East,100,17.0,18.0,77,0.00,,---,0.13,476.00,VWS V14.00,2013-04-30 21:08:00,
2013-04-30 17:09:00,74.1,66.1,29.97,East,95,15.0,18.0,76,0.00,,---,0.13,570.00,VWS V14.00,2013-04-30 21:09:00,
2013-04-30 17:10:00,74.0,66.3,29.97,East,88,16.0,18.0,77,0.00,,---,0.13,568.00,VWS V14.00,2013-04-30 21:10:00,
2013-04-30 17:11:00,73.9,65.9,29.97,East,97,16.0,18.0,76,0.00,,---,0.13,557.00,VWS V14.00,2013-04-30 21:11:00,
2013-04-30 17:12:00,73.9,66.2,29.97,East,97,15.0,18.0,77,0.00,,---,0.13,552.00,VWS V14.00,2013-04-30 21:12:00,
2013-04-30 17:13:00,73.8,66.2,29.97,East,98,12.0,18.0,77,0.00,,---,0.13,550.00,VWS V14.00,2013-04-30 21:13:00,
2013-04-30 17:14:00,73.8,66.2,29.97,East,99,17.0,18.0,77,0.00,,---,0.13,540.00,VWS V14.00,2013-04-30 21:14:00,
2013-04-30 17:15:00,73.8,66.2,29.97,ESE,106,16.0,19.0,77,0.00,,---,0.13,541.00,VWS V14.00,2013-04-30 21:15:00,
2013-04-30 17:16:00,73.7,65.7,29.97,East,99,14.0,19.0,76,0.00,,---,0.13,538.00,VWS V14.00,2013-04-30 21:16:00,
2013-04-30 17:17:00,73.6,65.9,29.97,East,101,14.0,19.0,77,0.00,,---,0.13,533.00,VWS V14.00,2013-04-30 21:17:00,
2013-04-30 17:18:00,73.7,66.1,29.97,ESE,106,14.0,19.0,77,0.00,,---,0.13,531.00,VWS V14.00,2013-04-30 21:18:00,
2013-04-30 17:19:00,73.7,66.1,29.97,ESE,111,15.0,19.0,77,0.00,,---,0.13,529.00,VWS V14.00,2013-04-30 21:19:00,
2013-04-30 17:20:00,73.7,65.7,29.97,East,100,14.0,19.0,76,0.00,,---,0.13,524.00,VWS V14.00,2013-04-30 21:20:00,
2013-04-30 17:21:00,73.6,65.6,29.97,East,101,17.0,19.0,76,0.00,,---,0.13,510.00,VWS V14.00,2013-04-30 21:21:00,
2013-04-30 17:22:00,73.6,65.6,29.97,East,101,15.0,19.0,76,0.00,,---,0.13,504.00,VWS V14.00,2013-04-30 21:22:00,
2013-04-30 17:23:00,73.6,65.6,29.97,East,98,17.0,19.0,76,0.00,,---,0.13,510.00,VWS V14.00,2013-04-30 21:23:00,
2013-04-30 17:24:00,73.6,65.9,29.97,East,89,16.0,19.0,77,0.00,,---,0.13,510.00,VWS V14.00,2013-04-30 21:24:00,
2013-04-30 17:25:00,73.7,65.7,29.97,East,94,18.0,20.0,76,0.00,,---,0.13,494.00,VWS V14.00,2013-04-30 21:25:00,
2013-04-30 17:26:00,73.7,65.3,29.97,East,94,19.0,21.0,75,0.00,,---,0.13,499.00,VWS V14.00,2013-04-30 21:26:00,
2013-04-30 17:27:00,73.7,65.7,29.97,East,87,16.0,21.0,76,0.00,,---,0.13,497.00,VWS V14.00,2013-04-30 21:27:00,
2013-04-30 17:28:00,73.6,65.6,29.97,East,98,14.0,21.0,76,0.00,,---,0.13,494.00,VWS V14.00,2013-04-30 21:28:00,
2013-04-30 17:29:00,73.6,65.2,29.97,East,88,15.0,21.0,75,0.00,,---,0.13,490.00,VWS V14.00,2013-04-30 21:29:00,
2013-04-30 17:30:00,73.6,65.6,29.97,East,93,16.0,21.0,76,0.00,,---,0.13,489.00,VWS V14.00,2013-04-30 21:30:00,
2013-04-30 17:31:00,73.6,65.6,29.97,East,99,15.0,17.0,76,0.00,,---,0.13,483.00,VWS V14.00,2013-04-30 21:31:00,
2013-04-30 17:32:00,73.6,65.6,29.97,East,85,14.0,17.0,76,0.00,,---,0.13,483.00,VWS V14.00,2013-04-30 21:32:00,
2013-04-30 17:33:00,73.6,65.6,29.97,East,92,18.0,18.0,76,0.00,,---,0.13,480.00,VWS V14.00,2013-04-30 21:33:00,
2013-04-30 17:34:00,73.6,65.9,29.97,East,97,13.0,18.0,77,0.00,,---,0.13,480.00,VWS V14.00,2013-04-30 21:34:00,
2013-04-30 17:35:00,73.7,65.7,29.97,East,91,16.0,18.0,76,0.00,,---,0.13,427.00,VWS V14.00,2013-04-30 21:35:00,
2013-04-30 17:36:00,73.6,65.2,29.97,East,101,13.0,18.0,75,0.00,,---,0.13,420.00,VWS V14.00,2013-04-30 21:36:00,
2013-04-30 17:37:00,73.7,65.7,29.97,East,87,17.0,20.0,76,0.00,,---,0.13,432.00,VWS V14.00,2013-04-30 21:37:00,
2013-04-30 17:38:00,73.7,65.7,29.97,East,97,16.0,20.0,76,0.00,,---,0.13,432.00,VWS V14.00,2013-04-30 21:38:00,
2013-04-30 17:39:00,73.7,65.3,29.97,East,85,14.0,20.0,75,0.00,,---,0.13,455.00,VWS V14.00,2013-04-30 21:39:00,
2013-04-30 17:40:00,73.7,65.3,29.97,East,87,13.0,20.0,75,0.00,,---,0.13,457.00,VWS V14.00,2013-04-30 21:40:00,
2013-04-30 17:41:00,73.7,65.3,29.97,East,97,15.0,20.0,75,0.00,,---,0.13,452.00,VWS V14.00,2013-04-30 21:41:00,
2013-04-30 17:42:00,73.7,65.3,29.98,East,93,17.0,20.0,75,0.00,,---,0.13,452.00,VWS V14.00,2013-04-30 21:42:00,
2013-04-30 17:43:00,73.7,65.3,29.97,ESE,110,14.0,20.0,75,0.00,,---,0.13,445.00,VWS V14.00,2013-04-30 21:43:00,
2013-04-30 17:44:00,73.7,64.9,29.97,ESE,110,18.0,20.0,74,0.00,,---,0.13,434.00,VWS V14.00,2013-04-30 21:44:00,
2013-04-30 17:45:00,73.7,64.1,29.97,East,101,15.0,20.0,72,0.00,,---,0.13,424.00,VWS V14.00,2013-04-30 21:45:00,
2013-04-30 17:46:00,73.6,64.4,29.97,East,96,14.0,20.0,73,0.00,,---,0.13,408.00,VWS V14.00,2013-04-30 21:46:00,
2013-04-30 17:47:00,73.6,64.4,29.97,East,96,13.0,20.0,73,0.00,,---,0.13,369.00,VWS V14.00,2013-04-30 21:47:00,
2013-04-30 17:48:00,73.6,64.8,29.97,East,99,14.0,20.0,74,0.00,,---,0.13,369.00,VWS V14.00,2013-04-30 21:48:00,
2013-04-30 17:49:00,73.6,64.8,29.97,East,87,15.0,20.0,74,0.00,,---,0.13,338.00,VWS V14.00,2013-04-30 21:49:00,
2013-04-30 17:50:00,73.5,64.3,29.98,ENE,77,17.0,20.0,73,0.00,,---,0.13,334.00,VWS V14.00,2013-04-30 21:50:00,
2013-04-30 17:51:00,73.5,64.3,29.98,East,93,14.0,20.0,73,0.00,,---,0.13,339.00,VWS V14.00,2013-04-30 21:51:00,
2013-04-30 17:52:00,73.5,64.7,29.98,East,93,16.0,20.0,74,0.00,,---,0.13,353.00,VWS V14.00,2013-04-30 21:52:00,
2013-04-30 17:53:00,73.5,64.3,29.98,East,87,14.0,20.0,73,0.00,,---,0.13,359.00,VWS V14.00,2013-04-30 21:53:00,
2013-04-30 17:54:00,73.5,64.3,29.98,East,90,15.0,20.0,73,0.00,,---,0.13,357.00,VWS V14.00,2013-04-30 21:54:00,
2013-04-30 17:55:00,73.5,64.3,29.98,East,91,18.0,20.0,73,0.00,,---,0.13,343.00,VWS V14.00,2013-04-30 21:55:00,
2013-04-30 17:56:00,73.5,64.7,29.98,East,83,19.0,20.0,74,0.00,,---,0.13,371.00,VWS V14.00,2013-04-30 21:56:00,
2013-04-30 17:57:00,73.5,64.3,29.98,East,79,12.0,20.0,73,0.00,,---,0.13,387.00,VWS V14.00,2013-04-30 21:57:00,
2013-04-30 17:58:00,73.7,64.9,29.98,East,85,17.0,20.0,74,0.00,,---,0.13,355.00,VWS V14.00,2013-04-30 21:58:00,
2013-04-30 17:59:00,73.7,64.5,29.98,East,95,13.0,20.0,73,0.00,,---,0.13,362.00,VWS V14.00,2013-04-30 21:59:00,
2013-04-30 18:00:00,73.6,64.8,29.98,East,96,18.0,20.0,74,0.00,,---,0.13,338.00,VWS V14.00,2013-04-30 22:00:00,
2013-04-30 18:01:00,73.6,64.4,29.98,East,93,17.0,17.0,73,0.00,,---,0.13,378.00,VWS V14.00,2013-04-30 22:01:00,
2013-04-30 18:02:00,73.6,64.8,29.98,East,93,18.0,18.0,74,0.00,,---,0.13,385.00,VWS V14.00,2013-04-30 22:02:00,
2013-04-30 18:03:00,73.5,64.7,29.98,ESE,105,15.0,18.0,74,0.00,,---,0.13,381.00,VWS V14.00,2013-04-30 22:03:00,
2013-04-30 18:04:00,73.5,64.3,29.98,ESE,104,13.0,18.0,73,0.00,,---,0.13,373.00,VWS V14.00,2013-04-30 22:04:00,
2013-04-30 18:05:00,73.5,64.7,29.99,East,89,16.0,18.0,74,0.00,,---,0.13,355.00,VWS V14.00,2013-04-30 22:05:00,
2013-04-30 18:06:00,73.4,64.2,29.99,East,93,16.0,20.0,73,0.00,,---,0.13,352.00,VWS V14.00,2013-04-30 22:06:00,
2013-04-30 18:07:00,73.4,64.2,29.98,East,101,16.0,20.0,73,0.00,,---,0.13,352.00,VWS V14.00,2013-04-30 22:07:00,
2013-04-30 18:08:00,73.4,64.2,29.98,East,89,17.0,20.0,73,0.00,,---,0.13,350.00,VWS V14.00,2013-04-30 22:08:00,
2013-04-30 18:09:00,73.3,64.1,29.98,East,91,15.0,20.0,73,0.00,,---,0.13,353.00,VWS V14.00,2013-04-30 22:09:00,
2013-04-30 18:10:00,73.3,64.1,29.98,East,93,16.0,20.0,73,0.00,,---,0.13,341.00,VWS V14.00,2013-04-30 22:10:00,
2013-04-30 18:11:00,73.2,64.4,29.98,East,99,15.0,20.0,74,0.00,,---,0.13,306.00,VWS V14.00,2013-04-30 22:11:00,
2013-04-30 18:12:00,73.2,64.4,29.98,East,94,16.0,20.0,74,0.00,,---,0.13,318.00,VWS V14.00,2013-04-30 22:12:00,
2013-04-30 18:13:00,73.1,63.9,29.98,East,89,14.0,20.0,73,0.00,,---,0.13,274.00,VWS V14.00,2013-04-30 22:13:00,
2013-04-30 18:14:00,73.1,63.9,29.98,East,91,13.0,20.0,73,0.00,,---,0.13,260.00,VWS V14.00,2013-04-30 22:14:00,
2013-04-30 18:15:00,73.2,64.8,29.98,East,93,11.0,20.0,75,0.00,,---,0.13,251.00,VWS V14.00,2013-04-30 22:15:00,
2013-04-30 18:16:00,73.3,65.3,29.98,East,90,17.0,20.0,76,0.00,,---,0.13,260.00,VWS V14.00,2013-04-30 22:16:00,
2013-04-30 18:17:00,73.2,64.0,29.98,East,91,15.0,20.0,73,0.00,,---,0.13,262.00,VWS V14.00,2013-04-30 22:17:00,
2013-04-30 18:18:00,73.1,64.3,29.98,East,90,16.0,20.0,74,0.00,,---,0.13,250.00,VWS V14.00,2013-04-30 22:18:00,
2013-04-30 18:19:00,73.2,64.8,29.98,East,98,17.0,20.0,75,0.00,,---,0.13,281.00,VWS V14.00,2013-04-30 22:19:00,
2013-04-30 18:20:00,73.1,64.3,29.98,East,92,14.0,20.0,74,0.00,,---,0.13,285.00,VWS V14.00,2013-04-30 22:20:00,
2013-04-30 18:21:00,73.1,64.7,29.99,East,87,14.0,20.0,75,0.00,,---,0.13,269.00,VWS V14.00,2013-04-30 22:21:00,
2013-04-30 18:22:00,73.1,64.7,29.99,East,87,13.0,20.0,75,0.00,,---,0.13,272.00,VWS V14.00,2013-04-30 22:22:00,
2013-04-30 18:23:00,73.1,63.9,29.98,East,91,15.0,20.0,73,0.00,,---,0.13,244.00,VWS V14.00,2013-04-30 22:23:00,
2013-04-30 18:24:00,73.1,64.7,29.99,East,100,14.0,20.0,75,0.00,,---,0.13,229.00,VWS V14.00,2013-04-30 22:24:00,
2013-04-30 18:25:00,73.1,64.3,29.99,East,84,16.0,20.0,74,0.00,,---,0.13,216.00,VWS V14.00,2013-04-30 22:25:00,
2013-04-30 18:26:00,73.1,63.9,29.99,East,84,16.0,20.0,73,0.00,,---,0.13,206.00,VWS V14.00,2013-04-30 22:26:00,
2013-04-30 18:27:00,73.0,63.8,29.98,East,89,15.0,20.0,73,0.00,,---,0.13,211.00,VWS V14.00,2013-04-30 22:27:00,
2013-04-30 18:28:00,73.0,63.0,29.99,East,88,16.0,20.0,71,0.00,,---,0.13,206.00,VWS V14.00,2013-04-30 22:28:00,
2013-04-30 18:29:00,72.9,63.3,29.99,East,95,13.0,20.0,72,0.00,,---,0.13,209.00,VWS V14.00,2013-04-30 22:29:00,
2013-04-30 18:30:00,72.9,64.1,29.99,East,93,16.0,20.0,74,0.00,,---,0.13,204.00,VWS V14.00,2013-04-30 22:30:00,
2013-04-30 18:31:00,72.9,63.8,29.99,East,95,18.0,18.0,73,0.00,,---,0.13,176.00,VWS V14.00,2013-04-30 22:31:00,
2013-04-30 18:32:00,72.8,63.3,29.99,East,101,15.0,18.0,72,0.00,,---,0.13,171.00,VWS V14.00,2013-04-30 22:32:00,
2013-04-30 18:33:00,72.9,63.3,29.99,East,87,12.0,18.0,72,0.00,,---,0.13,156.00,VWS V14.00,2013-04-30 22:33:00,
2013-04-30 18:34:00,72.9,63.3,29.99,ENE,75,15.0,20.0,72,0.00,,---,0.13,135.00,VWS V14.00,2013-04-30 22:34:00,
2013-04-30 18:35:00,72.8,63.3,29.99,East,83,17.0,20.0,72,0.00,,---,0.13,134.00,VWS V14.00,2013-04-30 22:35:00,
2013-04-30 18:36:00,72.7,63.2,29.99,ENE,75,16.0,20.0,72,0.00,,---,0.13,123.00,VWS V14.00,2013-04-30 22:36:00,
2013-04-30 18:37:00,72.7,62.8,29.99,East,85,13.0,20.0,71,0.00,,---,0.13,121.00,VWS V14.00,2013-04-30 22:37:00,
2013-04-30 18:38:00,72.7,63.5,29.99,East,85,15.0,20.0,73,0.00,,---,0.13,125.00,VWS V14.00,2013-04-30 22:38:00,
2013-04-30 18:39:00,72.7,63.5,29.99,East,87,17.0,20.0,73,0.00,,---,0.13,123.00,VWS V14.00,2013-04-30 22:39:00,
2013-04-30 18:40:00,72.6,63.5,29.99,East,87,16.0,20.0,73,0.00,,---,0.13,118.00,VWS V14.00,2013-04-30 22:40:00,
2013-04-30 18:41:00,72.6,63.5,29.99,East,85,16.0,20.0,73,0.00,,---,0.13,116.00,VWS V14.00,2013-04-30 22:41:00,
2013-04-30 18:42:00,72.6,63.5,29.99,East,80,15.0,20.0,73,0.00,,---,0.13,128.00,VWS V14.00,2013-04-30 22:42:00,
2013-04-30 18:43:00,72.7,63.9,29.99,East,84,14.0,20.0,74,0.00,,---,0.13,130.00,VWS V14.00,2013-04-30 22:43:00,
2013-04-30 18:44:00,72.6,63.5,29.99,East,99,14.0,20.0,73,0.00,,---,0.13,127.00,VWS V14.00,2013-04-30 22:44:00,
2013-04-30 18:45:00,72.6,63.5,29.99,East,79,15.0,20.0,73,0.00,,---,0.13,127.00,VWS V14.00,2013-04-30 22:45:00,
2013-04-30 18:46:00,72.6,63.5,29.99,ENE,74,13.0,20.0,73,0.00,,---,0.13,132.00,VWS V14.00,2013-04-30 22:46:00,
2013-04-30 18:47:00,72.6,64.6,29.99,East,97,10.0,20.0,76,0.00,,---,0.13,132.00,VWS V14.00,2013-04-30 22:47:00,
2013-04-30 18:48:00,72.6,63.8,29.99,ENE,74,15.0,20.0,74,0.00,,---,0.13,137.00,VWS V14.00,2013-04-30 22:48:00,
2013-04-30 18:49:00,72.6,63.8,29.99,East,85,14.0,20.0,74,0.00,,---,0.13,139.00,VWS V14.00,2013-04-30 22:49:00,
2013-04-30 18:50:00,72.6,64.2,29.98,East,88,12.0,20.0,75,0.00,,---,0.13,120.00,VWS V14.00,2013-04-30 22:50:00,
2013-04-30 18:51:00,72.6,64.2,29.98,East,91,12.0,20.0,75,0.00,,---,0.13,139.00,VWS V14.00,2013-04-30 22:51:00,
2013-04-30 18:52:00,72.6,63.8,29.98,ENE,78,14.0,20.0,74,0.00,,---,0.13,139.00,VWS V14.00,2013-04-30 22:52:00,
2013-04-30 18:53:00,72.6,63.8,29.98,East,89,10.0,20.0,74,0.00,,---,0.13,132.00,VWS V14.00,2013-04-30 22:53:00,
2013-04-30 18:54:00,72.6,63.8,29.98,ENE,72,10.0,20.0,74,0.00,,---,0.13,128.00,VWS V14.00,2013-04-30 22:54:00,
2013-04-30 18:55:00,72.6,63.8,29.98,ENE,71,13.0,20.0,74,0.00,,---,0.13,118.00,VWS V14.00,2013-04-30 22:55:00,
2013-04-30 18:56:00,72.5,63.4,29.98,East,81,14.0,20.0,73,0.00,,---,0.13,111.00,VWS V14.00,2013-04-30 22:56:00,
2013-04-30 18:57:00,72.4,63.7,29.98,East,80,14.0,20.0,74,0.00,,---,0.13,100.00,VWS V14.00,2013-04-30 22:57:00,
2013-04-30 18:58:00,72.4,63.3,29.98,ENE,70,13.0,20.0,73,0.00,,---,0.13,95.00,VWS V14.00,2013-04-30 22:58:00,
2013-04-30 18:59:00,72.4,63.7,29.99,ENE,73,11.0,20.0,74,0.00,,---,0.13,95.00,VWS V14.00,2013-04-30 22:59:00,
2013-04-30 19:00:00,72.4,64.0,29.98,ENE,77,11.0,20.0,75,0.00,,---,0.13,84.00,VWS V14.00,2013-04-30 23:00:00,
2013-04-30 19:01:00,72.4,64.4,29.98,East,87,17.0,18.0,76,0.00,,---,0.13,79.00,VWS V14.00,2013-04-30 23:01:00,
2013-04-30 19:02:00,72.3,63.6,29.98,East,90,17.0,19.0,74,0.00,,---,0.13,77.00,VWS V14.00,2013-04-30 23:02:00,
2013-04-30 19:03:00,72.2,63.8,29.98,East,85,16.0,19.0,75,0.00,,---,0.13,76.00,VWS V14.00,2013-04-30 23:03:00,
2013-04-30 19:04:00,72.2,63.8,29.99,East,93,17.0,19.0,75,0.00,,---,0.13,70.00,VWS V14.00,2013-04-30 23:04:00,
2013-04-30 19:05:00,72.1,63.4,29.99,East,94,15.0,19.0,74,0.00,,---,0.13,69.00,VWS V14.00,2013-04-30 23:05:00,
2013-04-30 19:06:00,72.1,63.8,29.99,East,93,17.0,19.0,75,0.00,,---,0.13,69.00,VWS V14.00,2013-04-30 23:06:00,
2013-04-30 19:07:00,72.1,63.8,29.99,East,95,18.0,19.0,75,0.00,,---,0.13,67.00,VWS V14.00,2013-04-30 23:07:00,
2013-04-30 19:08:00,72.1,64.1,29.99,ESE,105,15.0,19.0,76,0.00,,---,0.13,70.00,VWS V14.00,2013-04-30 23:08:00,
2013-04-30 19:09:00,72.1,64.1,29.99,East,99,17.0,19.0,76,0.00,,---,0.13,76.00,VWS V14.00,2013-04-30 23:09:00,
2013-04-30 19:10:00,72.1,64.1,29.99,East,90,17.0,19.0,76,0.00,,---,0.13,74.00,VWS V14.00,2013-04-30 23:10:00,
2013-04-30 19:11:00,72.0,64.0,29.99,East,98,20.0,20.0,76,0.00,,---,0.13,70.00,VWS V14.00,2013-04-30 23:11:00,
2013-04-30 19:12:00,72.0,64.0,29.99,East,95,14.0,20.0,76,0.00,,---,0.13,69.00,VWS V14.00,2013-04-30 23:12:00,
2013-04-30 19:13:00,72.0,64.0,29.99,East,83,13.0,20.0,76,0.00,,---,0.13,65.00,VWS V14.00,2013-04-30 23:13:00,
2013-04-30 19:14:00,72.0,64.0,29.99,ENE,76,17.0,20.0,76,0.00,,---,0.13,60.00,VWS V14.00,2013-04-30 23:14:00,
2013-04-30 19:15:00,72.0,64.4,29.99,ENE,77,11.0,20.0,77,0.00,,---,0.13,58.00,VWS V14.00,2013-04-30 23:15:00,
2013-04-30 19:16:00,72.0,64.0,29.99,East,95,17.0,20.0,76,0.00,,---,0.13,54.00,VWS V14.00,2013-04-30 23:16:00,
2013-04-30 19:17:00,72.0,64.0,29.99,East,89,16.0,20.0,76,0.00,,---,0.13,53.00,VWS V14.00,2013-04-30 23:17:00,
2013-04-30 19:18:00,71.9,63.9,29.99,East,91,12.0,20.0,76,0.00,,---,0.13,49.00,VWS V14.00,2013-04-30 23:18:00,
2013-04-30 19:19:00,72.0,64.4,29.99,ENE,74,14.0,20.0,77,0.00,,---,0.13,47.00,VWS V14.00,2013-04-30 23:19:00,
2013-04-30 19:20:00,72.0,64.0,30.00,East,92,14.0,20.0,76,0.00,,---,0.13,44.00,VWS V14.00,2013-04-30 23:20:00,
2013-04-30 19:21:00,72.0,64.4,30.00,East,87,17.0,20.0,77,0.00,,---,0.13,44.00,VWS V14.00,2013-04-30 23:21:00,
2013-04-30 19:22:00,72.1,64.5,30.00,ENE,65,16.0,20.0,77,0.00,,---,0.13,42.00,VWS V14.00,2013-04-30 23:22:00,
2013-04-30 19:23:00,72.1,64.5,30.00,East,89,18.0,20.0,77,0.00,,---,0.13,47.00,VWS V14.00,2013-04-30 23:23:00,
2013-04-30 19:24:00,72.0,64.0,30.00,East,97,15.0,20.0,76,0.00,,---,0.13,44.00,VWS V14.00,2013-04-30 23:24:00,
2013-04-30 19:25:00,72.0,64.0,30.00,East,92,17.0,20.0,76,0.00,,---,0.13,40.00,VWS V14.00,2013-04-30 23:25:00,
2013-04-30 19:26:00,71.9,64.3,30.00,East,97,17.0,20.0,77,0.00,,---,0.13,37.00,VWS V14.00,2013-04-30 23:26:00,
2013-04-30 19:27:00,71.8,63.1,30.00,East,83,14.0,20.0,74,0.00,,---,0.13,33.00,VWS V14.00,2013-04-30 23:27:00,
2013-04-30 19:28:00,71.8,64.2,30.00,ENE,76,12.0,20.0,77,0.00,,---,0.13,30.00,VWS V14.00,2013-04-30 23:28:00,
2013-04-30 19:29:00,71.9,64.3,30.00,East,80,14.0,20.0,77,0.00,,---,0.13,28.00,VWS V14.00,2013-04-30 23:29:00,
2013-04-30 19:30:00,71.9,64.3,30.00,East,91,13.0,20.0,77,0.00,,---,0.13,25.00,VWS V14.00,2013-04-30 23:30:00,
2013-04-30 19:31:00,71.9,64.3,30.00,East,83,16.0,18.0,77,0.00,,---,0.13,23.00,VWS V14.00,2013-04-30 23:31:00,
2013-04-30 19:32:00,71.9,63.9,30.00,East,91,13.0,18.0,76,0.00,,---,0.13,21.00,VWS V14.00,2013-04-30 23:32:00,
2013-04-30 19:33:00,71.8,63.5,30.00,East,88,11.0,18.0,75,0.00,,---,0.13,21.00,VWS V14.00,2013-04-30 23:33:00,
2013-04-30 19:34:00,71.8,63.8,30.00,East,82,16.0,18.0,76,0.00,,---,0.13,19.00,VWS V14.00,2013-04-30 23:34:00,
2013-04-30 19:35:00,71.8,63.8,30.00,East,85,12.0,18.0,76,0.00,,---,0.13,18.00,VWS V14.00,2013-04-30 23:35:00,
2013-04-30 19:36:00,71.8,64.2,30.00,East,93,18.0,18.0,77,0.00,,---,0.13,16.00,VWS V14.00,2013-04-30 23:36:00,
2013-04-30 19:37:00,71.7,63.4,30.00,East,97,12.0,18.0,75,0.00,,---,0.13,14.00,VWS V14.00,2013-04-30 23:37:00,
2013-04-30 19:38:00,71.7,63.4,30.01,East,94,17.0,19.0,75,0.00,,---,0.13,14.00,VWS V14.00,2013-04-30 23:38:00,
2013-04-30 19:39:00,71.6,62.9,30.01,East,85,17.0,19.0,74,0.00,,---,0.13,12.00,VWS V14.00,2013-04-30 23:39:00,
2013-04-30 19:40:00,71.6,63.3,30.01,East,86,12.0,19.0,75,0.00,,---,0.13,11.00,VWS V14.00,2013-04-30 23:40:00,
2013-04-30 19:41:00,71.6,63.3,30.01,ENE,74,15.0,19.0,75,0.00,,---,0.13,11.00,VWS V14.00,2013-04-30 23:41:00,
2013-04-30 19:42:00,71.6,63.6,30.01,East,87,15.0,19.0,76,0.00,,---,0.14,9.00,VWS V14.00,2013-04-30 23:42:00,
2013-04-30 19:43:00,71.5,63.2,30.01,East,79,14.0,19.0,75,0.00,,---,0.14,9.00,VWS V14.00,2013-04-30 23:43:00,
2013-04-30 19:44:00,71.5,63.2,30.01,East,91,15.0,19.0,75,0.00,,---,0.14,9.00,VWS V14.00,2013-04-30 23:44:00,
2013-04-30 19:45:00,71.4,63.5,30.01,East,94,13.0,19.0,76,0.00,,---,0.14,9.00,VWS V14.00,2013-04-30 23:45:00,
2013-04-30 19:46:00,71.5,63.9,30.01,East,81,16.0,19.0,77,0.00,,---,0.14,7.00,VWS V14.00,2013-04-30 23:46:00,
2013-04-30 19:47:00,71.5,63.5,30.01,East,85,14.0,19.0,76,0.00,,---,0.14,5.00,VWS V14.00,2013-04-30 23:47:00,
2013-04-30 19:48:00,71.5,63.9,30.01,East,87,14.0,19.0,77,0.00,,---,0.14,5.00,VWS V14.00,2013-04-30 23:48:00,
2013-04-30 19:49:00,71.5,63.2,30.01,East,85,13.0,19.0,75,0.00,,---,0.14,0.00,VWS V14.00,2013-04-30 23:49:00,
2013-04-30 19:50:00,71.5,63.5,30.01,East,92,12.0,19.0,76,0.00,,---,0.14,0.00,VWS V14.00,2013-04-30 23:50:00,
2013-04-30 19:51:00,71.5,63.2,30.01,East,101,12.0,19.0,75,0.00,,---,0.14,0.00,VWS V14.00,2013-04-30 23:51:00,
2013-04-30 19:52:00,71.5,63.9,30.01,ESE,104,14.0,19.0,77,0.00,,---,0.14,0.00,VWS V14.00,2013-04-30 23:52:00,
2013-04-30 19:53:00,71.5,63.5,30.02,ESE,102,12.0,19.0,76,0.00,,---,0.14,0.00,VWS V14.00,2013-04-30 23:53:00,
2013-04-30 19:54:00,71.5,63.5,30.01,ESE,108,11.0,19.0,76,0.00,,---,0.14,0.00,VWS V14.00,2013-04-30 23:54:00,
2013-04-30 19:55:00,71.4,63.5,30.01,ESE,107,11.0,19.0,76,0.00,,---,0.14,0.00,VWS V14.00,2013-04-30 23:55:00,
2013-04-30 19:56:00,71.4,62.7,30.01,East,96,16.0,19.0,74,0.00,,---,0.14,0.00,VWS V14.00,2013-04-30 23:56:00,
2013-04-30 19:57:00,71.3,63.0,30.02,ESE,107,15.0,19.0,75,0.00,,---,0.14,0.00,VWS V14.00,2013-04-30 23:57:00,
2013-04-30 19:58:00,71.3,63.3,30.01,ESE,104,13.0,19.0,76,0.00,,---,0.14,0.00,VWS V14.00,2013-04-30 23:58:00,
2013-04-30 19:59:00,71.3,63.3,30.01,East,98,15.0,19.0,76,0.00,,---,0.14,0.00,VWS V14.00,2013-04-30 23:59:00,
2013-04-30 20:00:00,71.3,63.0,30.01,East,101,16.0,19.0,75,0.00,,---,0.14,0.00,VWS V14.00,2013-05-01 00:00:00,
2013-04-30 20:01:00,71.3,63.3,30.02,ESE,108,15.0,19.0,76,0.00,,---,0.14,0.00,VWS V14.00,2013-05-01 00:01:00,
2013-04-30 20:02:00,71.3,63.0,30.01,East,83,16.0,19.0,75,0.00,,---,0.14,0.00,VWS V14.00,2013-05-01 00:02:00,
2013-04-30 20:03:00,71.3,63.0,30.01,East,83,15.0,19.0,75,0.00,,---,0.14,0.00,VWS V14.00,2013-05-01 00:03:00,
2013-04-30 20:04:00,71.3,63.3,30.01,East,87,14.0,19.0,76,0.00,,---,0.14,0.00,VWS V14.00,2013-05-01 00:04:00,
2013-04-30 20:05:00,71.3,63.7,30.01,East,98,13.0,19.0,77,0.00,,---,0.14,0.00,VWS V14.00,2013-05-01 00:05:00,
2013-04-30 20:06:00,71.4,63.8,30.01,East,92,15.0,19.0,77,0.00,,---,0.14,0.00,VWS V14.00,2013-05-01 00:06:00,
2013-04-30 20:07:00,71.4,63.8,30.01,ENE,77,14.0,19.0,77,0.00,,---,0.14,0.00,VWS V14.00,2013-05-01 00:07:00,
2013-04-30 20:08:00,71.5,64.3,30.01,East,94,12.0,19.0,78,0.00,,---,0.14,0.00,VWS V14.00,2013-05-01 00:08:00,
2013-04-30 20:09:00,71.5,63.9,30.01,East,91,12.0,19.0,77,0.00,,---,0.14,0.00,VWS V14.00,2013-05-01 00:09:00,
2013-04-30 20:10:00,71.5,63.9,30.01,East,95,15.0,19.0,77,0.00,,---,0.14,0.00,VWS V14.00,2013-05-01 00:10:00,
2013-04-30 20:11:00,71.5,63.9,30.01,East,99,12.0,19.0,77,0.00,,---,0.14,0.00,VWS V14.00,2013-05-01 00:11:00,
2013-04-30 20:12:00,71.5,63.9,30.02,ESE,105,11.0,19.0,77,0.00,,---,0.14,0.00,VWS V14.00,2013-05-01 00:12:00,
2013-04-30 20:13:00,71.6,64.0,30.01,East,99,15.0,19.0,77,0.00,,---,0.14,0.00,VWS V14.00,2013-05-01 00:13:00,
2013-04-30 20:14:00,71.5,63.9,30.02,ESE,110,9.0,19.0,77,0.00,,---,0.14,0.00,VWS V14.00,2013-05-01 00:14:00,
2013-04-30 20:15:00,71.5,63.5,30.02,East,92,11.0,19.0,76,0.00,,---,0.14,0.00,VWS V14.00,2013-05-01 00:15:00,
2013-04-30 20:16:00,71.5,63.5,30.02,East,87,11.0,19.0,76,0.00,,---,0.14,0.00,VWS V14.00,2013-05-01 00:16:00,
2013-04-30 20:17:00,71.5,63.2,30.02,East,96,12.0,19.0,75,0.00,,---,0.14,0.00,VWS V14.00,2013-05-01 00:17:00,
2013-04-30 20:18:00,71.5,63.9,30.02,East,99,12.0,19.0,77,0.00,,---,0.14,0.00,VWS V14.00,2013-05-01 00:18:00,
2013-04-30 20:19:00,71.5,63.5,30.02,ESE,105,13.0,19.0,76,0.00,,---,0.14,0.00,VWS V14.00,2013-05-01 00:19:00,
2013-04-30 20:20:00,71.5,63.2,30.02,East,96,16.0,19.0,75,0.00,,---,0.14,0.00,VWS V14.00,2013-05-01 00:20:00,
2013-04-30 20:21:00,71.5,63.2,30.02,East,98,12.0,19.0,75,0.00,,---,0.14,0.00,VWS V14.00,2013-05-01 00:21:00,
2013-04-30 20:22:00,71.5,63.2,30.02,East,90,17.0,19.0,75,0.00,,---,0.14,0.00,VWS V14.00,2013-05-01 00:22:00,
2013-04-30 20:23:00,71.4,62.7,30.02,East,96,16.0,19.0,74,0.00,,---,0.14,0.00,VWS V14.00,2013-05-01 00:23:00,
2013-04-30 20:24:00,71.4,62.7,30.02,East,89,10.0,19.0,74,0.00,,---,0.14,0.00,VWS V14.00,2013-05-01 00:24:00,
2013-04-30 20:25:00,71.4,63.1,30.02,East,89,15.0,19.0,75,0.00,,---,0.14,0.00,VWS V14.00,2013-05-01 00:25:00,
2013-04-30 20:26:00,71.4,62.7,30.02,East,97,11.0,19.0,74,0.00,,---,0.14,0.00,VWS V14.00,2013-05-01 00:26:00,
2013-04-30 20:27:00,71.4,63.5,30.02,ESE,112,9.0,19.0,76,0.00,,---,0.14,0.00,VWS V14.00,2013-05-01 00:27:00,
2013-04-30 20:28:00,71.4,63.5,30.02,ENE,78,13.0,19.0,76,0.00,,---,0.14,0.00,VWS V14.00,2013-05-01 00:28:00,
2013-04-30 20:29:00,71.3,63.7,30.02,ESE,118,9.0,19.0,77,0.00,,---,0.14,0.00,VWS V14.00,2013-05-01 00:29:00,
2013-04-30 20:30:00,71.3,63.7,30.02,East,79,14.0,19.0,77,0.00,,---,0.14,0.00,VWS V14.00,2013-05-01 00:30:00,
2013-04-30 20:31:00,71.3,63.7,30.02,East,89,10.0,16.0,77,0.00,,---,0.14,0.00,VWS V14.00,2013-05-01 00:31:00,
2013-04-30 20:32:00,71.4,64.2,30.02,East,90,12.0,16.0,78,0.00,,---,0.14,0.00,VWS V14.00,2013-05-01 00:32:00,
2013-04-30 20:33:00,71.4,63.8,30.02,East,84,11.0,16.0,77,0.00,,---,0.14,0.00,VWS V14.00,2013-05-01 00:33:00,
2013-04-30 20:34:00,71.5,64.3,30.02,East,89,10.0,16.0,78,0.00,,---,0.14,0.00,VWS V14.00,2013-05-01 00:34:00,
2013-04-30 20:35:00,71.5,64.3,30.02,East,89,14.0,16.0,78,0.00,,---,0.14,0.00,VWS V14.00,2013-05-01 00:35:00,
2013-04-30 20:36:00,71.4,63.5,30.02,East,79,13.0,16.0,76,0.00,,---,0.14,0.00,VWS V14.00,2013-05-01 00:36:00,
2013-04-30 20:37:00,71.3,63.3,30.02,ENE,77,15.0,16.0,76,0.00,,---,0.14,0.00,VWS V14.00,2013-05-01 00:37:00,
2013-04-30 20:38:00,71.3,63.0,30.02,East,88,13.0,16.0,75,0.00,,---,0.14,0.00,VWS V14.00,2013-05-01 00:38:00,
2013-04-30 20:39:00,71.3,63.3,30.02,East,84,10.0,16.0,76,0.00,,---,0.14,0.00,VWS V14.00,2013-05-01 00:39:00,
2013-04-30 20:40:00,71.3,63.3,30.02,East,82,12.0,16.0,76,0.00,,---,0.14,0.00,VWS V14.00,2013-05-01 00:40:00,
2013-04-30 20:41:00,71.3,63.3,30.02,East,81,10.0,16.0,76,0.00,,---,0.14,0.00,VWS V14.00,2013-05-01 00:41:00,
2013-04-30 20:42:00,71.3,63.3,30.02,East,81,14.0,16.0,76,0.00,,---,0.14,0.00,VWS V14.00,2013-05-01 00:42:00,
2013-04-30 20:43:00,71.3,63.3,30.02,East,81,12.0,16.0,76,0.00,,---,0.14,0.00,VWS V14.00,2013-05-01 00:43:00,
2013-04-30 20:44:00,71.3,63.3,30.02,East,83,9.0,16.0,76,0.00,,---,0.14,0.00,VWS V14.00,2013-05-01 00:44:00,
2013-04-30 20:45:00,71.3,63.0,30.02,East,80,10.0,16.0,75,0.00,,---,0.14,0.00,VWS V14.00,2013-05-01 00:45:00,
2013-04-30 20:46:00,71.3,63.7,30.02,East,84,12.0,16.0,77,0.00,,---,0.14,0.00,VWS V14.00,2013-05-01 00:46:00,
2013-04-30 20:47:00,71.3,63.3,30.02,East,97,10.0,16.0,76,0.00,,---,0.14,0.00,VWS V14.00,2013-05-01 00:47:00,
2013-04-30 20:48:00,71.3,63.7,30.02,ESE,108,5.0,16.0,77,0.00,,---,0.14,0.00,VWS V14.00,2013-05-01 00:48:00,
2013-04-30 20:49:00,71.3,64.1,30.03,East,99,8.0,16.0,78,0.00,,---,0.14,0.00,VWS V14.00,2013-05-01 00:49:00,
2013-04-30 20:50:00,71.2,64.0,30.02,East,96,8.0,16.0,78,0.00,,---,0.14,0.00,VWS V14.00,2013-05-01 00:50:00,
2013-04-30 20:51:00,71.2,64.0,30.03,ESE,106,6.0,16.0,78,0.00,,---,0.14,0.00,VWS V14.00,2013-05-01 00:51:00,
2013-04-30 20:52:00,71.1,63.9,30.03,ESE,120,7.0,16.0,78,0.00,,---,0.14,0.00,VWS V14.00,2013-05-01 00:52:00,
2013-04-30 20:53:00,71.1,64.3,30.02,East,100,7.0,16.0,79,0.00,,---,0.14,0.00,VWS V14.00,2013-05-01 00:53:00,
2013-04-30 20:54:00,71.1,64.3,30.02,ESE,106,4.0,16.0,79,0.00,,---,0.14,0.00,VWS V14.00,2013-05-01 00:54:00,
2013-04-30 20:55:00,71.0,64.2,30.03,ESE,112,6.0,16.0,79,0.00,,---,0.14,0.00,VWS V14.00,2013-05-01 00:55:00,
2013-04-30 20:56:00,71.0,64.2,30.03,ESE,105,6.0,16.0,79,0.00,,---,0.14,0.00,VWS V14.00,2013-05-01 00:56:00,
2013-04-30 20:57:00,70.9,64.1,30.03,ESE,118,6.0,16.0,79,0.00,,---,0.14,0.00,VWS V14.00,2013-05-01 00:57:00,
2013-04-30 20:58:00,70.9,64.1,30.03,ESE,110,5.0,16.0,79,0.00,,---,0.14,0.00,VWS V14.00,2013-05-01 00:58:00,
2013-04-30 20:59:00,70.9,64.4,30.03,ESE,110,6.0,16.0,80,0.00,,---,0.14,0.00,VWS V14.00,2013-05-01 00:59:00,
2013-04-30 21:00:00,70.8,64.3,30.03,East,98,7.0,16.0,80,0.00,,---,0.14,0.00,VWS V14.00,2013-05-01 01:00:00,
2013-04-30 21:01:00,70.8,64.0,30.03,ESE,105,6.0,8.0,79,0.00,,---,0.14,0.00,VWS V14.00,2013-05-01 01:01:00,
2013-04-30 21:02:00,70.8,64.3,30.03,ESE,105,5.0,8.0,80,0.00,,---,0.14,0.00,VWS V14.00,2013-05-01 01:02:00,
2013-04-30 21:03:00,70.8,64.3,30.03,East,97,6.0,8.0,80,0.00,,---,0.14,0.00,VWS V14.00,2013-05-01 01:03:00,
2013-04-30 21:04:00,70.8,64.3,30.03,ESE,122,6.0,8.0,80,0.00,,---,0.14,0.00,VWS V14.00,2013-05-01 01:04:00,
2013-04-30 21:05:00,70.7,64.2,30.03,ESE,120,5.0,8.0,80,0.00,,---,0.14,0.00,VWS V14.00,2013-05-01 01:05:00,
2013-04-30 21:06:00,70.6,63.8,30.03,SE,129,6.0,8.0,79,0.00,,---,0.14,0.00,VWS V14.00,2013-05-01 01:06:00,
2013-04-30 21:07:00,70.5,63.7,30.03,ESE,120,8.0,8.0,79,0.00,,---,0.14,0.00,VWS V14.00,2013-05-01 01:07:00,
2013-04-30 21:08:00,70.5,64.0,30.04,SE,131,6.0,8.0,80,0.00,,---,0.14,0.00,VWS V14.00,2013-05-01 01:08:00,
2013-04-30 21:09:00,70.4,63.6,30.03,SE,141,8.0,8.0,79,0.00,,---,0.14,0.00,VWS V14.00,2013-05-01 01:09:00,
2013-04-30 21:10:00,70.4,63.6,30.04,SE,130,6.0,8.0,79,0.00,,---,0.14,0.00,VWS V14.00,2013-05-01 01:10:00,
2013-04-30 21:11:00,70.3,63.5,30.04,SE,140,6.0,8.0,79,0.00,,---,0.14,0.00,VWS V14.00,2013-05-01 01:11:00,
2013-04-30 21:12:00,70.2,63.4,30.04,SE,135,4.0,8.0,79,0.00,,---,0.14,0.00,VWS V14.00,2013-05-01 01:12:00,
2013-04-30 21:13:00,70.2,63.4,30.04,SE,124,5.0,8.0,79,0.00,,---,0.14,0.00,VWS V14.00,2013-05-01 01:13:00,
2013-04-30 21:14:00,70.1,63.7,30.04,SE,136,6.0,8.0,80,0.00,,---,0.14,0.00,VWS V14.00,2013-05-01 01:14:00,
2013-04-30 21:15:00,70.1,63.7,30.04,SE,126,6.0,8.0,80,0.00,,---,0.14,0.00,VWS V14.00,2013-05-01 01:15:00,
2013-04-30 21:16:00,70.1,63.7,30.04,ESE,117,9.0,9.0,80,0.00,,---,0.14,0.00,VWS V14.00,2013-05-01 01:16:00,
2013-04-30 21:17:00,70.1,63.7,30.04,SSE,151,5.0,9.0,80,0.00,,---,0.14,0.00,VWS V14.00,2013-05-01 01:17:00,
2013-04-30 21:18:00,70.0,63.5,30.04,SE,135,6.0,9.0,80,0.00,,---,0.14,0.00,VWS V14.00,2013-05-01 01:18:00,
2013-04-30 21:19:00,70.0,63.5,30.04,SE,129,8.0,9.0,80,0.00,,---,0.14,0.00,VWS V14.00,2013-05-01 01:19:00,
2013-04-30 21:20:00,70.0,63.5,30.04,SE,143,6.0,9.0,80,0.00,,---,0.14,0.00,VWS V14.00,2013-05-01 01:20:00,
2013-04-30 21:21:00,70.0,63.9,30.04,SSE,153,4.0,9.0,81,0.00,,---,0.14,0.00,VWS V14.00,2013-05-01 01:21:00,
2013-04-30 21:22:00,69.9,63.8,30.04,SE,137,4.0,9.0,81,0.00,,---,0.14,0.00,VWS V14.00,2013-05-01 01:22:00,
2013-04-30 21:23:00,69.9,63.8,30.04,SE,137,4.0,9.0,81,0.00,,---,0.14,0.00,VWS V14.00,2013-05-01 01:23:00,
2013-04-30 21:24:00,69.9,63.8,30.04,SE,137,3.0,9.0,81,0.00,,---,0.14,0.00,VWS V14.00,2013-05-01 01:24:00,
2013-04-30 21:25:00,69.9,63.8,30.04,SSE,160,3.0,9.0,81,0.00,,---,0.14,0.00,VWS V14.00,2013-05-01 01:25:00,
2013-04-30 21:26:00,69.9,63.8,30.04,SSE,159,1.0,9.0,81,0.00,,---,0.14,0.00,VWS V14.00,2013-05-01 01:26:00,
2013-04-30 21:27:00,69.8,63.7,30.04,SE,130,8.0,9.0,81,0.00,,---,0.14,0.00,VWS V14.00,2013-05-01 01:27:00,
2013-04-30 21:28:00,69.8,63.7,30.04,SE,135,6.0,9.0,81,0.00,,---,0.14,0.00,VWS V14.00,2013-05-01 01:28:00,
2013-04-30 21:29:00,69.8,63.7,30.04,SE,131,6.0,9.0,81,0.00,,---,0.14,0.00,VWS V14.00,2013-05-01 01:29:00,
2013-04-30 21:30:00,69.9,64.2,30.04,ESE,114,4.0,9.0,82,0.00,,---,0.14,0.00,VWS V14.00,2013-05-01 01:30:00,
2013-04-30 21:31:00,69.9,64.2,30.04,ESE,120,4.0,7.0,82,0.00,,---,0.14,0.00,VWS V14.00,2013-05-01 01:31:00,
2013-04-30 21:32:00,69.8,64.1,30.04,ESE,120,5.0,7.0,82,0.00,,---,0.14,0.00,VWS V14.00,2013-05-01 01:32:00,
2013-04-30 21:33:00,69.8,64.1,30.04,SE,129,6.0,7.0,82,0.00,,---,0.14,0.00,VWS V14.00,2013-05-01 01:33:00,
2013-04-30 21:34:00,69.8,64.1,30.04,ESE,111,5.0,9.0,82,0.00,,---,0.14,0.00,VWS V14.00,2013-05-01 01:34:00,
2013-04-30 21:35:00,69.9,64.2,30.04,ESE,114,5.0,9.0,82,0.00,,---,0.14,0.00,VWS V14.00,2013-05-01 01:35:00,
2013-04-30 21:36:00,69.9,64.2,30.04,ESE,114,5.0,9.0,82,0.00,,---,0.14,0.00,VWS V14.00,2013-05-01 01:36:00,
2013-04-30 21:37:00,70.0,64.6,30.04,East,97,6.0,9.0,83,0.00,,---,0.14,0.00,VWS V14.00,2013-05-01 01:37:00,
2013-04-30 21:38:00,70.0,64.6,30.04,ESE,117,9.0,10.0,83,0.00,,---,0.14,0.00,VWS V14.00,2013-05-01 01:38:00,
2013-04-30 21:39:00,70.1,64.7,30.04,ESE,110,6.0,10.0,83,0.00,,---,0.14,0.00,VWS V14.00,2013-05-01 01:39:00,
2013-04-30 21:40:00,70.2,64.8,30.04,ESE,106,8.0,10.0,83,0.00,,---,0.14,0.00,VWS V14.00,2013-05-01 01:40:00,
2013-04-30 21:41:00,70.1,64.7,30.04,ESE,108,7.0,10.0,83,0.00,,---,0.14,0.00,VWS V14.00,2013-05-01 01:41:00,
2013-04-30 21:42:00,70.2,64.8,30.04,ESE,115,6.0,10.0,83,0.00,,---,0.14,0.00,VWS V14.00,2013-05-01 01:42:00,
2013-04-30 21:43:00,70.2,64.8,30.04,ESE,112,6.0,10.0,83,0.00,,---,0.14,0.00,VWS V14.00,2013-05-01 01:43:00,
2013-04-30 21:44:00,70.2,64.8,30.04,ESE,110,6.0,10.0,83,0.00,,---,0.14,0.00,VWS V14.00,2013-05-01 01:44:00,
2013-04-30 21:45:00,70.2,64.8,30.04,ESE,113,7.0,10.0,83,0.00,,---,0.14,0.00,VWS V14.00,2013-05-01 01:45:00,
2013-04-30 21:46:00,70.2,64.8,30.04,East,98,9.0,10.0,83,0.00,,---,0.14,0.00,VWS V14.00,2013-05-01 01:46:00,
2013-04-30 21:47:00,70.2,64.8,30.04,ESE,109,6.0,10.0,83,0.00,,---,0.14,0.00,VWS V14.00,2013-05-01 01:47:00,
2013-04-30 21:48:00,70.2,64.8,30.04,East,97,6.0,10.0,83,0.00,,---,0.14,0.00,VWS V14.00,2013-05-01 01:48:00,
2013-04-30 21:49:00,70.2,64.8,30.04,ESE,112,6.0,10.0,83,0.00,,---,0.14,0.00,VWS V14.00,2013-05-01 01:49:00,
2013-04-30 21:50:00,70.2,64.8,30.04,ESE,110,6.0,10.0,83,0.00,,---,0.14,0.00,VWS V14.00,2013-05-01 01:50:00,
2013-04-30 21:51:00,70.2,64.8,30.04,ESE,105,5.0,10.0,83,0.00,,---,0.14,0.00,VWS V14.00,2013-05-01 01:51:00,
2013-04-30 21:52:00,70.2,64.8,30.04,ESE,105,4.0,10.0,83,0.00,,---,0.14,0.00,VWS V14.00,2013-05-01 01:52:00,
2013-04-30 21:53:00,70.2,64.8,30.04,ESE,105,5.0,10.0,83,0.00,,---,0.14,0.00,VWS V14.00,2013-05-01 01:53:00,
2013-04-30 21:54:00,70.2,64.8,30.05,ESE,104,8.0,10.0,83,0.00,,---,0.14,0.00,VWS V14.00,2013-05-01 01:54:00,
2013-04-30 21:55:00,70.2,64.8,30.05,ESE,104,7.0,10.0,83,0.00,,---,0.14,0.00,VWS V14.00,2013-05-01 01:55:00,
2013-04-30 21:56:00,70.2,64.8,30.05,ESE,108,8.0,10.0,83,0.00,,---,0.14,0.00,VWS V14.00,2013-05-01 01:56:00,
2013-04-30 21:57:00,70.2,64.8,30.04,ESE,109,7.0,10.0,83,0.00,,---,0.14,0.00,VWS V14.00,2013-05-01 01:57:00,
2013-04-30 21:58:00,70.2,64.8,30.04,East,97,6.0,10.0,83,0.00,,---,0.14,0.00,VWS V14.00,2013-05-01 01:58:00,
2013-04-30 21:59:00,70.2,64.8,30.04,ESE,107,6.0,10.0,83,0.00,,---,0.14,0.00,VWS V14.00,2013-05-01 01:59:00,
2013-04-30 22:00:00,70.2,64.8,30.04,ESE,102,6.0,10.0,83,0.00,,---,0.14,0.00,VWS V14.00,2013-05-01 02:00:00,
2013-04-30 22:01:00,70.2,64.8,30.05,East,99,8.0,8.0,83,0.00,,---,0.14,0.00,VWS V14.00,2013-05-01 02:01:00,
2013-04-30 22:02:00,70.2,64.8,30.04,ESE,108,7.0,8.0,83,0.00,,---,0.14,0.00,VWS V14.00,2013-05-01 02:02:00,
2013-04-30 22:03:00,70.2,64.8,30.04,ESE,105,4.0,8.0,83,0.00,,---,0.14,0.00,VWS V14.00,2013-05-01 02:03:00,
2013-04-30 22:04:00,70.3,64.9,30.05,ESE,105,6.0,8.0,83,0.00,,---,0.14,0.00,VWS V14.00,2013-05-01 02:04:00,
2013-04-30 22:05:00,70.3,65.2,30.04,East,84,8.0,10.0,84,0.00,,---,0.14,0.00,VWS V14.00,2013-05-01 02:05:00,
2013-04-30 22:06:00,70.4,65.3,30.04,East,83,7.0,10.0,84,0.00,,---,0.14,0.00,VWS V14.00,2013-05-01 02:06:00,
2013-04-30 22:07:00,70.5,65.4,30.04,ENE,71,9.0,10.0,84,0.00,,---,0.14,0.00,VWS V14.00,2013-05-01 02:07:00,
2013-04-30 22:08:00,70.6,65.5,30.05,East,79,9.0,10.0,84,0.00,,---,0.14,0.00,VWS V14.00,2013-05-01 02:08:00,
2013-04-30 22:09:00,70.6,65.5,30.05,ENE,75,8.0,10.0,84,0.00,,---,0.14,0.00,VWS V14.00,2013-05-01 02:09:00,
2013-04-30 22:10:00,70.6,65.5,30.05,East,86,9.0,10.0,84,0.00,,---,0.14,0.00,VWS V14.00,2013-05-01 02:10:00,
2013-04-30 22:11:00,70.6,65.2,30.05,East,90,10.0,11.0,83,0.00,,---,0.14,0.00,VWS V14.00,2013-05-01 02:11:00,
2013-04-30 22:12:00,70.6,65.2,30.05,East,91,9.0,11.0,83,0.00,,---,0.14,0.00,VWS V14.00,2013-05-01 02:12:00,
2013-04-30 22:13:00,70.6,65.2,30.05,East,94,8.0,11.0,83,0.00,,---,0.14,0.00,VWS V14.00,2013-05-01 02:13:00,
2013-04-30 22:14:00,70.6,65.2,30.05,East,89,8.0,11.0,83,0.00,,---,0.14,0.00,VWS V14.00,2013-05-01 02:14:00,
2013-04-30 22:15:00,70.6,65.2,30.05,East,89,8.0,11.0,83,0.00,,---,0.14,0.00,VWS V14.00,2013-05-01 02:15:00,
2013-04-30 22:16:00,70.6,65.2,30.05,East,89,7.0,11.0,83,0.00,,---,0.14,0.00,VWS V14.00,2013-05-01 02:16:00,
2013-04-30 22:17:00,70.6,65.2,30.05,East,79,8.0,11.0,83,0.00,,---,0.14,0.00,VWS V14.00,2013-05-01 02:17:00,
2013-04-30 22:18:00,70.6,65.5,30.05,East,84,8.0,11.0,84,0.00,,---,0.14,0.00,VWS V14.00,2013-05-01 02:18:00,
2013-04-30 22:19:00,70.7,65.6,30.05,East,87,10.0,11.0,84,0.00,,---,0.14,0.00,VWS V14.00,2013-05-01 02:19:00,
2013-04-30 22:20:00,70.7,65.6,30.05,East,91,9.0,11.0,84,0.00,,---,0.14,0.00,VWS V14.00,2013-05-01 02:20:00,
2013-04-30 22:21:00,70.7,65.3,30.05,ENE,73,8.0,11.0,83,0.00,,---,0.14,0.00,VWS V14.00,2013-05-01 02:21:00,
2013-04-30 22:22:00,70.7,65.6,30.05,ENE,76,6.0,11.0,84,0.00,,---,0.14,0.00,VWS V14.00,2013-05-01 02:22:00,
2013-04-30 22:23:00,70.7,65.3,30.05,ENE,75,7.0,11.0,83,0.00,,---,0.14,0.00,VWS V14.00,2013-05-01 02:23:00,
2013-04-30 22:24:00,70.7,65.3,30.05,East,82,7.0,11.0,83,0.00,,---,0.14,0.00,VWS V14.00,2013-05-01 02:24:00,
2013-04-30 22:25:00,70.7,65.3,30.05,East,79,5.0,11.0,83,0.00,,---,0.14,0.00,VWS V14.00,2013-05-01 02:25:00,
2013-04-30 22:26:00,70.8,65.7,30.05,East,89,5.0,11.0,84,0.00,,---,0.14,0.00,VWS V14.00,2013-05-01 02:26:00,
2013-04-30 22:27:00,70.8,65.7,30.05,East,87,6.0,11.0,84,0.00,,---,0.14,0.00,VWS V14.00,2013-05-01 02:27:00,
2013-04-30 22:28:00,70.8,65.4,30.05,ENE,67,6.0,11.0,83,0.00,,---,0.14,0.00,VWS V14.00,2013-05-01 02:28:00,
2013-04-30 22:29:00,70.7,65.3,30.05,ENE,67,5.0,11.0,83,0.00,,---,0.14,0.00,VWS V14.00,2013-05-01 02:29:00,
2013-04-30 22:30:00,70.6,65.2,30.05,ENE,67,4.0,11.0,83,0.00,,---,0.14,0.00,VWS V14.00,2013-05-01 02:30:00,
2013-04-30 22:31:00,70.5,65.1,30.05,ENE,67,6.0,7.0,83,0.00,,---,0.14,0.00,VWS V14.00,2013-05-01 02:31:00,
2013-04-30 22:32:00,70.4,65.0,30.05,ENE,67,3.0,7.0,83,0.00,,---,0.14,0.00,VWS V14.00,2013-05-01 02:32:00,
2013-04-30 22:33:00,70.4,65.0,30.05,ENE,67,3.0,7.0,83,0.00,,---,0.14,0.00,VWS V14.00,2013-05-01 02:33:00,
2013-04-30 22:34:00,70.4,65.0,30.05,ENE,67,4.0,7.0,83,0.00,,---,0.14,0.00,VWS V14.00,2013-05-01 02:34:00,
2013-04-30 22:35:00,70.3,64.9,30.05,ENE,67,3.0,7.0,83,0.00,,---,0.14,0.00,VWS V14.00,2013-05-01 02:35:00,
2013-04-30 22:36:00,70.3,65.2,30.05,ENE,67,2.0,7.0,84,0.00,,---,0.14,0.00,VWS V14.00,2013-05-01 02:36:00,
2013-04-30 22:37:00,70.2,65.1,30.05,ENE,67,3.0,7.0,84,0.00,,---,0.14,0.00,VWS V14.00,2013-05-01 02:37:00,
2013-04-30 22:38:00,70.2,65.1,30.05,ENE,67,5.0,7.0,84,0.00,,---,0.14,0.00,VWS V14.00,2013-05-01 02:38:00,
2013-04-30 22:39:00,70.1,65.1,30.05,ENE,67,4.0,7.0,84,0.00,,---,0.14,0.00,VWS V14.00,2013-05-01 02:39:00,
2013-04-30 22:40:00,70.1,64.7,30.05,ENE,67,5.0,7.0,83,0.00,,---,0.14,0.00,VWS V14.00,2013-05-01 02:40:00,
2013-04-30 22:41:00,70.1,65.1,30.05,ENE,67,6.0,7.0,84,0.00,,---,0.14,0.00,VWS V14.00,2013-05-01 02:41:00,
2013-04-30 22:42:00,70.0,64.9,30.05,ENE,69,6.0,7.0,84,0.00,,---,0.14,0.00,VWS V14.00,2013-05-01 02:42:00,
2013-04-30 22:43:00,69.9,64.8,30.05,ENE,69,5.0,7.0,84,0.00,,---,0.14,0.00,VWS V14.00,2013-05-01 02:43:00,
2013-04-30 22:44:00,69.9,64.8,30.05,ENE,66,6.0,7.0,84,0.00,,---,0.14,0.00,VWS V14.00,2013-05-01 02:44:00,
2013-04-30 22:45:00,69.9,64.8,30.05,ENE,66,5.0,7.0,84,0.00,,---,0.14,0.00,VWS V14.00,2013-05-01 02:45:00,
2013-04-30 22:46:00,69.9,64.8,30.05,ENE,64,6.0,8.0,84,0.00,,---,0.14,0.00,VWS V14.00,2013-05-01 02:46:00,
2013-04-30 22:47:00,69.8,64.8,30.05,ENE,64,4.0,8.0,84,0.00,,---,0.14,0.00,VWS V14.00,2013-05-01 02:47:00,
2013-04-30 22:48:00,69.8,64.8,30.05,ENE,64,4.0,8.0,84,0.00,,---,0.14,0.00,VWS V14.00,2013-05-01 02:48:00,
2013-04-30 22:49:00,69.7,64.7,30.05,ENE,64,6.0,8.0,84,0.00,,---,0.14,0.00,VWS V14.00,2013-05-01 02:49:00,
2013-04-30 22:50:00,69.7,64.7,30.05,ENE,59,6.0,8.0,84,0.00,,---,0.14,0.00,VWS V14.00,2013-05-01 02:50:00,
2013-04-30 22:51:00,69.6,64.6,30.05,ENE,59,5.0,8.0,84,0.00,,---,0.14,0.00,VWS V14.00,2013-05-01 02:51:00,
2013-04-30 22:52:00,69.6,64.6,30.05,ENE,59,5.0,8.0,84,0.00,,---,0.14,0.00,VWS V14.00,2013-05-01 02:52:00,
2013-04-30 22:53:00,69.5,64.8,30.05,ENE,59,4.0,8.0,85,0.00,,---,0.14,0.00,VWS V14.00,2013-05-01 02:53:00,
2013-04-30 22:54:00,69.5,64.8,30.05,ENE,59,3.0,8.0,85,0.00,,---,0.14,0.00,VWS V14.00,2013-05-01 02:54:00,
2013-04-30 22:55:00,69.5,64.8,30.05,ENE,59,4.0,8.0,85,0.00,,---,0.14,0.00,VWS V14.00,2013-05-01 02:55:00,
2013-04-30 22:56:00,69.5,64.8,30.05,ENE,59,3.0,8.0,85,0.00,,---,0.14,0.00,VWS V14.00,2013-05-01 02:56:00,
2013-04-30 22:57:00,69.5,64.8,30.05,ENE,59,4.0,8.0,85,0.00,,---,0.14,0.00,VWS V14.00,2013-05-01 02:57:00,
2013-04-30 22:58:00,69.4,64.7,30.05,ENE,59,3.0,8.0,85,0.00,,---,0.14,0.00,VWS V14.00,2013-05-01 02:58:00,
2013-04-30 22:59:00,69.4,64.7,30.05,ENE,59,5.0,8.0,85,0.00,,---,0.14,0.00,VWS V14.00,2013-05-01 02:59:00,
2013-04-30 23:00:00,69.4,64.7,30.05,ENE,59,4.0,8.0,85,0.00,,---,0.14,0.00,VWS V14.00,2013-05-01 03:00:00,
2013-04-30 23:01:00,69.4,64.7,30.05,ENE,59,3.0,5.0,85,0.00,,---,0.14,0.00,VWS V14.00,2013-05-01 03:01:00,
2013-04-30 23:02:00,69.3,64.6,30.05,ENE,59,3.0,5.0,85,0.00,,---,0.14,0.00,VWS V14.00,2013-05-01 03:02:00,
2013-04-30 23:03:00,69.2,64.5,30.05,ENE,59,3.0,5.0,85,0.00,,---,0.14,0.00,VWS V14.00,2013-05-01 03:03:00,
2013-04-30 23:04:00,69.2,64.5,30.04,ENE,59,4.0,5.0,85,0.00,,---,0.14,0.00,VWS V14.00,2013-05-01 03:04:00,
2013-04-30 23:05:00,69.2,64.5,30.04,ENE,59,2.0,5.0,85,0.00,,---,0.14,0.00,VWS V14.00,2013-05-01 03:05:00,
2013-04-30 23:06:00,69.1,64.4,30.04,ENE,59,4.0,5.0,85,0.00,,---,0.14,0.00,VWS V14.00,2013-05-01 03:06:00,
2013-04-30 23:07:00,69.1,64.4,30.04,ENE,59,2.0,5.0,85,0.00,,---,0.14,0.00,VWS V14.00,2013-05-01 03:07:00,
2013-04-30 23:08:00,69.1,64.4,30.04,ENE,59,2.0,5.0,85,0.00,,---,0.14,0.00,VWS V14.00,2013-05-01 03:08:00,
2013-04-30 23:09:00,69.1,64.4,30.04,ENE,59,2.0,5.0,85,0.00,,---,0.14,0.00,VWS V14.00,2013-05-01 03:09:00,
2013-04-30 23:10:00,69.1,64.4,30.04,ENE,59,0.0,5.0,85,0.00,,---,0.14,0.00,VWS V14.00,2013-05-01 03:10:00,
2013-04-30 23:11:00,69.1,64.4,30.04,ENE,59,1.0,5.0,85,0.00,,---,0.14,0.00,VWS V14.00,2013-05-01 03:11:00,
2013-04-30 23:12:00,69.1,64.4,30.04,ENE,59,1.0,5.0,85,0.00,,---,0.14,0.00,VWS V14.00,2013-05-01 03:12:00,
2013-04-30 23:13:00,69.1,64.4,30.04,ENE,59,1.0,5.0,85,0.00,,---,0.14,0.00,VWS V14.00,2013-05-01 03:13:00,
2013-04-30 23:14:00,69.0,64.3,30.04,ENE,59,0.0,5.0,85,0.00,,---,0.14,0.00,VWS V14.00,2013-05-01 03:14:00,
2013-04-30 23:15:00,69.0,64.3,30.04,ENE,59,0.0,5.0,85,0.00,,---,0.14,0.00,VWS V14.00,2013-05-01 03:15:00,
2013-04-30 23:16:00,69.0,64.3,30.05,ENE,59,2.0,5.0,85,0.00,,---,0.14,0.00,VWS V14.00,2013-05-01 03:16:00,
2013-04-30 23:17:00,69.0,64.3,30.05,ENE,59,0.0,5.0,85,0.00,,---,0.14,0.00,VWS V14.00,2013-05-01 03:17:00,
2013-04-30 23:18:00,69.0,64.3,30.05,ENE,59,0.0,5.0,85,0.00,,---,0.14,0.00,VWS V14.00,2013-05-01 03:18:00,
2013-04-30 23:19:00,69.0,64.3,30.05,ENE,59,0.0,5.0,85,0.00,,---,0.14,0.00,VWS V14.00,2013-05-01 03:19:00,
2013-04-30 23:20:00,69.0,64.3,30.04,ENE,59,0.0,5.0,85,0.00,,---,0.14,0.00,VWS V14.00,2013-05-01 03:20:00,
2013-04-30 23:21:00,69.0,64.3,30.05,ENE,59,0.0,5.0,85,0.00,,---,0.14,0.00,VWS V14.00,2013-05-01 03:21:00,
2013-04-30 23:22:00,69.0,64.3,30.04,ENE,59,0.0,5.0,85,0.00,,---,0.14,0.00,VWS V14.00,2013-05-01 03:22:00,
2013-04-30 23:23:00,69.0,64.3,30.04,ENE,59,1.0,5.0,85,0.00,,---,0.14,0.00,VWS V14.00,2013-05-01 03:23:00,
2013-04-30 23:24:00,69.0,64.3,30.05,ENE,59,0.0,5.0,85,0.00,,---,0.14,0.00,VWS V14.00,2013-05-01 03:24:00,
2013-04-30 23:25:00,69.0,64.3,30.04,ENE,59,1.0,5.0,85,0.00,,---,0.14,0.00,VWS V14.00,2013-05-01 03:25:00,
2013-04-30 23:26:00,69.0,64.3,30.04,ENE,59,0.0,5.0,85,0.00,,---,0.14,0.00,VWS V14.00,2013-05-01 03:26:00,
2013-04-30 23:27:00,69.0,64.3,30.04,ENE,59,1.0,5.0,85,0.00,,---,0.14,0.00,VWS V14.00,2013-05-01 03:27:00,
2013-04-30 23:28:00,69.0,64.3,30.04,ENE,59,2.0,5.0,85,0.00,,---,0.14,0.00,VWS V14.00,2013-05-01 03:28:00,
2013-04-30 23:29:00,69.1,64.4,30.04,ENE,59,1.0,5.0,85,0.00,,---,0.14,0.00,VWS V14.00,2013-05-01 03:29:00,
2013-04-30 23:30:00,69.1,64.4,30.04,ENE,59,3.0,5.0,85,0.00,,---,0.14,0.00,VWS V14.00,2013-05-01 03:30:00,
2013-04-30 23:31:00,69.1,64.4,30.05,ENE,59,1.0,3.0,85,0.00,,---,0.14,0.00,VWS V14.00,2013-05-01 03:31:00,
2013-04-30 23:32:00,69.1,64.4,30.05,ENE,59,1.0,3.0,85,0.00,,---,0.14,0.00,VWS V14.00,2013-05-01 03:32:00,
2013-04-30 23:33:00,69.1,64.4,30.05,ENE,59,3.0,3.0,85,0.00,,---,0.14,0.00,VWS V14.00,2013-05-01 03:33:00,
2013-04-30 23:34:00,69.1,64.1,30.05,ENE,59,1.0,3.0,84,0.00,,---,0.14,0.00,VWS V14.00,2013-05-01 03:34:00,
2013-04-30 23:35:00,69.1,64.1,30.05,ENE,59,1.0,3.0,84,0.00,,---,0.14,0.00,VWS V14.00,2013-05-01 03:35:00,
2013-04-30 23:36:00,69.1,64.1,30.05,ENE,59,2.0,3.0,84,0.00,,---,0.14,0.00,VWS V14.00,2013-05-01 03:36:00,
2013-04-30 23:37:00,69.1,64.1,30.05,ENE,59,3.0,4.0,84,0.00,,---,0.14,0.00,VWS V14.00,2013-05-01 03:37:00,
2013-04-30 23:38:00,69.1,64.1,30.05,ENE,59,3.0,4.0,84,0.00,,---,0.14,0.00,VWS V14.00,2013-05-01 03:38:00,
2013-04-30 23:39:00,69.2,64.5,30.05,ENE,59,2.0,4.0,85,0.00,,---,0.14,0.00,VWS V14.00,2013-05-01 03:39:00,
2013-04-30 23:40:00,69.2,64.5,30.05,ENE,59,3.0,4.0,85,0.00,,---,0.14,0.00,VWS V14.00,2013-05-01 03:40:00,
2013-04-30 23:41:00,69.2,64.5,30.05,ENE,59,3.0,4.0,85,0.00,,---,0.14,0.00,VWS V14.00,2013-05-01 03:41:00,
2013-04-30 23:42:00,69.2,64.5,30.05,ENE,59,4.0,4.0,85,0.00,,---,0.14,0.00,VWS V14.00,2013-05-01 03:42:00,
2013-04-30 23:43:00,69.2,64.5,30.05,ENE,59,4.0,4.0,85,0.00,,---,0.14,0.00,VWS V14.00,2013-05-01 03:43:00,
2013-04-30 23:44:00,69.1,64.4,30.05,ENE,59,4.0,5.0,85,0.00,,---,0.14,0.00,VWS V14.00,2013-05-01 03:44:00,
2013-04-30 23:45:00,69.1,64.4,30.05,ENE,59,5.0,5.0,85,0.00,,---,0.14,0.00,VWS V14.00,2013-05-01 03:45:00,
2013-04-30 23:46:00,69.1,64.4,30.05,ENE,59,4.0,5.0,85,0.00,,---,0.14,0.00,VWS V14.00,2013-05-01 03:46:00,
2013-04-30 23:47:00,69.0,64.3,30.05,ENE,59,4.0,5.0,85,0.00,,---,0.14,0.00,VWS V14.00,2013-05-01 03:47:00,
2013-04-30 23:48:00,69.0,64.3,30.05,ENE,59,4.0,5.0,85,0.00,,---,0.14,0.00,VWS V14.00,2013-05-01 03:48:00,
2013-04-30 23:49:00,68.9,64.2,30.05,ENE,58,5.0,5.0,85,0.00,,---,0.14,0.00,VWS V14.00,2013-05-01 03:49:00,
2013-04-30 23:50:00,68.9,64.2,30.05,ENE,58,3.0,5.0,85,0.00,,---,0.14,0.00,VWS V14.00,2013-05-01 03:50:00,
2013-04-30 23:51:00,68.8,64.1,30.05,ENE,58,4.0,5.0,85,0.00,,---,0.14,0.00,VWS V14.00,2013-05-01 03:51:00,
2013-04-30 23:52:00,68.8,64.1,30.05,ENE,58,3.0,5.0,85,0.00,,---,0.14,0.00,VWS V14.00,2013-05-01 03:52:00,
2013-04-30 23:53:00,68.7,64.0,30.05,ENE,58,4.0,5.0,85,0.00,,---,0.14,0.00,VWS V14.00,2013-05-01 03:53:00,
2013-04-30 23:54:00,68.7,64.0,30.04,ENE,58,3.0,5.0,85,0.00,,---,0.14,0.00,VWS V14.00,2013-05-01 03:54:00,
2013-04-30 23:55:00,68.6,63.9,30.04,ENE,58,4.0,5.0,85,0.00,,---,0.14,0.00,VWS V14.00,2013-05-01 03:55:00,
2013-04-30 23:56:00,68.6,63.9,30.04,ENE,58,4.0,5.0,85,0.00,,---,0.14,0.00,VWS V14.00,2013-05-01 03:56:00,
2013-04-30 23:57:00,68.5,64.2,30.04,ENE,58,3.0,5.0,86,0.00,,---,0.14,0.00,VWS V14.00,2013-05-01 03:57:00,
2013-04-30 23:58:00,68.5,64.2,30.04,ENE,58,4.0,5.0,86,0.00,,---,0.14,0.00,VWS V14.00,2013-05-01 03:58:00,
2013-04-30 23:59:00,68.4,64.1,30.04,ENE,58,3.0,5.0,86,0.00,,---,0.14,0.00,VWS V14.00,2013-05-01 03:59:00,